GFSSW_925_thetae_000.txt.gz
Theta_e
316 315 316 316 316 316 317 320 321 320 317 312 312 313 312 314 317 317 321 320 320 319 324 329 326 327 328 333 335 334 344 338 336 336 336 326 324 322 322 323 324 324 323 322 321
318 316 315 315 316 318 319 319 317 312 310 311 311 310 310 311 314 319 317 316 317 319 327 325 326 326 332 331 335 337 337 337 335 334 333 326 324 322 322 324 325 323 320 320 320
315 314 314 313 314 314 313 311 311 311 311 310 309 310 311 310 320 319 314 315 316 321 325 323 325 328 331 330 331 332 336 334 331 329 328 326 324 322 322 325 325 324 320 319 319
312 312 312 312 312 312 311 311 311 311 310 309 309 311 312 314 320 316 312 314 316 321 323 322 325 327 330 329 328 328 328 328 328 324 326 325 323 321 322 326 324 321 319 319 318
310 310 309 309 308 309 309 310 310 310 310 309 311 312 315 317 315 314 313 315 317 319 322 323 324 327 328 327 325 326 326 325 326 322 323 324 322 322 323 324 322 320 319 318 317
309 309 309 308 308 308 309 309 310 310 310 311 312 312 317 316 312 313 314 315 317 320 322 323 324 323 324 323 324 325 324 324 323 322 322 323 322 322 322 323 322 318 318 317 316
309 309 309 309 308 308 309 309 310 310 310 312 312 315 318 313 311 312 313 315 316 319 322 322 322 322 323 322 323 323 323 322 322 321 322 322 324 323 322 321 318 317 316 316 316
309 309 309 309 309 309 309 309 310 310 310 312 312 316 317 311 312 312 314 315 317 319 321 321 321 324 324 322 321 321 322 325 323 322 322 321 323 323 321 320 318 317 317 317 315
309 309 309 309 309 309 309 309 310 310 311 312 316 319 316 310 313 314 314 316 318 319 320 320 321 323 322 323 323 323 323 324 325 322 323 321 323 324 321 320 319 318 317 317 315
308 309 309 309 309 308 309 310 314 311 314 319 319 316 313 313 314 313 314 316 318 320 320 320 322 323 322 322 325 325 322 322 324 323 322 323 321 324 322 320 319 319 318 318 317
308 308 308 308 309 308 311 316 318 319 316 318 318 317 315 313 313 313 314 316 318 321 322 322 323 324 323 322 322 323 324 324 324 325 323 322 322 322 323 321 320 319 319 318 317
309 308 308 308 308 309 309 320 319 317 316 317 318 316 316 314 314 314 315 317 320 323 322 324 323 323 323 324 323 324 323 322 323 323 323 324 323 322 321 322 320 319 319 319 318
309 308 308 309 309 309 315 318 316 316 318 319 318 317 316 315 314 315 315 317 321 322 323 324 324 322 323 324 323 324 323 322 322 323 322 322 322 321 320 320 322 321 319 319 318
309 309 309 309 311 314 315 317 317 317 320 319 316 316 315 315 315 315 315 319 321 321 322 324 322 321 321 321 321 322 323 322 322 322 322 321 324 321 321 321 320 321 320 319 318
317 310 309 308 310 315 318 317 317 317 333 319 316 314 316 315 318 317 316 318 321 321 322 323 321 320 321 320 321 321 321 321 323 322 322 322 323 322 323 323 321 320 320 319 318
321 317 310 313 313 318 318 316 317 323 327 320 317 315 316 316 317 318 317 318 320 320 321 321 319 320 320 321 321 321 321 321 322 323 325 322 323 323 323 323 322 321 319 319 318
322 320 312 310 321 322 319 316 322 325 321 321 319 317 316 318 316 319 319 318 319 320 322 321 321 319 320 321 319 321 322 325 330 330 328 323 322 322 323 322 321 321 320 318 317
320 321 318 313 316 321 320 317 323 324 324 320 319 318 318 318 319 319 320 321 319 320 321 323 323 320 319 320 321 321 321 323 325 327 327 321 323 322 321 319 319 318 319 317 316
318 321 320 320 314 321 321 319 323 324 321 321 320 320 320 320 320 320 319 320 321 320 322 322 322 322 319 319 320 323 322 321 323 322 322 322 322 321 320 316 317 317 316 317 315
317 319 319 321 317 318 321 322 322 323 323 323 321 322 323 324 321 320 321 321 321 321 320 321 323 323 321 319 319 320 322 323 322 322 321 321 320 323 321 318 315 314 314 316 316
318 319 321 320 318 316 321 324 324 323 323 321 322 321 321 322 322 323 322 323 324 323 321 321 322 324 319 320 320 320 321 322 322 320 320 320 321 320 318 318 316 313 313 315 315
314 315 319 319 321 320 321 321 320 322 322 322 321 322 321 321 323 323 324 324 322 323 324 322 323 324 322 321 320 320 320 321 321 321 321 321 322 320 321 316 315 314 314 314 314
312 313 318 319 319 317 317 316 318 320 322 321 321 321 322 323 324 323 323 322 322 323 323 323 324 324 324 322 320 321 321 319 320 320 321 322 322 318 316 317 314 314 313 313 313
310 308 312 317 317 318 319 318 319 319 320 321 322 323 324 325 324 324 324 323 320 323 331 325 323 323 324 324 323 321 321 321 321 321 321 321 321 320 316 315 314 314 314 312 313
308 310 311 309 312 312 311 312 313 315 316 317 317 317 321 324 324 326 325 324 323 323 324 323 323 322 322 323 324 324 322 321 321 321 322 321 322 322 321 320 314 314 313 313 312
309 309 309 309 308 307 306 306 307 310 311 313 316 316 317 318 321 323 322 322 323 321 318 320 326 324 322 322 322 323 323 324 321 321 321 321 321 321 320 319 319 315 315 314 313
308 307 307 308 308 308 308 307 307 307 307 307 308 309 315 316 314 315 316 316 316 315 312 313 318 324 329 323 323 325 323 324 324 322 321 321 321 320 320 320 320 318 316 314 313

GFSSW_925_thetae_003.txt.gz
Theta_e
316 316 317 316 315 316 318 320 320 319 315 313 313 313 312 313 315 317 319 320 317 317 322 327 326 326 327 330 332 331 332 331 332 332 329 321 321 320 320 321 322 321 319 319 321
318 317 316 316 317 318 319 318 315 311 311 312 311 310 310 311 311 316 319 315 316 318 325 324 324 325 326 328 330 330 326 330 330 327 324 321 320 319 321 322 322 319 318 320 320
315 314 313 314 314 314 313 311 311 310 311 310 309 310 311 311 317 318 315 314 316 320 324 324 322 325 326 327 327 327 331 331 326 327 324 322 321 319 319 322 321 319 317 317 319
312 311 311 311 311 311 310 310 310 310 310 309 310 311 312 312 318 317 311 312 316 321 322 323 322 324 325 325 324 325 327 325 325 322 323 321 319 319 319 322 320 317 316 316 314
310 310 309 308 308 308 309 309 310 310 310 309 311 312 313 317 314 314 311 314 316 318 319 322 321 323 324 324 323 323 323 324 322 320 320 321 320 318 321 320 317 317 316 315 313
309 309 308 308 308 308 308 309 310 311 310 310 312 312 317 315 312 314 313 314 316 318 320 322 322 320 321 321 320 322 322 323 321 320 320 321 320 319 320 319 317 316 315 313 313
309 309 309 309 308 308 309 309 310 311 310 311 312 314 318 315 312 312 312 314 315 317 320 321 321 320 319 320 320 321 321 321 319 319 319 319 320 321 319 319 318 315 313 313 313
309 309 309 309 309 309 309 309 310 310 310 311 312 313 315 312 312 312 313 314 316 318 319 321 321 321 321 319 319 320 319 320 319 319 319 318 317 319 318 318 316 314 311 312 312
309 309 309 309 308 308 308 309 309 309 309 311 314 318 316 310 311 312 313 314 316 318 319 320 320 320 320 318 317 318 317 318 321 319 321 317 317 319 317 319 316 312 312 312 311
308 308 308 308 308 308 309 310 310 312 311 314 320 314 313 312 313 313 313 315 317 318 319 318 318 318 317 317 317 319 318 318 319 319 320 319 318 321 317 318 317 314 313 313 313
309 307 307 307 308 308 309 315 317 318 315 317 318 314 313 313 313 312 314 315 317 318 318 318 317 318 317 316 318 319 320 320 318 321 319 320 319 318 319 318 316 314 313 314 314
308 308 308 308 308 309 308 317 317 316 314 315 316 316 316 313 312 311 314 315 317 318 318 319 319 318 319 319 319 319 319 319 318 321 319 319 320 319 317 320 318 317 315 315 314
312 309 309 309 309 310 312 316 317 316 315 317 316 317 315 314 313 312 313 314 317 318 319 318 320 320 320 321 321 319 320 320 319 321 320 320 319 318 318 317 319 318 317 315 315
320 311 309 309 314 316 315 317 316 316 317 319 316 315 314 314 314 314 314 316 317 319 318 318 319 320 320 319 320 320 320 321 320 319 317 318 320 318 317 317 316 319 316 315 315
321 319 309 307 308 317 317 317 316 317 321 319 316 314 314 314 316 315 315 317 319 319 319 319 319 319 319 319 317 318 320 320 320 319 320 319 319 317 316 317 316 315 317 316 315
320 321 315 315 316 318 320 317 316 320 322 318 314 314 314 314 316 316 316 315 317 318 317 317 318 318 318 319 319 319 319 320 320 318 320 318 319 318 316 318 317 316 315 317 315
313 319 320 312 319 320 317 315 317 319 320 319 317 315 315 315 315 318 317 316 315 319 317 319 319 317 318 319 318 319 317 319 323 324 321 317 318 318 316 316 316 317 314 315 315
302 311 319 318 314 319 320 313 319 321 321 320 320 316 316 316 315 315 318 317 315 315 317 317 317 318 316 318 317 317 316 318 321 325 321 322 321 320 317 318 316 315 315 313 314
303 314 320 321 315 316 314 314 318 320 322 323 321 318 317 317 316 315 315 317 317 315 317 318 319 318 317 317 318 318 319 317 318 317 318 318 317 316 317 317 315 315 314 314 314
315 317 320 319 317 318 315 319 317 320 321 321 322 320 320 319 318 318 316 317 317 318 316 317 319 318 318 317 317 317 317 319 318 322 320 317 317 317 316 317 314 313 314 314 313
315 313 320 320 316 309 314 317 320 320 320 321 320 319 319 319 318 318 319 319 320 320 318 318 317 319 318 318 318 318 320 319 317 316 316 317 314 313 316 315 313 314 311 313 313
310 312 319 318 316 313 315 317 316 316 317 319 319 320 320 320 320 320 320 320 321 321 322 319 318 320 320 317 317 317 318 319 321 319 317 319 319 315 312 313 312 311 311 310 313
307 306 317 318 315 312 312 316 316 318 318 321 323 323 322 324 325 322 323 323 321 323 325 325 324 322 321 319 318 318 318 317 319 315 319 320 320 316 317 315 311 311 310 311 312
305 303 304 309 310 313 312 310 310 309 312 312 314 317 319 320 320 324 324 324 322 321 321 321 325 325 323 321 320 319 319 318 318 320 321 320 319 317 314 313 311 310 310 310 312
304 305 307 308 307 305 304 305 304 305 307 307 309 310 309 313 317 319 319 318 318 318 315 316 325 324 320 318 321 322 321 320 319 319 319 320 319 318 317 314 310 310 310 309 310
304 305 303 304 304 304 304 304 306 307 306 306 307 307 307 307 307 309 312 315 317 314 313 313 315 313 312 315 317 319 320 321 319 320 319 319 319 316 316 314 314 310 310 310 311
306 308 306 305 304 304 304 306 307 306 306 306 306 306 306 306 305 307 307 309 312 313 313 313 313 313 313 313 314 315 319 323 324 320 319 320 320 317 318 318 318 315 309 310 310

GFSSW_925_thetae_006.txt.gz
Theta_e
316 316 317 317 315 315 317 319 320 319 315 312 313 312 311 312 314 316 318 321 317 316 320 325 326 325 326 328 330 327 329 329 330 329 330 321 320 319 319 320 321 319 316 318 321
318 317 316 316 317 318 318 318 316 312 311 312 311 310 310 311 312 314 318 317 315 316 324 323 322 324 324 326 327 325 321 324 328 326 323 320 319 318 321 321 320 318 317 319 320
320 316 314 314 315 315 313 312 311 311 311 310 309 310 311 311 316 318 318 315 315 317 323 322 323 323 325 325 325 326 327 329 326 325 322 321 319 318 320 321 319 318 317 317 317
319 311 310 310 310 310 310 310 310 310 310 309 310 311 311 312 317 317 312 313 315 319 321 322 321 323 324 324 323 326 326 325 324 321 323 320 320 318 319 319 319 316 316 316 314
310 309 308 308 308 308 308 309 309 310 310 309 311 312 313 316 313 314 310 313 315 318 318 321 320 321 323 323 322 322 322 323 322 320 320 319 318 317 317 320 317 315 315 313 313
309 309 308 308 308 308 308 309 309 310 310 310 311 312 316 315 313 313 312 314 316 317 318 320 321 319 319 319 320 320 321 322 321 321 319 320 319 318 318 316 315 315 314 312 312
309 309 309 308 308 308 308 309 309 310 310 310 311 313 317 314 312 312 312 314 315 317 319 320 320 320 318 319 318 320 321 320 319 319 318 318 319 319 317 316 315 314 312 312 311
309 309 309 309 309 309 308 309 309 310 310 309 311 313 313 313 311 311 312 313 315 317 318 320 320 320 320 318 318 319 318 318 317 317 318 317 317 316 316 317 315 313 311 311 311
308 309 309 309 309 308 308 309 309 309 309 309 312 316 315 311 309 311 312 313 314 317 318 319 319 319 319 316 315 315 314 316 317 317 319 315 315 315 315 319 319 315 313 312 311
308 307 307 308 308 308 309 310 310 309 311 315 316 314 313 311 312 312 313 314 316 317 318 317 315 317 315 314 314 315 315 315 316 318 318 318 317 315 317 319 319 317 314 313 313
308 308 308 308 308 308 310 317 315 317 314 314 316 312 313 312 313 312 313 314 315 317 317 317 315 317 316 315 314 314 316 317 317 317 318 318 318 318 316 317 318 315 314 313 313
313 309 308 308 308 308 310 317 316 315 315 314 314 315 315 312 311 310 313 314 315 316 316 317 317 315 316 316 317 316 316 315 316 318 317 317 318 318 316 317 317 317 315 313 313
320 314 309 309 309 312 312 316 316 316 312 313 315 315 315 312 312 311 311 312 315 316 317 316 318 318 318 319 319 318 317 316 317 318 317 318 319 317 316 316 318 317 316 315 314
320 320 311 308 315 313 316 317 317 316 315 317 316 315 314 313 313 313 313 313 314 316 315 317 318 319 319 319 318 319 318 318 319 318 318 317 320 315 315 315 314 317 317 316 315
315 319 320 309 308 316 318 318 316 316 316 317 315 314 313 313 314 315 313 315 316 317 317 317 319 318 320 319 316 318 318 319 319 317 317 317 317 317 315 315 315 313 314 316 316
301 310 318 314 315 316 321 317 315 317 317 317 313 314 313 313 313 315 315 315 316 317 315 315 316 317 317 318 316 317 319 318 317 316 318 317 317 319 315 316 316 315 312 312 315
299 302 312 319 316 318 320 313 314 316 317 318 317 314 313 314 314 315 315 315 313 316 313 313 314 316 317 317 318 318 316 317 319 320 320 316 317 319 312 312 312 314 314 310 313
303 304 318 321 313 315 318 311 317 317 320 320 321 318 314 314 314 315 317 316 314 314 315 316 315 316 315 318 317 317 316 318 320 320 318 316 318 317 313 315 316 314 312 311 312
313 312 317 319 316 314 309 313 316 316 320 321 321 320 316 316 316 315 315 315 315 313 314 315 317 315 316 317 317 317 318 316 315 314 315 316 316 314 314 313 312 311 311 312 312
315 318 320 317 315 317 312 317 315 318 317 319 322 320 320 318 318 316 317 315 316 315 313 314 317 316 316 315 316 316 315 318 315 320 319 316 314 316 314 316 314 312 312 312 312
313 312 318 319 315 308 314 315 318 315 316 317 318 319 319 319 318 318 317 318 322 322 320 315 315 319 317 316 316 317 318 317 315 316 319 319 318 312 315 314 312 311 312 313 312
307 312 317 318 314 309 314 315 315 316 313 318 318 322 321 318 321 320 320 319 322 321 324 323 326 323 320 317 316 316 318 318 320 320 314 318 319 314 311 311 311 313 310 310 311
305 304 310 316 309 310 310 311 311 309 308 311 316 316 313 318 319 322 322 320 321 320 320 322 326 329 326 321 316 317 317 317 316 318 320 321 321 315 315 315 311 310 309 309 311
302 305 304 302 303 306 305 306 306 305 305 305 306 308 307 307 309 312 314 314 309 315 318 317 321 326 328 325 316 318 314 318 317 321 320 320 319 318 315 312 311 310 308 308 310
301 305 304 304 302 303 304 304 305 305 305 304 306 306 306 307 306 308 306 306 308 310 315 316 317 316 315 314 314 313 313 312 316 315 317 319 321 319 318 317 316 313 308 307 308
302 303 301 302 303 303 303 304 305 307 306 305 306 306 305 305 306 307 308 308 308 309 312 311 311 312 314 312 311 310 310 313 314 312 315 320 321 319 317 314 314 314 309 308 308
305 305 302 303 302 303 303 305 306 305 305 305 305 306 306 306 305 305 306 306 306 307 308 308 310 309 310 309 309 311 310 312 312 312 315 319 321 315 312 314 316 313 312 311 310

GFSSW_925_thetae_009.txt.gz
Theta_e
316 316 317 317 315 315 316 318 319 319 316 312 312 312 310 311 312 314 316 320 319 315 319 324 325 324 325 326 328 324 329 328 328 327 328 322 319 318 318 318 320 319 316 318 321
318 317 317 316 317 318 318 318 316 313 311 312 310 309 310 311 312 314 317 319 315 315 323 323 321 322 323 325 325 321 322 325 326 326 327 322 318 318 321 320 320 318 316 317 319
319 318 315 315 315 315 314 312 312 311 311 310 309 310 310 311 316 315 317 317 314 316 321 321 322 322 324 324 324 325 322 320 327 324 322 321 319 318 319 321 318 318 317 315 317
315 311 310 309 309 309 309 309 309 309 309 309 310 311 311 312 312 316 315 312 314 317 320 321 320 322 323 324 322 325 324 326 325 322 321 319 318 317 318 319 318 316 315 316 314
309 308 308 308 308 308 308 308 309 309 309 309 310 311 313 315 313 314 310 312 315 317 318 319 319 320 322 322 322 322 321 323 322 321 320 319 319 317 316 316 317 315 315 316 315
309 308 308 308 308 308 308 308 309 309 309 309 310 312 316 313 313 313 311 313 315 316 317 319 320 318 319 318 320 320 320 321 320 320 319 319 318 317 316 315 317 315 314 315 314
309 309 309 309 308 308 308 309 309 310 310 309 310 311 315 314 312 312 312 313 314 316 317 320 320 319 317 317 317 319 321 319 319 319 319 316 318 317 316 316 316 314 314 314 313
309 309 309 309 308 308 308 308 309 310 310 309 310 312 311 314 311 312 312 312 313 314 317 319 319 319 320 316 314 319 317 318 316 317 317 316 316 315 314 315 315 313 311 312 312
307 308 308 308 308 308 308 308 309 309 309 309 311 316 315 311 310 311 311 312 313 315 317 318 318 318 317 315 314 313 314 315 315 315 317 316 315 313 312 316 316 314 313 312 312
307 307 307 307 307 308 308 310 311 310 311 315 316 311 311 311 311 311 311 312 314 315 316 316 314 316 313 314 316 314 314 313 313 315 317 316 315 314 315 317 317 316 314 313 313
313 308 308 308 308 308 313 317 313 314 313 309 312 308 311 312 312 312 312 313 314 315 316 315 314 315 315 314 312 312 313 313 313 314 317 317 317 317 315 316 317 316 315 314 313
319 315 309 309 308 309 313 316 314 314 314 313 312 314 315 313 310 310 313 312 314 315 315 316 315 313 314 315 316 316 315 314 313 314 316 316 317 317 316 314 316 316 316 315 315
317 319 314 308 309 313 313 316 316 315 311 311 314 313 313 313 311 310 311 312 314 314 315 315 315 316 316 315 317 316 316 314 314 315 315 317 318 316 315 315 315 315 316 316 315
307 317 319 309 314 312 315 316 316 315 312 315 315 314 313 312 313 312 311 312 313 314 313 315 315 316 316 317 316 316 316 317 317 317 319 316 319 315 315 315 314 315 315 315 314
299 307 317 312 308 315 318 319 316 314 314 316 314 313 312 313 312 315 311 315 314 315 315 315 317 317 318 316 316 318 317 317 318 317 316 316 316 317 313 313 313 312 312 314 314
300 300 310 318 311 318 320 319 314 313 316 317 313 313 313 313 312 315 314 313 313 315 313 313 314 316 316 317 316 316 317 317 316 314 318 317 316 318 316 315 314 313 312 310 311
303 301 308 319 315 312 318 312 313 315 315 317 317 315 312 313 313 314 314 314 311 313 312 311 313 314 314 314 316 316 315 318 318 319 321 314 316 318 313 313 311 313 313 311 307
308 311 320 318 318 313 315 311 317 316 318 319 319 319 314 313 313 314 315 314 313 311 312 314 316 313 313 314 315 316 316 319 320 318 318 314 317 317 313 313 313 311 311 311 310
312 317 318 317 313 316 308 313 315 318 316 317 317 318 316 316 317 316 314 314 314 312 314 314 314 313 314 315 315 315 316 316 316 317 314 316 314 313 312 312 312 311 310 311 312
318 318 317 318 314 314 309 315 316 315 315 316 320 318 317 317 318 316 317 316 322 321 320 315 317 316 315 315 315 315 314 317 313 319 321 318 313 315 313 313 312 311 311 310 310
313 313 315 317 316 309 313 314 316 315 310 315 316 318 319 316 317 318 318 319 322 321 320 321 318 322 317 318 319 318 316 315 315 316 320 320 319 314 314 315 314 311 308 309 309
306 312 310 315 312 307 313 312 313 311 305 308 311 318 317 312 316 319 320 319 311 316 320 320 324 325 323 320 319 318 316 316 320 322 317 318 320 315 312 310 310 309 309 309 307
303 303 307 312 309 308 304 304 307 304 304 307 308 308 306 311 308 315 307 311 308 307 314 317 320 319 317 317 314 315 313 314 313 316 321 322 321 314 313 312 315 314 311 310 308
300 300 299 299 299 302 304 303 305 303 304 304 304 306 305 306 306 306 305 307 306 307 310 312 316 316 317 318 315 315 314 313 313 315 313 314 314 311 311 311 313 313 313 311 307
299 303 302 300 300 302 303 303 303 304 304 303 304 305 305 305 305 304 305 305 307 307 310 311 310 309 309 308 309 309 313 313 312 312 313 310 308 308 309 313 312 311 311 310 311
301 302 300 300 300 301 302 301 304 306 306 305 304 305 304 304 305 306 305 305 306 305 306 307 309 308 307 306 307 308 308 308 311 309 309 311 312 310 310 313 311 310 311 312 311
304 303 299 300 300 301 301 303 305 302 302 303 304 304 305 304 304 303 303 303 304 305 305 305 305 305 307 306 306 308 306 305 306 307 308 313 314 313 313 311 309 307 309 311 310

GFSSW_925_thetae_012.txt.gz
Theta_e
315 316 317 316 315 314 315 317 318 318 315 312 312 310 310 310 311 312 315 318 319 315 319 322 324 323 324 324 326 322 327 329 328 326 327 322 321 318 317 317 318 317 316 318 321
318 317 317 316 317 317 317 317 315 312 312 311 309 309 310 311 312 313 315 318 317 314 322 322 320 321 321 324 322 321 322 324 323 324 325 323 319 317 319 320 320 318 316 316 322
316 315 315 315 315 314 313 312 311 311 310 309 309 310 311 311 314 313 316 316 315 315 321 321 321 321 322 323 323 321 320 318 324 324 323 322 318 317 318 320 318 319 316 314 319
310 309 309 308 309 309 309 309 309 309 309 309 310 311 311 312 311 315 316 314 313 316 319 320 319 322 322 322 321 323 323 325 325 322 320 320 318 317 317 319 318 316 315 314 316
309 308 308 308 308 308 308 309 309 309 309 309 310 311 312 313 312 314 311 311 314 316 317 318 319 319 321 321 321 322 321 322 322 321 319 318 318 317 315 315 316 315 314 314 316
309 308 308 308 308 308 308 309 309 309 310 309 310 311 315 311 312 313 311 312 314 316 317 318 319 318 319 317 319 318 319 319 320 320 318 318 318 317 317 314 315 315 314 313 315
309 308 308 308 308 308 308 308 309 309 310 309 309 311 314 310 313 312 311 313 314 315 316 319 319 318 317 317 314 317 319 316 317 319 319 316 317 317 316 315 314 314 312 312 314
308 308 308 308 308 308 308 308 308 309 309 309 309 313 310 313 312 311 312 312 312 314 316 318 319 318 319 316 313 316 316 318 315 317 318 316 318 314 313 314 314 312 311 311 312
307 307 307 307 307 307 308 308 308 308 309 309 311 315 312 314 310 310 311 311 313 315 316 317 317 316 316 315 315 311 314 314 314 314 317 315 316 313 312 312 313 312 312 312 313
310 307 307 307 307 308 308 312 310 309 311 314 315 307 310 311 310 310 310 311 314 315 315 314 312 314 311 314 315 314 314 312 312 313 316 315 314 314 311 314 313 313 312 311 311
317 314 310 308 308 308 312 317 310 311 312 307 310 306 310 311 311 311 311 312 314 313 314 313 313 311 312 313 314 312 312 312 310 312 316 315 315 315 315 314 314 313 313 312 312
314 317 315 310 308 310 314 314 312 313 313 312 311 312 314 313 312 309 312 311 313 313 314 313 313 311 312 313 315 315 315 314 312 312 314 313 314 314 314 313 314 314 314 314 314
306 316 317 309 310 313 314 315 315 315 310 310 313 313 312 313 313 310 311 311 313 313 313 312 310 315 314 314 315 314 314 314 314 312 312 314 316 314 313 314 312 313 314 314 314
301 311 319 310 313 312 315 318 316 315 310 314 314 313 312 311 313 311 311 311 312 312 311 313 313 314 314 315 313 314 312 314 315 315 317 315 318 315 313 313 312 312 313 313 313
300 303 316 313 309 315 318 320 317 312 314 315 313 312 311 312 311 314 310 313 311 313 314 313 315 316 317 316 314 315 315 316 316 316 315 315 316 317 313 314 312 311 310 312 312
301 301 309 319 316 314 314 318 313 312 315 315 313 312 312 312 312 313 313 312 312 313 312 313 312 314 314 315 314 315 316 316 314 313 318 316 316 317 314 312 313 312 310 310 309
304 305 316 317 315 313 316 310 312 313 314 319 318 317 313 312 312 312 314 312 311 312 311 310 311 313 312 313 313 315 314 317 317 318 320 314 315 317 312 312 312 311 311 311 308
317 319 317 314 315 316 313 310 316 316 317 316 317 317 315 315 314 313 313 313 311 311 310 312 315 312 313 313 312 314 313 315 320 317 315 313 316 316 312 310 310 309 309 308 308
317 318 314 316 313 315 308 312 314 316 315 316 315 316 316 315 316 316 314 313 316 318 317 316 313 315 318 316 314 314 315 314 315 315 317 316 314 314 313 311 310 310 309 309 310
318 317 311 315 315 312 309 314 315 313 312 315 317 316 317 317 317 313 316 319 322 318 318 320 324 319 317 317 315 314 313 316 314 319 321 318 315 317 314 314 312 311 311 311 310
314 311 310 313 315 308 311 313 315 311 305 310 316 317 318 311 312 313 314 316 316 315 317 319 320 319 319 320 320 319 319 315 314 318 324 326 322 313 309 310 310 310 310 313 312
306 308 306 313 309 305 310 309 308 306 303 305 308 311 311 310 309 313 317 315 308 307 313 316 318 316 313 311 315 316 318 319 320 321 315 316 317 311 309 308 307 307 310 312 312
301 301 304 309 308 301 299 300 305 303 303 304 304 306 304 306 304 307 307 306 305 305 307 310 311 309 306 306 310 312 312 312 311 312 314 316 316 310 309 306 306 306 311 311 311
299 296 297 297 297 299 302 300 302 302 304 303 304 304 304 305 304 304 305 305 304 305 308 308 310 310 310 309 309 308 307 306 305 307 306 309 311 308 307 307 306 308 310 309 309
298 302 300 298 298 301 302 301 302 303 304 301 302 304 304 304 304 304 303 303 304 305 307 304 306 305 305 305 306 306 306 305 305 305 307 307 307 306 308 308 308 310 309 308 307
300 298 297 298 299 300 300 299 303 305 304 303 302 304 303 304 304 303 303 305 306 304 303 303 307 305 306 304 304 304 304 305 305 305 305 305 306 307 311 310 311 308 309 308 307
302 302 296 298 299 298 298 301 304 302 300 302 302 302 303 303 301 302 304 303 303 304 304 303 303 302 304 303 304 305 304 305 306 306 306 308 309 305 305 305 307 309 308 308 307

GFSSW_925_thetae_015.txt.gz
Theta_e
315 316 317 316 314 313 313 317 318 316 312 312 311 309 310 310 311 312 312 316 319 315 319 321 322 323 323 326 327 324 334 332 333 331 333 324 326 319 319 322 320 322 321 319 320
317 317 316 315 315 316 317 316 313 312 311 310 309 310 310 311 312 313 313 318 318 314 321 321 321 321 323 325 325 328 330 329 327 327 329 326 323 322 321 321 322 321 318 316 322
316 315 315 315 314 313 312 311 311 310 309 309 310 310 311 311 312 312 316 315 316 314 320 320 320 321 322 324 323 321 326 321 322 326 325 325 321 320 322 323 323 324 323 318 322
313 311 309 308 308 308 308 309 309 309 309 309 310 311 311 312 311 314 316 314 313 315 319 319 319 322 322 322 321 323 322 324 326 323 322 323 320 320 321 327 321 321 319 317 322
312 310 309 308 308 308 308 309 309 309 309 309 310 311 311 310 311 313 311 311 314 316 317 318 319 320 321 320 321 323 322 322 323 323 321 319 321 321 319 319 317 317 317 318 321
309 309 308 308 308 308 308 308 309 309 309 309 309 311 314 309 311 312 311 312 314 316 316 318 318 318 319 318 319 317 319 319 320 321 320 320 321 319 319 317 316 317 319 318 319
309 308 308 308 308 308 308 308 308 309 309 309 309 311 311 309 313 311 311 312 313 315 316 318 318 319 317 319 315 316 319 318 318 319 321 319 322 320 320 317 318 317 318 318 318
308 308 308 308 307 307 307 308 308 309 309 309 309 312 309 312 313 311 311 311 312 314 315 317 318 318 319 317 317 316 316 321 317 318 319 320 322 320 316 317 319 318 317 317 317
308 307 307 307 307 307 307 308 308 308 308 309 311 313 309 313 310 310 311 310 312 315 316 316 316 316 317 319 319 316 318 316 316 315 318 318 322 319 313 313 316 316 315 315 316
314 311 308 307 307 307 308 312 310 309 311 312 314 307 309 310 310 310 310 311 313 314 314 315 314 316 315 318 315 314 316 314 315 314 316 318 318 318 317 315 317 316 316 315 315
315 315 311 309 308 308 313 316 309 310 311 307 309 306 309 310 310 310 310 312 313 314 313 314 315 314 314 316 314 312 313 314 315 313 314 316 316 316 316 315 316 317 316 316 316
313 316 316 310 309 310 314 312 312 313 313 311 311 311 312 313 313 310 312 310 312 312 314 314 315 312 311 312 315 315 316 316 316 315 314 315 316 315 315 315 316 316 317 317 317
306 315 316 309 312 315 315 315 315 313 310 311 312 312 312 312 312 312 310 310 311 312 314 311 310 313 313 314 314 314 314 314 314 314 314 314 317 317 315 315 315 315 316 316 317
301 308 316 311 311 313 317 319 315 313 311 315 314 312 311 311 313 310 310 311 311 312 311 313 312 313 314 315 314 315 314 314 314 315 317 316 318 317 316 317 315 315 316 316 317
301 303 317 312 312 315 316 318 316 312 314 314 312 312 310 312 311 313 310 312 311 312 314 313 314 315 317 317 314 318 314 315 316 316 317 318 319 319 317 317 317 317 316 314 315
302 302 316 315 316 312 314 317 312 313 316 316 314 315 313 311 311 311 312 311 310 312 312 313 311 313 314 314 315 314 316 315 315 317 321 319 318 319 318 316 315 315 315 314 313
313 316 317 315 314 314 314 310 311 312 314 318 317 315 314 313 312 312 313 312 311 313 312 310 311 312 312 314 312 314 315 318 318 321 321 316 318 318 316 316 315 314 313 311 313
315 315 314 314 313 315 312 309 311 316 315 315 315 314 315 315 314 315 314 314 318 313 312 314 317 312 314 317 318 315 316 318 319 319 319 315 319 318 314 312 311 312 311 312 313
317 315 309 313 315 313 308 311 315 315 313 315 313 315 315 316 315 312 314 317 319 319 324 325 319 316 317 316 314 315 317 314 317 320 320 319 318 317 317 313 310 309 308 309 310
317 315 307 310 315 310 310 313 314 309 306 312 316 315 317 315 314 311 310 319 320 313 317 320 317 318 318 315 313 317 314 317 318 321 321 320 320 320 319 312 311 309 308 307 309
314 308 305 311 312 308 312 313 314 308 303 309 315 313 315 310 309 309 309 308 308 306 311 315 318 313 311 311 314 311 310 309 314 316 321 321 321 312 312 311 307 305 307 307 310
306 304 303 311 308 303 308 308 306 303 302 305 308 307 308 306 305 310 313 308 305 305 307 310 315 310 307 306 307 308 312 307 308 308 309 308 307 307 310 305 304 307 307 307 308
300 299 302 302 298 295 298 300 303 302 304 303 304 305 304 305 302 303 306 306 303 304 304 306 307 306 301 302 304 304 305 304 305 306 305 305 303 303 304 304 306 307 308 308 310
296 295 295 297 296 298 299 300 300 302 303 302 303 303 303 303 303 302 304 304 303 304 306 307 309 308 305 305 307 306 305 305 306 306 306 306 306 305 305 306 307 308 309 308 309
296 301 299 295 299 300 299 300 301 304 302 300 302 303 304 305 304 304 303 301 303 304 304 305 306 305 305 304 305 305 305 305 305 305 306 306 306 306 306 306 305 305 306 307 308
297 297 294 297 298 297 297 299 303 303 302 301 302 302 302 303 303 302 302 303 304 303 304 303 305 305 305 303 303 303 304 304 304 304 305 306 307 307 305 305 305 305 306 307 308
300 300 293 297 297 295 298 302 302 301 299 301 301 302 302 302 301 301 301 302 302 302 302 303 303 304 304 303 303 305 304 301 301 301 303 306 306 306 306 305 305 305 306 307 308

GFSSW_925_thetae_018.txt.gz
Theta_e
315 316 314 312 311 312 312 315 317 314 312 311 310 309 310 310 311 313 314 318 321 315 320 321 323 325 326 331 333 333 330 332 332 333 332 333 335 329 331 337 330 330 331 327 327
317 317 314 313 313 315 316 315 312 311 310 309 309 310 310 310 316 315 314 318 317 314 322 322 323 324 323 327 329 329 328 326 329 330 331 331 331 331 328 332 331 330 328 323 329
318 317 316 316 315 313 312 311 310 309 309 309 310 310 311 311 316 317 315 315 315 314 320 322 323 324 322 325 325 326 322 324 323 326 329 330 329 328 329 331 331 331 331 326 328
317 314 311 310 309 309 309 309 309 309 309 309 310 311 312 314 315 314 313 312 312 315 319 321 323 322 322 321 324 324 323 324 324 325 327 326 326 327 328 330 328 327 328 327 327
313 310 309 308 308 308 308 309 309 309 309 309 309 311 313 314 316 313 311 311 314 317 319 321 321 323 321 321 323 324 322 323 323 324 325 325 325 325 325 325 326 325 323 325 326
309 308 308 308 308 308 308 308 309 309 309 309 309 310 315 314 311 312 311 312 315 317 319 321 322 322 322 321 321 322 321 321 321 322 323 324 323 323 322 324 324 325 325 325 325
308 308 308 308 308 308 308 308 309 309 310 309 309 311 313 312 313 311 311 313 314 316 319 320 321 322 321 321 320 321 320 320 321 321 322 323 323 323 323 322 322 321 322 323 325
307 307 307 307 307 307 307 308 308 308 309 309 309 313 313 313 312 311 312 312 312 314 316 318 320 321 321 321 321 320 319 320 321 322 322 322 320 321 321 321 321 321 321 322 322
310 308 307 307 307 307 307 307 308 308 308 309 312 314 314 312 311 310 311 312 313 316 317 317 319 320 320 320 318 321 316 318 318 318 320 322 320 319 319 319 319 318 318 319 320
313 311 309 308 307 307 308 311 309 309 310 311 313 312 313 313 311 310 310 312 315 317 317 318 318 319 319 319 315 315 315 315 317 317 317 317 318 318 318 318 319 319 319 319 319
314 314 313 311 308 308 314 316 317 317 315 311 312 311 312 313 310 311 311 314 316 316 315 318 317 317 315 316 316 315 315 316 317 317 317 318 318 318 318 318 319 319 319 319 318
315 315 314 309 310 312 315 316 316 315 316 313 314 314 313 314 315 312 312 313 314 315 316 318 317 317 314 314 316 317 317 317 316 316 317 318 319 319 319 320 319 319 319 319 320
305 314 313 309 315 315 316 316 315 313 316 315 314 316 315 314 315 315 313 313 314 315 316 316 316 315 314 315 316 317 318 318 318 318 318 320 322 322 321 319 319 319 320 320 320
302 310 312 311 313 315 319 318 315 313 320 318 316 315 314 315 315 312 312 314 315 316 316 317 316 315 317 317 317 319 318 317 319 320 322 320 323 322 321 320 319 320 320 320 319
301 307 312 313 313 318 314 317 315 315 322 316 316 313 314 315 314 316 311 314 315 315 316 318 316 316 317 318 317 318 318 318 319 320 321 322 323 320 321 321 319 320 318 318 318
302 306 315 315 314 312 315 316 314 320 322 320 319 317 318 315 315 315 315 313 313 315 315 316 315 315 317 315 316 316 318 320 320 320 322 320 322 321 320 319 319 318 316 314 313
315 316 316 315 317 315 314 314 319 320 319 320 319 317 318 318 318 318 317 322 323 320 319 317 317 314 316 319 318 320 321 320 321 324 322 320 320 320 319 318 316 315 313 311 310
313 313 312 312 314 313 313 318 317 319 319 317 316 316 319 317 317 317 318 319 321 322 322 323 318 316 318 318 319 320 319 320 319 317 318 317 319 319 318 318 316 315 313 309 308
317 312 308 308 315 313 317 317 321 319 314 316 315 316 319 318 313 312 319 323 315 314 323 322 321 317 313 316 317 318 319 318 322 319 319 318 318 317 317 317 311 311 310 307 308
318 315 306 308 313 313 317 318 317 309 306 312 315 316 315 315 311 310 310 314 315 308 310 316 311 310 316 312 315 310 310 309 310 308 311 312 312 313 313 308 307 306 306 307 308
316 314 304 311 312 316 318 318 316 306 306 310 313 311 314 312 309 305 310 309 307 307 308 308 310 311 307 306 305 305 307 309 311 311 311 313 312 310 305 303 303 305 307 308 309
310 308 302 308 312 311 314 311 306 304 305 307 309 310 310 306 303 305 310 310 305 305 306 305 304 303 305 304 304 306 310 305 307 307 306 307 307 303 303 303 305 306 308 308 308
306 305 302 303 304 302 302 305 304 305 306 306 307 306 306 305 301 303 307 306 305 305 304 305 305 304 304 308 307 304 304 303 303 308 307 308 306 305 304 304 306 307 307 307 307
304 304 303 304 303 302 301 301 303 305 304 305 305 305 304 303 304 304 303 303 304 303 304 305 306 305 306 305 305 306 304 303 304 308 306 305 304 303 304 305 307 307 307 306 306
305 305 302 302 302 303 302 302 303 304 304 302 305 305 304 302 302 302 304 303 302 303 304 305 305 305 304 304 304 304 304 304 304 304 306 305 303 303 304 306 306 307 306 305 306
304 304 302 303 302 301 300 303 304 304 302 302 303 303 302 302 302 301 302 303 304 303 303 303 304 304 304 303 303 303 303 303 304 304 303 302 303 304 304 307 306 305 305 305 306
302 302 301 300 301 300 302 303 303 302 301 303 302 302 302 302 303 303 303 303 303 304 304 304 304 304 305 303 303 304 303 302 302 302 302 304 304 305 307 306 305 305 305 305 305

GFSSW_925_thetae_021.txt.gz
Theta_e
315 315 315 313 313 312 311 313 317 314 312 310 309 310 310 311 313 318 317 320 323 314 323 323 323 323 325 329 332 333 329 328 329 330 331 330 332 331 333 335 335 336 335 332 331
317 316 316 315 313 312 315 316 313 312 310 309 310 310 311 311 320 317 317 317 317 314 322 322 323 323 324 325 327 327 326 324 326 329 329 328 329 329 329 330 328 332 332 330 330
318 318 317 317 316 316 314 312 311 309 309 309 310 310 311 312 319 319 315 315 314 318 320 322 322 323 323 325 324 324 324 322 325 323 325 325 325 325 327 329 326 326 328 331 330
314 313 312 312 311 310 310 309 309 309 309 309 309 310 312 321 319 317 312 311 313 317 319 321 322 323 323 323 325 324 322 323 323 323 324 324 323 324 325 326 325 326 329 329 331
310 310 309 309 309 309 309 309 309 309 309 309 309 310 319 319 318 317 312 313 317 318 319 321 321 322 322 322 322 323 323 323 323 323 324 323 324 324 324 323 323 325 325 327 328
309 309 308 308 308 308 308 309 309 309 309 309 309 312 319 317 313 315 314 313 316 318 320 321 322 322 321 322 322 323 323 322 322 322 322 322 323 324 323 323 323 323 324 324 326
309 308 308 308 308 308 308 308 309 309 310 310 309 315 316 317 314 313 313 314 315 316 320 320 321 321 323 322 323 322 322 321 322 321 322 323 323 323 324 324 323 323 322 323 323
308 307 307 307 307 307 307 308 308 309 309 310 310 317 315 314 314 313 314 314 314 315 316 319 320 321 321 322 320 321 321 321 323 323 322 322 321 321 322 322 321 321 321 321 321
310 309 308 307 307 307 307 307 308 308 309 309 316 316 318 313 314 312 314 314 314 316 318 317 319 321 322 322 321 321 322 321 320 321 320 321 322 321 321 320 320 320 320 320 320
312 311 310 309 308 307 309 311 308 313 312 315 314 316 313 315 313 312 312 313 316 317 319 319 319 321 321 321 321 319 318 317 318 318 320 319 319 320 320 320 320 320 320 321 321
312 313 312 310 308 308 314 317 321 320 318 316 315 314 315 315 313 313 313 315 316 318 319 320 318 319 319 318 317 317 317 317 318 319 319 319 320 321 322 322 322 322 322 321 321
313 315 313 310 309 314 318 318 318 319 318 316 316 317 315 316 317 315 314 316 316 319 318 320 323 319 316 317 317 318 320 321 322 321 321 322 322 323 323 324 323 322 321 321 322
306 313 311 313 313 317 318 318 317 316 321 318 317 318 316 317 317 316 315 316 317 318 319 321 322 318 316 318 320 321 321 322 321 320 321 323 323 323 323 324 322 322 321 321 320
303 311 310 313 316 319 320 319 319 316 324 320 318 317 317 317 318 315 314 316 318 319 319 321 319 317 319 320 320 322 320 321 320 322 322 321 323 322 322 322 321 321 319 316 315
302 312 311 313 317 320 317 318 318 319 328 318 319 316 317 318 317 318 314 316 318 319 318 320 319 319 319 319 318 319 319 319 321 322 323 323 323 323 322 322 321 318 315 313 311
302 314 314 315 317 317 318 318 318 325 326 323 321 320 321 320 319 319 318 317 317 318 318 319 318 318 318 318 318 318 321 322 322 324 325 323 323 322 322 321 319 317 316 315 311
315 317 317 316 320 315 318 318 324 323 320 323 322 319 319 320 319 320 321 323 323 323 321 320 319 317 320 321 321 321 319 319 321 328 328 321 320 321 321 319 316 313 312 310 309
312 314 312 311 315 315 317 321 322 321 322 319 318 317 320 318 319 315 317 320 317 318 322 324 322 318 316 317 320 320 318 319 319 319 319 319 319 318 320 317 313 310 308 307 308
317 315 311 308 314 315 320 321 326 321 315 316 317 318 321 319 312 312 319 322 315 313 319 319 319 316 313 316 315 317 316 316 320 318 318 317 316 317 316 312 308 306 306 306 307
319 313 308 307 313 317 320 321 318 310 309 312 317 316 317 315 312 310 310 313 314 310 311 314 308 310 314 310 313 314 309 309 312 311 311 311 311 312 311 307 306 305 305 306 308
319 317 306 311 314 318 321 321 314 306 309 312 312 310 314 311 307 306 309 312 309 309 309 308 307 310 312 308 308 308 307 309 310 312 312 312 311 310 307 305 305 305 305 305 308
314 312 305 307 314 315 318 311 306 306 306 310 310 310 310 307 305 307 310 311 307 308 306 306 305 304 306 307 305 305 307 309 309 309 309 310 310 306 306 305 305 304 305 307 307
309 307 305 307 310 307 307 306 306 306 306 306 308 306 305 306 304 305 306 309 307 305 305 305 306 307 309 310 308 309 309 306 307 310 310 308 307 306 306 305 304 304 305 306 306
308 311 307 307 307 307 306 305 306 306 305 306 306 306 305 305 305 305 305 305 306 304 304 305 305 305 307 308 307 307 307 306 305 309 307 306 305 305 304 304 304 305 305 306 306
310 307 306 308 305 305 305 304 305 306 305 304 305 305 304 303 304 304 305 304 304 305 305 305 306 307 306 306 305 305 305 304 305 305 305 305 304 304 303 304 305 305 306 306 306
309 308 305 305 304 305 303 305 305 304 303 303 303 305 304 304 304 304 303 304 304 305 304 305 306 306 306 304 304 304 304 304 304 304 304 303 303 303 304 304 305 305 305 305 305
304 303 308 302 304 304 305 305 304 303 303 304 303 303 304 304 304 304 304 304 304 305 305 305 306 306 306 304 304 305 305 304 303 303 303 304 304 303 304 306 305 305 305 305 305

GFSSW_925_thetae_024.txt.gz
Theta_e
315 315 314 313 313 313 313 311 316 314 312 310 310 310 310 310 313 315 321 319 322 315 322 326 325 324 324 331 332 332 335 332 330 331 334 330 328 328 330 332 331 329 334 332 334
317 316 316 316 315 313 312 316 313 312 310 310 310 310 310 311 317 321 318 316 316 316 323 322 324 323 327 327 331 331 335 330 328 327 328 327 326 327 325 327 326 325 328 331 334
318 318 317 316 316 316 315 313 312 310 309 309 309 310 311 312 326 323 314 315 312 317 320 321 322 325 326 327 328 327 330 328 325 326 324 326 324 324 323 325 327 326 323 328 331
315 314 314 314 313 312 311 310 309 309 309 309 309 310 311 319 321 320 311 311 315 318 320 320 323 325 326 326 325 326 325 324 325 325 325 325 324 323 322 323 324 322 323 325 328
310 310 310 309 309 309 309 309 309 309 309 309 309 310 317 323 318 318 314 314 317 318 320 322 322 324 326 324 323 323 324 324 325 324 324 324 324 324 323 323 322 322 322 323 325
310 309 309 308 308 308 309 309 309 309 309 309 309 312 323 319 314 316 314 314 316 318 320 321 323 323 321 323 324 323 323 323 321 321 322 322 323 323 322 322 322 322 322 321 321
309 308 308 308 308 308 308 308 309 309 310 310 310 316 318 317 315 314 314 314 315 316 320 320 320 322 323 325 324 324 322 321 322 321 323 322 322 322 321 322 322 322 319 320 320
308 307 307 307 307 307 307 308 308 309 309 310 310 317 316 314 315 313 315 314 315 316 316 319 319 321 321 323 320 320 321 323 324 323 324 322 323 323 321 320 320 319 317 317 317
310 309 308 307 307 307 307 307 308 308 309 310 317 319 318 313 315 313 314 315 315 317 318 317 319 322 323 324 324 323 321 323 322 321 321 322 321 321 320 319 318 317 317 317 317
311 311 309 308 308 307 309 311 308 316 314 316 315 316 314 315 314 313 313 314 317 318 320 320 321 322 323 323 324 320 318 318 318 318 319 320 320 320 319 320 320 319 318 318 318
312 312 312 310 308 308 310 314 321 320 318 317 316 316 316 315 313 314 314 315 317 319 320 322 320 321 320 319 318 316 316 317 319 321 322 323 322 321 321 321 322 322 320 318 318
313 315 313 310 309 312 317 321 319 319 319 318 317 317 316 316 317 316 315 316 317 320 320 321 323 320 318 318 319 320 321 321 322 323 320 320 320 320 322 322 320 319 316 315 314
308 314 310 311 312 316 320 319 319 318 322 318 318 318 317 318 317 317 316 317 318 319 321 322 323 320 318 320 320 321 321 322 322 321 320 321 322 323 321 320 317 314 312 310 309
305 313 310 315 316 320 321 319 320 318 324 321 319 318 318 317 318 316 315 316 319 320 320 321 320 319 320 320 320 320 321 320 321 321 322 320 322 321 321 319 315 312 311 310 308
304 313 310 315 318 321 319 319 320 320 334 320 320 318 317 319 319 319 315 317 319 319 319 319 320 320 319 319 319 319 320 320 321 322 321 323 324 322 321 320 317 315 312 307 307
307 312 312 316 319 318 319 319 319 327 326 324 321 320 321 320 320 320 320 319 321 321 320 319 319 319 318 320 320 319 321 319 318 319 325 323 324 323 322 318 312 308 307 305 306
315 317 318 317 320 317 319 319 327 326 321 323 322 319 320 320 320 319 320 320 318 319 322 321 320 319 318 317 321 320 319 320 323 328 329 320 319 321 316 310 306 305 305 304 304
314 315 312 314 316 316 319 323 326 323 323 320 319 317 321 318 319 314 319 321 315 314 318 322 322 319 315 316 317 315 317 320 321 320 322 318 319 320 311 306 305 305 305 304 304
317 315 312 309 315 316 321 325 326 321 314 315 318 318 322 319 313 313 318 322 315 312 313 316 320 315 313 315 314 316 316 311 316 317 317 317 317 315 308 306 305 305 305 304 304
320 312 308 308 314 318 322 322 316 310 310 312 319 316 317 315 313 310 311 313 313 310 310 311 308 309 313 312 312 313 311 310 310 311 312 311 310 310 306 305 305 304 304 303 304
318 320 307 309 314 320 323 320 311 307 310 312 313 311 314 311 307 307 311 312 310 310 309 308 306 309 308 309 308 308 308 308 308 308 309 312 311 308 305 305 305 304 303 303 304
315 316 306 308 316 316 318 313 307 306 307 309 310 310 310 307 307 307 310 312 308 308 305 306 305 304 306 307 307 306 305 306 312 311 309 308 308 306 305 305 305 304 303 303 305
312 311 307 309 311 310 309 307 308 307 307 308 308 306 305 307 306 306 307 309 308 305 305 305 305 305 309 310 309 309 309 309 307 309 309 309 308 306 305 304 304 304 303 304 305
312 314 310 309 309 309 308 306 307 306 305 306 307 306 306 306 306 306 306 307 307 305 305 305 304 304 307 307 307 307 307 306 306 307 306 306 305 304 304 304 304 303 303 304 304
311 308 308 310 307 306 307 306 307 308 305 305 306 305 304 304 305 305 306 305 305 306 305 306 306 306 306 306 306 305 305 305 304 304 305 304 304 304 304 302 302 302 304 304 304
312 311 308 306 305 306 304 306 306 304 304 304 304 306 304 304 305 304 305 304 305 305 305 305 306 306 307 306 305 305 305 304 304 305 304 304 303 303 303 302 303 304 304 304 304
306 306 309 303 305 306 307 306 306 303 304 305 304 303 305 306 305 304 303 303 304 304 305 305 307 308 307 305 305 306 305 304 304 304 303 303 303 304 305 305 304 304 304 303 303

GFSSW_925_thetae_027.txt.gz
Theta_e
314 313 312 311 312 312 313 312 313 314 312 310 310 310 310 310 311 315 320 319 317 315 320 323 324 324 324 326 329 328 323 325 325 325 326 323 322 322 321 326 327 327 333 330 335
316 315 316 314 314 313 312 314 314 312 310 310 310 310 310 311 316 322 317 315 316 314 320 321 321 321 321 324 326 325 325 324 323 322 322 322 322 321 320 318 321 322 322 331 335
318 318 316 314 313 314 316 313 312 310 309 309 309 309 311 313 325 323 313 313 311 313 319 319 321 322 322 323 323 323 321 323 323 321 323 322 321 322 319 319 318 321 322 326 331
316 316 315 315 315 314 312 311 309 309 309 309 309 309 310 318 320 320 312 312 316 318 319 320 320 322 322 323 322 323 323 322 322 323 322 322 322 321 320 319 318 318 317 323 326
314 311 310 310 309 309 309 309 309 309 309 309 309 309 318 322 315 317 313 315 316 317 319 320 320 320 321 319 319 320 319 322 321 320 319 320 320 320 320 318 317 317 318 317 318
311 310 309 308 308 309 309 309 309 309 309 309 309 310 321 319 314 315 313 314 315 316 319 319 319 319 319 319 321 320 320 320 319 319 318 319 319 320 319 318 318 318 317 316 316
309 308 308 308 308 308 309 309 309 309 309 309 309 316 318 314 315 314 314 314 314 315 317 318 319 319 319 320 320 319 320 318 318 318 319 319 319 319 316 316 317 316 314 314 315
308 307 307 307 308 308 308 308 309 309 309 309 310 316 313 313 315 313 314 314 314 316 316 318 317 319 319 319 319 317 318 317 317 320 321 318 317 319 317 316 315 314 312 313 312
309 308 307 307 307 307 307 308 308 309 309 309 317 318 315 314 314 313 314 314 314 315 317 317 317 319 317 320 317 317 316 316 314 315 321 319 316 316 316 316 314 313 312 315 313
310 309 309 308 307 307 308 309 308 313 315 316 316 314 312 314 314 312 313 314 316 316 317 318 317 317 315 317 318 314 313 313 313 314 316 318 317 316 316 317 314 314 313 311 311
312 311 310 309 308 308 310 313 319 316 317 315 315 315 315 313 313 314 314 314 315 316 317 318 315 314 316 316 316 316 315 315 316 317 317 317 317 317 317 314 310 308 307 307 308
314 314 312 309 308 311 315 320 317 318 316 317 316 316 316 316 316 314 315 314 315 316 315 315 316 317 318 317 317 317 317 316 317 319 318 316 317 316 312 310 309 307 306 306 307
311 314 310 309 314 316 319 319 318 318 317 317 317 316 316 316 316 315 315 314 315 316 317 317 319 318 317 318 318 318 319 318 318 318 317 317 316 318 312 310 310 307 306 306 306
309 312 312 313 316 319 319 318 320 318 318 318 319 317 317 316 316 316 315 315 316 318 317 316 317 318 318 318 317 317 318 318 319 318 317 316 319 317 313 311 310 305 303 304 305
309 311 312 315 317 319 319 318 318 319 330 319 318 318 317 317 318 318 315 316 317 318 316 316 317 317 318 318 318 317 318 318 318 318 319 319 319 317 314 308 304 302 302 301 304
312 311 312 316 318 317 318 317 319 320 325 322 320 320 319 319 319 319 318 316 317 318 318 315 316 317 317 317 317 317 318 313 313 315 318 317 320 318 312 305 303 302 301 301 301
315 317 318 317 319 316 318 318 320 323 320 322 321 318 318 317 317 316 316 312 312 312 316 316 317 317 314 315 316 312 311 314 315 320 321 316 315 311 304 303 303 302 301 301 301
315 314 312 312 316 316 319 317 323 323 320 319 318 316 319 314 316 313 316 317 311 310 312 313 317 317 310 315 314 312 313 315 319 318 319 314 313 310 303 303 303 303 302 301 301
316 314 312 308 315 317 315 320 319 315 311 313 315 317 320 317 311 312 315 318 310 308 309 312 316 308 313 313 312 312 310 308 310 312 313 314 310 306 303 303 302 302 302 300 300
318 314 307 308 314 317 314 317 309 308 309 311 315 313 314 311 308 305 314 311 311 308 306 307 305 306 311 311 309 310 309 309 305 307 307 306 308 310 303 303 303 303 302 300 302
317 312 306 308 312 312 317 313 308 306 308 310 311 312 311 307 306 305 313 309 309 308 306 303 304 303 303 306 305 304 304 305 304 304 305 306 307 302 303 303 303 303 303 302 301
313 308 307 308 307 306 308 310 307 307 306 308 308 308 306 306 305 306 312 310 307 305 305 302 302 301 301 304 306 305 304 303 302 306 305 301 306 302 303 303 303 303 302 301 303
302 303 308 308 304 304 306 307 306 307 306 307 307 306 304 305 305 305 310 309 305 304 304 303 300 299 303 307 306 305 306 305 304 303 303 303 305 305 303 303 303 302 300 300 302
305 307 303 300 300 303 303 305 305 305 305 305 305 305 305 305 304 305 306 309 306 304 307 303 302 300 300 303 304 305 305 304 303 298 303 304 304 303 303 303 302 299 298 300 301
302 302 304 302 301 301 302 305 306 306 303 303 305 304 303 303 303 304 305 304 306 307 305 303 304 304 304 305 305 305 305 304 304 303 302 303 303 303 302 299 300 301 302 302 302
305 303 300 300 301 303 303 304 305 302 303 303 304 304 303 303 304 303 303 303 303 303 303 302 302 304 304 305 305 305 304 303 303 303 303 303 302 300 301 303 303 302 302 302 302
306 305 301 300 301 302 303 305 304 303 302 303 303 302 303 304 303 302 300 300 301 302 302 302 303 302 300 304 304 303 304 303 303 302 302 302 301 304 304 304 303 303 302 302 302

GFSSW_925_thetae_030.txt.gz
Theta_e
314 313 313 312 312 313 312 313 311 314 312 311 310 310 310 310 312 316 320 321 317 315 320 321 323 324 324 323 327 323 318 323 323 322 322 321 320 320 319 319 318 324 326 327 332
314 314 315 313 311 311 312 311 314 312 311 310 310 309 310 311 318 322 316 315 315 313 319 320 320 320 319 323 325 323 320 317 319 321 320 320 321 320 319 316 317 317 318 330 332
318 318 316 314 313 313 312 314 312 311 309 309 309 309 310 315 323 322 312 312 311 315 318 319 319 320 321 322 323 322 319 319 322 321 322 320 319 321 320 318 316 318 319 317 331
317 316 315 315 315 315 313 311 310 309 309 309 309 309 310 320 317 318 312 314 316 317 318 320 319 320 321 322 320 321 321 321 321 321 321 320 320 319 319 317 316 316 315 318 326
315 313 313 312 311 310 310 309 309 309 309 309 309 309 319 318 315 316 313 314 315 316 317 318 319 319 320 319 318 319 318 320 320 319 318 318 317 318 318 316 315 315 315 313 312
312 311 309 309 309 309 309 309 309 309 309 309 309 313 321 316 314 314 314 314 314 316 318 318 318 318 318 318 319 318 319 318 318 317 317 318 317 318 317 316 314 316 311 311 311
309 309 308 308 308 308 308 309 309 309 309 309 309 316 316 314 314 314 314 314 314 315 316 318 318 317 318 318 318 318 317 315 316 318 319 317 318 319 317 315 314 309 310 311 310
308 307 307 307 308 308 308 309 309 309 309 309 311 317 311 313 314 313 314 314 314 315 316 317 317 317 318 317 317 316 315 316 316 314 320 317 317 316 314 313 311 311 309 310 308
308 308 307 307 307 307 308 308 308 309 309 310 316 316 315 313 313 313 313 313 314 315 316 317 317 317 316 317 314 312 315 315 312 312 316 319 316 315 313 313 311 308 307 308 307
309 308 308 308 307 307 307 308 309 314 314 316 316 311 312 313 313 312 313 313 314 315 315 317 313 314 312 315 315 315 312 312 312 313 316 316 315 310 311 310 308 305 304 306 306
310 310 309 309 308 309 310 314 316 312 315 314 314 314 314 313 313 313 313 313 313 314 315 317 314 313 314 314 314 314 314 315 314 316 316 316 313 309 307 306 305 303 303 304 304
314 312 310 309 309 311 317 318 317 316 316 316 315 315 316 315 314 313 314 314 314 314 314 313 315 316 315 316 317 317 317 315 316 317 317 315 312 309 307 307 305 304 304 304 304
313 312 309 311 314 317 318 318 318 317 314 316 316 315 315 316 314 314 314 314 314 315 316 315 318 317 317 317 316 316 317 317 317 316 315 315 314 311 309 305 304 303 304 304 304
311 310 310 314 317 318 318 317 318 317 316 318 318 317 317 316 316 315 314 314 315 317 315 315 317 317 317 317 316 316 317 317 318 317 316 315 315 314 309 303 301 299 300 303 303
311 311 314 315 317 318 319 318 317 318 327 318 318 317 316 317 317 317 315 315 316 319 316 314 316 316 317 317 317 316 316 317 317 317 318 317 317 315 306 303 302 301 300 300 303
312 310 312 317 317 316 318 317 318 315 321 321 319 318 318 317 317 317 313 311 312 315 316 316 315 316 316 315 316 314 313 310 313 314 316 314 318 315 305 303 302 301 300 300 300
315 315 318 317 318 316 318 316 313 322 319 321 319 316 317 316 315 315 311 309 310 309 311 313 317 315 312 313 312 310 310 311 313 316 315 314 312 309 302 302 303 302 300 299 299
315 313 311 310 316 316 318 314 323 320 318 316 315 316 318 312 313 313 315 315 309 308 310 311 313 310 310 313 312 311 311 311 310 313 315 312 310 304 302 302 302 302 301 299 298
314 313 311 307 315 317 312 319 320 313 310 311 314 316 319 314 310 314 312 314 308 306 309 307 310 306 311 311 309 309 309 309 309 309 310 310 304 302 302 302 302 301 300 300 299
318 314 306 310 315 316 312 314 307 306 308 310 315 312 315 308 308 305 312 309 309 307 305 305 302 304 306 309 306 308 308 310 305 306 307 305 306 306 302 302 301 301 300 300 299
317 305 306 307 313 310 314 311 305 305 308 310 310 310 308 306 305 305 311 308 308 306 303 302 302 302 302 304 305 304 303 303 303 302 304 304 304 301 301 302 301 301 301 301 299
309 302 306 307 305 301 306 308 306 306 305 307 306 305 306 305 304 306 311 309 306 304 304 302 301 301 301 301 304 303 303 301 301 302 303 300 303 302 301 302 302 301 300 298 300
300 301 306 306 303 302 305 305 305 306 305 306 306 305 304 304 304 304 309 308 304 303 301 301 298 297 301 305 304 305 305 304 303 301 301 303 304 302 303 302 302 299 298 299 300
303 305 301 297 297 301 303 305 303 304 304 304 305 304 304 304 303 304 308 308 304 303 307 302 299 297 300 301 303 304 304 304 303 297 302 303 304 303 302 302 299 300 299 299 299
298 301 302 300 300 301 301 305 304 305 303 303 304 303 302 302 303 304 304 304 305 306 304 302 303 303 303 303 304 304 304 304 303 303 302 303 302 303 302 299 300 301 301 301 301
303 300 297 298 299 302 301 303 304 302 302 302 303 303 302 302 302 303 303 302 302 304 303 301 301 303 303 303 303 304 304 304 304 303 303 303 303 301 299 301 301 301 301 300 300
305 304 298 299 299 301 302 304 303 301 302 303 303 302 302 302 302 302 300 300 301 301 301 301 302 301 300 301 302 301 302 303 303 302 302 301 301 300 302 302 300 300 299 299 301

GFSSW_925_thetae_033.txt.gz
Theta_e
314 313 313 313 313 313 313 312 312 312 313 312 310 310 310 310 312 317 320 320 317 314 319 320 323 322 322 322 325 319 317 320 322 321 320 319 319 318 318 317 315 317 321 323 329
314 314 314 313 312 312 311 312 311 313 311 310 310 309 310 311 319 321 316 315 314 312 317 319 319 319 318 322 323 320 313 314 317 319 319 319 319 319 318 315 316 315 314 318 332
317 317 316 313 312 312 312 312 314 311 310 309 309 309 310 316 322 321 311 311 313 316 318 318 319 319 320 322 323 321 318 318 320 320 320 320 318 319 318 316 315 315 314 313 326
317 316 315 314 313 313 313 313 311 309 309 309 308 309 310 321 315 316 312 315 315 316 317 319 317 319 319 321 318 321 320 320 320 320 319 319 318 318 318 316 313 312 310 311 310
316 314 314 314 313 313 311 310 309 309 309 309 308 309 318 315 314 316 313 314 315 316 317 317 318 318 319 317 316 318 318 318 318 318 318 317 317 317 316 311 310 310 310 309 309
313 310 310 310 309 309 309 309 308 308 309 309 309 315 320 315 314 313 314 313 313 316 318 317 317 317 317 317 318 317 317 316 315 315 316 317 317 317 314 309 310 309 308 307 307
309 309 309 308 308 308 308 308 308 309 309 309 309 317 314 314 314 313 314 314 313 315 315 317 317 315 316 316 316 317 315 313 316 314 318 316 316 317 311 310 309 307 306 306 306
308 308 308 308 308 308 308 308 308 309 308 309 312 316 310 313 314 313 314 314 314 314 315 316 316 316 316 316 314 315 313 314 315 313 315 316 316 311 309 309 307 306 304 305 305
308 307 307 307 307 307 307 308 308 308 308 310 315 315 312 313 313 312 313 312 314 314 315 316 316 315 314 314 312 310 314 313 312 313 316 316 314 308 308 307 306 303 303 305 304
308 308 308 307 307 307 307 308 309 314 313 315 316 310 311 313 312 312 312 312 314 314 314 315 311 311 310 312 311 314 312 312 312 313 315 311 309 306 305 304 303 302 302 303 303
309 309 308 308 308 308 309 312 314 311 314 313 313 313 314 314 313 313 313 313 313 312 314 314 314 313 312 313 314 313 313 314 313 314 314 309 308 307 305 304 303 302 302 303 303
311 310 309 308 308 312 318 315 315 314 315 315 314 314 315 315 313 313 314 313 313 313 313 312 314 314 313 315 316 316 316 314 314 316 315 309 308 307 306 305 304 303 303 303 303
312 311 309 309 313 317 318 318 318 317 313 315 315 314 314 315 313 313 313 313 314 315 315 315 316 316 316 315 316 315 315 315 315 315 312 309 311 307 304 302 302 302 303 304 304
310 309 310 314 317 318 317 317 318 317 315 317 317 316 316 315 316 315 313 313 314 316 315 314 315 316 316 316 315 315 315 316 316 316 315 314 315 308 304 302 301 299 298 303 303
310 311 314 315 317 318 318 317 317 316 317 317 317 316 314 316 316 316 312 315 316 317 315 314 315 315 316 316 316 316 315 316 316 316 316 315 316 312 301 303 302 300 299 299 300
310 313 313 317 317 316 317 317 317 311 315 320 318 317 317 316 316 316 311 308 310 314 312 316 314 315 315 314 314 311 311 310 311 312 314 311 316 311 306 302 302 301 300 299 298
311 313 318 317 317 315 317 315 312 315 318 320 319 315 316 315 314 313 310 306 308 309 309 309 315 312 311 312 310 309 306 306 309 314 313 312 312 308 301 300 301 302 300 298 298
315 314 310 311 316 316 317 314 321 319 318 313 314 316 318 311 311 314 315 312 307 307 308 310 310 309 310 312 310 310 309 307 308 308 310 310 310 305 301 300 301 301 299 298 298
313 312 308 309 315 316 312 317 316 314 310 310 314 316 318 312 308 312 312 311 307 305 306 305 306 304 308 308 308 308 307 308 308 306 306 308 306 301 300 301 301 299 299 298 298
315 309 306 310 315 315 311 314 307 305 308 310 315 311 317 309 306 309 311 308 308 305 304 304 301 303 305 307 305 307 306 309 303 306 305 303 303 306 300 300 300 299 298 298 298
317 300 305 306 313 308 313 310 305 305 307 309 310 309 307 307 304 307 310 307 307 304 302 302 301 301 302 304 303 302 303 303 303 302 304 303 303 301 300 301 301 299 298 298 297
306 302 304 306 305 299 306 307 305 305 304 306 305 305 306 304 303 307 310 309 306 303 302 302 300 300 300 300 301 302 302 300 302 302 301 299 303 301 299 299 300 299 298 298 299
299 299 305 305 303 302 304 304 304 305 304 306 305 304 303 304 303 305 308 307 303 302 302 299 297 298 301 303 304 304 304 302 300 299 300 302 302 299 298 299 300 299 298 299 300
301 304 300 295 296 301 302 303 303 303 303 303 304 304 303 303 302 303 308 307 304 303 306 301 296 297 302 302 302 302 302 302 301 297 301 303 303 303 302 300 301 300 298 299 300
297 301 301 300 299 300 302 304 302 303 302 302 303 303 302 301 303 303 304 306 304 305 303 300 300 301 301 300 301 302 303 303 303 301 302 301 300 301 301 301 300 298 300 300 299
302 299 295 297 298 302 300 304 304 302 301 302 303 302 302 302 300 301 302 301 302 304 303 299 300 302 302 302 302 303 303 302 303 303 302 302 303 302 301 297 299 299 299 299 299
303 302 298 299 298 300 302 303 303 301 301 302 302 302 302 301 302 301 299 298 300 302 300 300 301 300 298 300 300 300 301 301 302 302 302 302 302 300 300 300 299 298 299 300 300

GFSSW_925_thetae_036.txt.gz
Theta_e
314 314 314 314 314 314 314 313 313 311 313 312 310 310 309 310 313 317 318 317 316 313 317 320 320 320 321 322 323 316 315 318 321 321 318 317 318 317 317 316 314 315 314 313 331
316 314 313 313 313 312 312 312 311 312 312 310 310 309 309 311 320 320 314 313 312 314 317 319 318 318 317 321 321 316 311 313 315 317 319 318 318 317 318 314 313 312 311 313 322
315 314 315 314 313 312 311 312 312 312 310 309 309 309 309 316 321 319 311 312 315 316 317 319 318 318 319 321 322 319 316 317 319 319 319 318 317 317 316 314 310 310 309 308 309
317 317 316 314 313 312 312 313 312 310 309 309 308 308 311 320 313 315 313 314 315 316 318 318 316 318 318 319 316 321 319 319 320 319 317 318 316 311 310 310 309 308 308 308 307
316 315 314 314 313 313 312 311 309 309 309 308 308 310 318 313 313 315 313 313 315 317 317 317 317 317 318 317 316 317 316 317 316 315 315 316 314 310 309 309 306 307 306 306 306
314 313 313 311 311 310 309 309 308 308 308 308 308 315 319 314 313 313 313 313 314 317 317 316 317 316 316 316 316 316 316 314 313 314 315 317 314 312 309 307 305 305 304 304 304
316 315 309 309 308 308 308 308 308 308 308 308 310 316 312 313 314 313 313 313 313 314 314 316 316 313 315 314 315 316 314 313 312 311 316 314 312 309 308 306 304 302 302 303 304
314 309 308 308 308 308 308 308 308 308 308 308 313 315 309 313 313 312 313 313 313 314 315 316 316 315 314 314 312 313 311 313 313 314 314 314 313 307 306 305 303 302 301 302 303
307 307 307 307 307 307 307 307 308 308 308 311 315 313 311 313 312 312 312 312 314 314 314 316 315 313 313 313 310 309 313 312 311 313 315 313 311 305 304 304 303 301 301 303 302
308 307 307 307 307 307 307 308 309 313 311 315 315 309 311 312 312 312 312 312 313 313 314 313 309 310 309 309 308 313 313 312 311 312 309 307 306 305 304 303 302 301 301 302 302
308 308 308 308 308 307 309 312 312 310 313 311 312 311 312 313 312 313 313 313 312 311 313 312 313 312 313 313 313 313 313 313 312 313 308 307 306 305 304 303 302 302 302 302 302
309 308 309 308 308 313 317 315 312 312 314 314 313 314 314 314 312 312 313 313 312 312 312 311 313 313 313 314 315 315 315 313 313 314 308 307 306 306 305 304 304 303 303 303 303
311 310 309 308 310 316 317 317 317 316 312 315 315 313 314 314 313 313 312 312 313 314 314 314 315 315 315 315 315 314 314 314 315 314 307 306 308 305 303 302 302 302 302 303 302
311 309 309 313 316 317 316 317 318 316 312 316 316 315 315 313 315 313 312 313 313 316 314 314 313 315 315 315 314 315 313 315 316 315 312 310 312 306 302 301 301 300 297 298 300
309 310 314 315 317 318 316 317 316 315 311 316 316 315 313 316 315 315 310 314 316 316 314 313 313 315 316 315 315 315 311 313 315 314 313 313 316 311 300 301 301 301 299 298 297
311 313 314 317 316 316 317 316 316 310 312 319 316 316 316 314 314 314 309 306 309 312 312 314 312 313 314 313 313 310 310 308 310 310 312 310 313 310 301 300 301 301 300 298 297
311 314 317 317 316 315 317 312 311 311 317 319 318 314 315 313 312 312 310 305 308 311 309 309 313 308 310 311 308 308 303 305 306 311 312 311 312 309 302 299 300 301 300 298 297
314 313 310 313 316 316 316 313 314 317 318 312 313 316 317 310 309 314 314 310 306 306 306 309 312 309 308 310 310 310 307 306 306 305 306 308 310 307 300 299 299 300 299 297 297
313 310 307 311 315 316 310 313 312 315 309 310 314 316 317 311 308 311 312 310 307 304 305 304 304 303 305 305 306 307 306 306 306 305 304 304 305 302 300 299 300 300 298 297 297
311 306 306 310 314 313 311 314 308 305 307 309 314 311 317 310 306 309 310 308 308 304 302 303 301 302 304 305 303 306 304 306 302 305 305 302 301 304 300 299 299 299 297 297 297
315 301 303 305 312 307 314 310 304 305 306 309 310 309 309 307 303 306 308 307 307 303 301 301 299 301 301 303 303 301 303 302 302 301 304 303 302 299 301 299 299 298 297 297 297
304 303 303 307 306 298 307 306 305 305 304 305 304 305 306 303 303 306 308 308 304 302 301 300 298 299 300 299 300 302 302 300 303 302 299 298 302 300 298 298 298 298 298 297 297
298 299 303 305 303 302 303 304 304 305 303 305 304 303 303 302 302 305 307 305 302 301 302 299 297 299 301 302 303 303 303 301 299 299 299 301 301 299 299 299 297 299 297 296 298
300 302 299 294 294 301 303 303 303 303 303 303 303 303 302 302 301 303 307 306 302 303 306 300 296 298 304 303 302 303 302 301 300 298 301 302 302 301 299 298 298 299 296 297 298
297 301 299 300 299 299 301 302 301 302 301 302 302 303 302 302 302 302 305 306 304 306 302 299 301 299 299 298 298 299 299 301 301 300 301 301 299 300 299 298 299 297 298 298 297
300 299 294 296 296 301 300 303 303 303 300 301 302 301 301 300 300 301 301 302 302 302 302 298 300 301 300 301 301 302 302 301 301 302 301 302 302 301 300 298 298 297 297 297 299
301 300 298 298 297 300 301 301 303 301 301 301 300 301 301 301 301 300 298 297 299 302 301 299 300 299 297 298 299 299 299 301 301 301 301 301 301 300 299 299 298 297 297 299 299

GFSSW_925_thetae_039.txt.gz
Theta_e
316 317 316 317 315 315 315 314 313 312 311 312 310 309 309 310 315 318 316 315 314 313 317 320 319 320 321 326 324 318 326 324 323 323 320 318 320 318 316 317 315 313 313 311 314
316 314 313 313 314 314 313 312 311 311 312 310 309 309 309 311 321 317 312 312 313 316 317 319 319 318 322 324 325 322 322 317 317 318 321 320 319 318 319 315 315 314 311 310 312
316 315 314 314 313 313 312 311 311 312 310 309 309 309 309 316 319 318 313 314 315 316 318 319 318 319 321 322 322 321 322 317 319 320 319 319 316 313 316 316 312 311 310 309 310
316 316 316 315 313 312 312 311 312 310 309 309 308 308 312 319 316 315 313 314 315 317 318 317 318 320 321 321 317 322 319 320 321 318 317 318 314 313 312 311 309 308 308 308 309
316 316 315 313 312 313 312 311 310 309 309 308 308 311 318 313 313 313 313 313 315 318 317 317 318 318 319 317 317 318 317 317 316 315 315 314 313 312 310 308 306 306 307 307 308
315 314 313 312 313 311 310 309 308 308 308 308 309 316 318 314 313 313 313 313 314 317 316 316 317 316 317 316 316 316 316 315 313 313 315 313 311 312 310 307 306 306 307 306 307
313 313 310 312 310 309 308 308 308 308 308 308 311 316 311 312 313 312 313 313 313 314 314 315 315 312 315 314 315 315 316 314 313 314 316 313 313 311 308 306 306 305 306 306 305
310 309 316 310 308 308 308 308 308 308 308 309 314 314 309 312 312 312 312 312 313 314 315 315 316 315 314 314 313 314 313 317 312 316 315 315 315 309 307 306 306 305 305 306 305
311 316 309 308 308 307 307 307 307 308 308 312 314 311 311 312 312 311 312 312 314 314 315 315 314 314 314 315 313 313 316 314 314 313 314 314 313 307 305 305 306 305 305 305 305
311 308 307 307 307 307 307 308 309 312 313 314 313 309 310 311 311 312 312 312 312 313 315 314 311 313 312 314 314 313 315 313 313 314 312 311 308 306 305 305 305 305 304 305 305
307 307 307 307 307 307 308 312 311 311 312 309 311 310 311 313 312 313 313 312 311 312 314 312 315 315 314 312 312 313 313 314 313 313 311 309 308 307 305 305 305 305 305 305 305
307 308 308 308 308 311 315 313 310 312 314 313 313 313 313 313 312 313 313 312 312 313 312 314 315 313 313 313 314 315 315 315 313 313 312 308 308 306 306 305 305 305 305 305 305
309 308 308 308 310 315 316 317 317 315 313 314 314 313 313 313 312 313 312 311 313 314 313 315 315 314 314 314 316 314 315 314 316 313 308 308 310 307 305 305 305 305 304 304 305
311 309 308 311 316 316 315 317 317 315 312 315 315 315 314 312 314 312 310 312 314 315 314 314 313 315 314 315 314 316 313 315 316 317 318 310 313 309 304 304 302 303 301 301 301
308 310 313 315 316 316 316 316 316 314 313 315 315 315 313 315 314 315 308 314 315 316 314 313 313 315 316 315 315 316 311 312 315 316 314 314 316 315 303 303 302 302 302 301 301
311 314 315 317 316 316 316 316 314 311 313 319 315 316 316 313 312 312 308 307 308 310 313 312 311 312 313 313 312 309 310 309 311 313 315 311 317 316 305 304 302 302 302 302 301
312 315 316 317 314 315 316 312 312 312 317 318 317 314 314 312 311 312 310 306 309 312 312 310 312 308 310 311 309 309 306 311 311 312 315 312 315 316 306 302 303 303 302 302 301
314 313 311 315 315 316 315 311 312 315 317 311 313 315 316 309 310 313 313 310 305 305 308 310 314 309 307 310 309 310 308 310 311 309 309 307 313 312 304 302 302 302 301 300 300
311 309 307 312 314 316 309 312 310 315 310 311 313 316 316 309 309 310 311 310 306 303 305 306 305 303 304 304 306 308 309 308 307 305 307 307 307 305 301 301 300 302 301 301 300
310 306 304 309 314 313 310 312 310 304 307 308 315 311 316 313 306 308 310 308 307 302 301 302 303 301 304 304 303 306 305 307 306 308 307 306 304 308 303 302 301 301 301 301 300
310 302 303 307 311 309 313 310 305 304 306 309 311 309 311 308 304 305 306 307 307 302 301 300 300 301 301 304 305 305 306 303 304 305 308 307 308 302 304 303 302 301 301 301 300
302 304 303 308 307 298 307 305 304 304 304 305 304 306 307 303 302 305 308 308 303 301 301 300 298 301 301 299 300 302 302 304 309 305 302 303 308 302 302 301 301 301 300 300 299
298 299 302 304 305 303 302 303 303 304 303 305 304 303 302 302 303 305 307 305 301 301 301 300 299 305 304 303 303 303 302 300 301 302 305 307 308 301 300 300 300 301 300 300 299
299 302 299 294 294 302 303 303 303 302 302 302 302 302 302 302 301 303 306 305 302 303 305 300 297 302 311 305 303 305 303 301 303 306 305 305 307 306 303 302 302 301 300 299 299
296 300 298 301 299 299 300 300 301 302 301 301 302 302 301 302 302 302 305 305 303 308 301 300 302 299 299 298 298 300 301 302 303 304 305 306 303 304 302 301 301 300 299 299 299
300 299 294 295 296 300 300 302 300 302 301 301 302 301 300 299 300 301 303 304 304 302 302 298 302 302 301 301 301 303 303 302 302 303 301 303 303 303 302 300 299 300 299 299 300
300 298 299 297 297 300 300 301 303 300 300 300 300 300 301 300 300 299 298 297 300 303 302 301 302 301 302 298 299 302 301 302 302 301 302 303 304 301 300 300 300 299 299 300 299

GFSSW_925_thetae_042.txt.gz
Theta_e
318 319 320 320 319 317 315 316 315 313 311 312 310 309 309 310 317 320 317 316 317 315 317 320 322 323 326 331 330 324 331 331 326 324 325 323 322 322 320 320 318 317 318 317 321
315 315 315 315 315 314 314 314 312 311 311 310 310 309 309 313 322 315 313 313 315 316 319 322 323 323 327 329 329 327 328 323 322 324 324 323 322 321 322 321 319 318 316 318 322
317 316 314 314 313 313 313 312 311 311 311 309 309 309 309 318 322 316 313 314 315 316 318 320 321 324 326 327 327 327 326 324 323 324 322 321 320 318 321 322 316 316 315 317 319
316 315 315 315 315 313 312 311 311 311 309 309 308 309 313 319 319 315 313 313 315 317 319 321 322 324 326 325 323 326 324 323 323 319 320 321 319 317 317 316 312 312 313 315 316
316 316 315 315 313 312 311 312 311 309 309 308 308 312 319 317 315 313 313 313 316 318 320 322 322 323 323 323 322 322 322 320 318 319 319 318 318 316 314 311 311 312 313 314 314
315 315 314 313 312 312 311 310 309 308 308 308 309 316 320 316 313 313 313 313 316 318 318 320 321 321 322 321 320 321 320 318 318 319 318 319 316 317 312 311 312 312 312 312 311
314 314 313 312 311 310 309 308 308 308 308 308 311 316 316 315 313 312 313 313 314 315 317 316 316 317 318 319 319 319 319 318 319 319 318 318 319 316 311 311 312 311 311 310 308
312 313 313 309 309 308 308 308 308 308 308 309 314 314 315 312 312 312 312 313 314 315 317 316 317 318 318 318 318 319 319 321 318 319 317 318 321 314 311 311 311 310 310 309 307
310 311 308 308 309 308 308 307 307 308 309 312 315 314 314 312 312 311 312 314 314 315 316 316 318 320 319 319 319 319 318 319 319 317 319 319 321 314 311 311 311 310 310 309 308
307 308 308 309 307 307 307 307 309 311 314 313 313 315 313 313 312 312 312 313 315 316 319 320 319 319 319 319 318 317 318 319 320 319 318 318 317 313 310 311 311 310 309 309 308
307 307 308 307 307 307 308 314 316 316 315 314 314 313 313 313 312 314 313 314 315 317 318 319 320 319 319 319 318 319 320 320 319 317 318 317 317 314 311 310 310 310 309 308 308
307 307 308 307 307 308 312 317 314 316 317 315 315 315 314 314 316 317 314 316 316 318 317 319 319 318 317 317 319 319 320 320 318 317 318 319 318 314 311 310 310 310 309 308 308
308 308 308 307 311 314 317 318 316 314 318 317 316 316 316 315 317 318 315 316 317 318 319 319 320 317 318 319 319 320 319 318 319 318 315 316 319 315 311 310 309 308 308 308 308
309 308 308 311 316 317 318 317 317 315 317 318 318 317 316 317 318 314 312 316 319 319 319 319 317 318 318 319 318 320 316 318 318 319 321 315 316 317 313 310 309 309 308 308 307
309 308 312 315 317 317 317 316 316 316 317 317 318 315 316 318 318 317 310 317 319 320 319 319 317 318 319 319 318 320 315 316 317 318 317 318 318 320 313 311 310 309 307 307 306
311 313 315 316 316 316 315 316 316 318 320 321 318 319 319 317 316 315 313 313 313 317 318 317 315 315 317 316 315 313 314 315 316 317 320 317 318 319 314 313 311 308 307 306 306
312 315 316 316 317 315 316 317 318 318 319 321 320 318 319 317 316 316 314 313 316 318 319 317 317 313 313 316 314 314 315 317 319 322 321 317 319 319 316 310 311 308 307 307 306
315 312 313 314 314 316 316 319 319 318 320 316 317 318 320 315 316 317 317 315 309 310 314 317 319 314 310 314 314 314 314 315 316 316 316 315 318 317 309 309 308 308 307 306 306
310 308 309 312 315 316 319 318 318 319 316 318 316 320 319 313 312 315 316 315 309 307 312 312 312 308 307 309 310 313 314 313 313 311 312 314 313 312 307 307 307 307 306 306 306
309 308 306 310 314 316 319 316 317 309 310 312 321 317 319 318 313 313 313 312 309 305 306 308 309 306 307 307 308 310 310 313 313 314 315 314 312 314 310 308 307 307 307 307 305
308 312 304 309 312 318 319 316 310 307 309 313 317 316 316 317 312 312 311 311 310 305 305 306 306 306 306 309 311 310 311 310 311 312 314 315 315 311 310 310 309 308 308 307 306
309 312 304 309 317 312 317 310 305 307 308 309 310 311 313 310 309 310 311 311 306 305 306 304 306 308 307 304 304 306 308 310 312 313 311 312 313 308 308 308 308 308 308 307 305
310 308 304 305 316 315 308 307 306 307 307 307 308 307 306 308 309 308 311 307 304 305 305 305 307 312 310 309 306 307 307 306 308 309 313 313 314 307 307 307 307 307 306 306 305
308 311 307 306 305 311 310 308 307 304 305 305 305 305 306 306 305 307 310 307 304 306 305 304 306 309 314 312 309 309 308 306 308 313 312 312 312 311 310 308 307 306 305 305 305
308 310 304 310 307 307 307 307 306 306 304 304 305 305 305 306 306 306 308 308 305 309 305 306 308 305 306 305 303 304 305 306 307 308 309 312 311 310 309 309 308 306 304 304 304
310 308 303 304 303 306 304 306 304 304 305 305 305 305 304 305 306 306 308 308 308 308 308 305 308 306 307 304 305 306 306 307 306 306 307 307 308 308 307 306 305 304 304 303 303
301 300 308 301 305 308 308 307 306 305 303 303 303 305 305 304 303 303 304 304 305 307 308 307 307 307 310 303 304 308 308 308 307 306 306 308 310 307 306 305 305 305 304 303 302

GFSSW_925_thetae_045.txt.gz
Theta_e
319 319 319 320 319 319 318 316 316 316 313 311 311 310 309 309 318 322 321 318 318 315 317 323 325 325 328 332 332 329 339 337 330 327 327 323 323 323 322 322 321 321 322 323 327
316 317 318 318 319 317 316 315 315 313 311 311 310 309 309 313 325 318 315 314 315 316 322 323 325 325 329 331 330 332 337 328 325 326 326 324 323 323 323 323 322 321 321 323 327
317 316 315 314 314 314 314 314 313 312 311 310 309 309 309 317 326 318 314 314 315 318 321 322 323 325 328 329 329 329 331 326 326 326 323 322 322 321 324 324 319 319 319 321 322
317 316 315 315 314 314 313 312 312 310 311 309 309 308 312 325 323 317 313 313 316 319 320 322 323 326 328 329 325 330 325 325 325 321 322 323 322 320 322 319 316 317 317 318 319
317 316 316 315 315 313 312 311 311 311 309 309 308 310 321 322 318 314 313 314 317 319 321 323 323 324 327 326 324 325 324 321 321 322 322 321 322 320 317 315 316 316 316 317 317
316 316 315 315 314 312 312 311 310 309 309 308 308 314 325 320 314 314 314 314 317 319 320 321 323 323 324 324 323 323 321 320 321 321 321 321 320 320 316 315 316 316 316 315 314
314 315 315 314 313 312 311 309 308 308 308 308 310 319 320 318 314 313 314 314 316 318 319 318 318 319 321 322 321 320 321 320 320 321 321 321 321 322 316 316 316 315 314 313 312
314 314 315 313 312 310 309 308 308 308 308 309 313 320 318 313 314 313 314 315 316 317 319 319 318 319 320 319 319 320 319 322 322 321 320 320 322 319 315 316 316 315 314 312 311
314 313 312 310 310 308 308 308 308 308 309 312 319 320 316 313 314 313 314 315 316 317 318 318 320 322 321 321 320 321 319 322 323 320 322 321 323 320 316 316 316 315 314 312 311
310 309 309 308 308 307 307 307 309 313 314 318 317 317 314 315 314 314 314 315 317 318 320 321 321 321 321 320 319 321 321 320 321 322 320 322 322 320 316 315 316 315 314 313 311
307 308 308 307 307 307 308 315 319 320 317 317 316 316 315 314 314 316 315 316 317 318 320 320 321 321 321 321 321 319 320 321 322 321 319 320 321 320 317 315 316 315 314 313 312
307 307 307 308 307 307 314 319 318 319 317 317 316 316 316 315 317 318 316 318 318 319 319 320 320 322 320 320 321 321 322 323 322 320 319 321 323 321 318 315 315 315 314 312 311
307 307 308 308 309 312 319 319 318 318 319 318 317 317 317 317 318 319 318 318 319 319 320 321 323 320 320 321 322 322 322 321 320 322 321 321 322 321 319 315 314 314 313 312 312
308 308 308 310 315 318 321 319 320 319 320 319 319 318 318 319 320 317 316 319 320 322 321 321 320 320 320 321 321 322 320 319 320 322 322 320 318 324 319 315 314 313 312 312 311
308 308 309 315 319 318 320 319 319 320 320 319 319 317 318 320 320 320 314 320 322 322 321 322 320 320 321 321 320 322 319 320 321 321 319 320 321 323 320 317 315 313 312 312 311
308 310 314 316 319 318 318 319 319 321 323 322 320 320 320 319 319 318 317 316 317 320 320 321 318 318 320 319 318 318 318 319 319 319 320 321 321 323 320 318 316 314 313 311 310
312 314 317 317 320 317 318 320 321 321 321 323 322 321 321 321 319 319 319 318 319 321 321 319 319 316 316 318 318 318 319 320 325 326 325 320 319 319 320 316 316 315 313 310 310
315 314 315 314 316 318 319 321 321 320 321 320 320 320 322 320 320 320 321 320 313 314 316 319 323 318 314 317 318 318 318 318 320 320 320 318 319 320 314 314 313 313 311 310 309
310 312 314 310 315 317 321 320 322 321 321 321 320 322 323 318 316 318 318 319 314 311 315 316 317 312 311 312 313 317 315 317 315 316 316 318 318 315 312 311 311 311 311 310 309
314 314 312 313 314 318 322 320 320 315 315 318 323 321 323 322 317 317 318 315 313 308 309 312 312 311 311 310 312 313 313 317 317 317 319 318 318 317 313 312 311 311 310 310 310
312 316 308 313 313 321 322 320 315 311 313 317 321 322 320 321 318 318 315 314 313 309 308 309 310 310 309 311 314 313 313 312 313 315 316 317 318 314 313 313 312 311 311 310 310
315 315 308 311 318 319 320 315 306 312 311 313 314 316 317 316 315 316 315 314 309 309 310 309 311 312 312 308 308 310 312 313 315 317 316 316 317 314 312 311 310 310 310 310 310
315 313 308 311 319 317 314 311 310 311 312 312 313 312 311 313 314 311 312 310 307 308 309 309 311 314 313 312 309 308 310 310 311 313 315 316 316 311 310 310 310 309 309 308 308
312 314 311 314 312 315 315 314 311 307 309 309 309 309 310 310 309 311 312 310 307 308 306 306 311 312 315 314 311 312 312 310 310 313 315 315 316 315 315 312 311 310 309 308 307
313 315 310 313 312 313 313 312 310 309 307 308 308 308 309 309 309 309 310 310 307 310 308 309 311 311 311 310 309 309 308 309 310 311 312 313 312 312 312 311 309 308 307 307 306
314 313 309 309 309 311 307 310 309 306 308 308 308 307 307 308 309 309 310 310 310 310 310 309 311 310 310 309 308 308 309 309 310 310 310 310 311 312 309 309 308 308 308 307 306
307 306 314 305 311 313 314 311 309 308 306 306 307 308 307 307 306 306 307 307 308 309 311 309 310 311 313 309 309 312 313 312 312 310 311 311 312 310 309 309 309 308 307 306 305

GFSSW_925_thetae_048.txt.gz
Theta_e
319 319 320 319 318 318 317 318 316 316 316 313 311 311 310 309 313 321 326 317 315 315 317 323 325 326 327 334 334 332 345 340 332 331 329 324 324 323 322 322 321 321 323 326 329
318 319 319 319 319 319 319 317 315 315 314 311 311 310 309 309 320 327 315 313 314 316 324 323 328 326 333 333 335 334 345 331 328 327 328 326 325 323 323 323 322 320 322 325 327
316 316 316 316 316 316 315 315 315 314 312 310 310 309 309 315 328 319 314 313 315 317 322 321 322 327 331 331 330 332 335 329 327 328 324 324 323 322 325 323 319 319 320 321 323
318 317 316 315 315 315 315 314 313 312 311 311 310 309 310 323 325 316 313 314 317 319 321 322 324 328 331 332 326 331 327 327 327 323 322 323 323 321 321 319 317 318 318 318 317
317 316 316 316 315 315 314 313 313 311 311 309 309 309 320 324 318 315 314 315 317 320 321 323 324 326 330 328 326 328 326 323 322 322 323 323 323 320 318 316 316 317 317 316 316
316 316 316 316 315 314 313 313 312 311 309 309 309 310 324 324 315 315 314 315 317 319 320 322 324 323 325 325 325 324 323 322 322 322 322 322 321 320 317 316 316 317 316 314 313
315 315 315 316 314 313 313 312 310 309 308 308 308 318 323 318 315 314 315 315 317 319 320 319 318 321 323 324 322 321 321 321 322 322 322 322 323 320 317 316 316 315 313 313 312
315 315 315 315 313 312 311 309 308 308 308 308 309 320 320 314 315 314 315 316 317 318 319 319 320 321 323 321 320 319 319 324 323 322 322 320 323 322 316 316 316 315 312 312 311
315 315 314 312 311 311 309 308 308 308 308 310 317 322 317 312 315 314 315 316 317 318 319 318 321 324 320 322 322 322 320 322 324 323 322 320 323 320 316 316 317 314 312 311 310
315 312 311 310 310 309 308 308 310 311 313 319 320 318 314 315 315 315 315 316 317 318 320 321 322 322 323 322 322 322 322 321 322 322 321 322 321 320 316 316 316 314 312 311 309
310 308 308 308 308 307 307 313 319 322 319 318 316 316 315 315 315 317 316 316 317 319 321 322 322 323 322 322 322 320 320 320 321 322 322 322 321 321 318 316 316 315 312 311 310
308 308 308 307 307 307 313 319 319 320 317 317 316 316 316 316 318 318 317 318 319 320 320 321 320 322 321 321 321 321 321 322 324 321 320 320 320 321 318 316 315 315 313 311 310
307 307 307 307 308 309 317 321 319 320 320 317 317 317 317 317 319 319 318 319 319 321 320 321 323 320 320 321 321 322 323 323 321 322 321 322 323 323 320 317 315 315 313 312 310
307 307 308 309 313 317 321 320 321 321 321 318 318 318 317 319 321 318 317 320 320 321 323 322 321 320 321 321 322 324 321 321 321 322 324 321 321 322 319 316 314 313 312 311 310
308 308 308 315 318 319 321 320 320 321 323 319 319 318 318 320 321 320 316 320 322 323 321 322 322 321 322 322 321 323 321 321 322 322 320 319 320 322 319 317 314 312 312 311 310
308 308 311 315 318 320 319 320 320 322 324 321 320 319 319 319 320 319 318 317 318 320 321 321 319 319 320 320 319 318 319 321 321 320 320 318 320 322 319 318 316 313 312 311 310
309 313 316 318 321 318 319 321 322 322 322 323 322 321 320 322 320 320 320 319 320 322 321 321 320 317 316 318 319 319 321 323 325 326 325 321 321 319 316 314 315 314 311 310 309
314 315 316 315 317 318 320 323 325 321 324 322 321 321 322 322 321 321 321 321 315 315 318 320 323 319 316 318 318 321 319 320 321 321 319 319 320 318 314 313 313 314 311 310 308
313 315 316 313 315 318 322 323 323 324 321 322 321 322 323 320 318 320 320 320 313 311 315 317 318 313 313 313 314 318 316 317 315 314 315 317 318 314 312 311 311 311 310 309 308
314 315 316 313 315 318 323 322 320 316 318 320 323 322 323 322 318 319 320 316 314 309 310 312 312 313 311 311 313 313 314 317 315 318 319 318 318 316 312 311 311 310 310 310 309
313 317 310 313 314 320 322 319 316 313 316 318 321 322 321 321 319 319 316 314 313 310 309 310 311 311 309 312 315 313 312 312 313 314 315 316 316 313 313 312 310 309 309 309 308
318 316 310 313 318 321 321 317 308 313 313 315 315 317 318 318 317 317 316 316 310 310 312 309 310 312 312 309 309 311 313 313 315 317 318 316 316 309 309 309 309 308 309 308 309
319 315 310 314 319 318 315 313 313 313 314 314 315 313 313 315 315 313 314 311 309 310 311 310 311 313 311 311 310 308 310 311 310 312 316 314 313 309 309 310 309 309 309 308 308
314 316 314 315 316 315 317 315 313 309 312 310 311 310 311 312 311 313 314 310 308 310 307 308 312 313 316 313 313 312 313 311 310 313 312 313 313 312 311 310 308 307 306 305 306
315 318 312 315 314 313 314 314 313 310 309 309 309 309 310 311 310 310 312 311 308 312 309 309 312 311 312 311 311 310 310 310 309 310 310 310 310 310 309 307 307 307 308 307 306
316 315 311 312 311 312 308 311 311 307 308 309 309 309 308 309 310 311 311 311 313 311 310 310 312 311 310 311 309 309 309 309 309 310 309 309 310 309 310 308 307 307 307 307 306
309 308 315 308 313 314 315 312 310 309 307 307 308 309 308 308 307 307 307 308 308 311 312 311 311 312 315 311 312 313 313 312 311 312 311 310 311 311 309 308 307 307 306 306 305

GFSSW_925_thetae_051.txt.gz
Theta_e
319 319 320 321 320 319 318 317 317 317 315 316 312 311 311 309 310 321 326 320 315 314 317 323 324 325 325 330 330 328 334 328 327 328 323 321 322 320 318 318 319 320 322 325 327
318 319 319 319 319 318 318 318 318 316 315 314 311 311 310 309 318 324 322 314 313 315 319 322 323 322 325 329 330 327 327 326 325 324 324 322 322 321 320 319 317 319 319 324 324
316 317 317 318 318 318 318 316 315 315 315 312 311 310 309 312 327 320 314 313 314 317 320 321 321 323 327 327 327 327 327 325 326 324 321 322 321 321 320 319 317 317 318 318 319
316 317 316 316 315 315 315 315 314 314 313 311 311 309 309 320 323 316 313 314 316 319 320 321 322 323 327 328 324 325 324 327 324 320 320 321 320 318 317 318 315 315 316 315 312
317 317 316 316 316 315 315 314 314 313 311 311 309 309 316 325 320 315 314 316 318 320 320 322 322 323 325 324 323 324 322 321 320 321 320 320 320 317 315 314 314 316 314 312 311
315 316 316 316 315 315 315 313 312 311 311 309 309 309 320 325 315 314 314 316 318 319 319 318 319 319 321 321 323 322 321 320 320 320 321 320 318 318 315 313 314 314 311 309 310
314 315 315 315 315 314 313 312 311 311 309 309 308 312 323 322 315 314 315 314 317 319 320 319 318 318 319 321 320 318 319 319 319 319 320 319 319 318 314 313 313 311 309 309 310
314 314 315 315 315 313 311 311 310 309 308 308 308 318 323 315 314 314 315 315 317 318 319 318 319 319 320 318 318 318 316 318 318 319 320 317 316 318 312 313 312 310 307 308 308
315 316 315 314 313 311 310 309 308 308 308 308 312 319 316 313 314 314 315 316 316 317 318 318 320 321 318 317 316 316 315 316 321 319 319 317 318 316 312 313 312 308 307 307 306
315 316 314 312 310 309 308 308 309 309 311 316 319 320 315 314 314 314 315 316 316 317 319 320 318 316 317 316 316 318 317 317 320 320 318 318 317 316 313 312 312 308 306 306 305
313 312 310 309 309 308 307 309 316 318 320 319 317 314 314 314 315 316 316 316 316 317 318 320 317 317 316 318 318 318 317 317 317 320 318 317 317 317 314 312 311 310 306 306 306
310 308 308 308 307 307 308 318 318 317 316 316 316 315 315 315 316 317 317 316 316 317 317 316 316 318 319 319 319 319 319 318 320 320 318 318 318 316 315 314 313 311 308 306 305
308 307 307 307 308 307 311 319 319 320 315 317 316 315 315 316 319 317 317 317 317 317 317 316 321 319 320 320 320 320 320 319 319 319 318 318 318 318 316 313 312 312 310 307 305
307 307 307 308 308 311 315 319 320 321 314 317 317 317 316 318 320 317 316 318 319 318 320 319 319 320 319 320 319 320 320 320 320 319 318 318 317 314 315 313 312 311 309 308 305
307 307 308 307 317 318 319 319 319 320 321 317 318 317 316 319 319 319 316 318 320 320 317 317 319 320 320 321 319 321 319 319 319 318 316 316 316 313 314 314 312 309 309 308 305
307 307 308 311 315 319 318 319 320 317 323 320 318 318 317 318 318 319 317 315 316 317 319 319 318 317 318 318 318 317 317 317 318 315 316 314 315 315 316 315 312 309 308 308 306
308 308 312 317 318 318 318 319 315 319 321 321 320 319 318 319 318 318 317 316 316 319 318 318 318 315 315 317 317 317 315 317 319 320 319 316 316 314 315 313 313 310 308 307 306
312 314 316 315 316 317 319 317 324 321 322 321 321 320 320 320 319 319 319 317 311 312 313 317 320 315 315 316 316 317 315 316 318 319 314 316 315 313 310 308 307 309 307 306 305
315 314 315 315 315 318 315 319 320 321 320 321 320 321 320 318 318 319 318 314 308 308 313 310 315 312 310 311 313 315 312 312 311 310 310 311 314 311 309 309 308 306 305 305 304
312 315 315 314 315 317 316 319 315 315 316 319 322 320 321 318 316 316 316 314 310 308 307 309 309 311 310 310 311 312 311 312 310 313 315 312 314 313 310 309 309 306 306 306 305
310 311 310 313 314 312 316 316 313 313 315 317 318 321 319 319 317 316 315 313 312 308 307 308 306 309 308 309 311 310 308 309 308 309 311 310 310 309 310 309 307 307 306 305 305
313 310 309 313 312 311 315 314 309 313 312 313 314 315 315 315 316 315 315 313 308 308 310 306 306 308 308 307 307 309 310 308 311 311 310 309 311 307 305 305 305 306 306 306 306
312 307 309 313 313 310 311 311 311 312 312 312 313 312 311 312 313 312 314 309 307 308 309 307 305 307 310 311 310 306 308 309 306 307 308 307 308 306 306 307 308 308 306 303 305
307 308 306 307 307 312 313 312 310 308 310 309 309 309 310 310 309 310 312 309 307 309 307 307 307 308 311 310 309 309 311 309 307 305 307 308 308 308 306 307 306 306 305 305 305
306 310 307 308 309 310 312 312 310 308 307 308 307 308 308 309 309 308 311 309 307 311 308 306 309 309 309 309 309 309 309 308 307 306 308 308 308 307 306 306 306 306 305 305 304
308 308 304 305 306 309 308 310 308 307 307 307 307 308 306 306 307 309 309 309 310 309 309 305 307 308 308 309 308 308 308 307 307 307 306 306 306 307 307 306 304 303 305 304 304
309 307 309 305 307 308 308 309 308 305 306 306 306 306 306 306 304 304 304 304 306 309 309 307 307 306 308 310 309 309 310 310 309 308 308 308 307 307 306 306 305 304 303 303 302

GFSSW_925_thetae_054.txt.gz
Theta_e
318 319 319 321 322 320 319 318 317 316 317 315 315 312 311 310 310 319 323 324 318 315 315 322 324 324 324 327 329 327 325 325 326 324 322 320 320 318 317 318 319 320 321 323 325
318 319 319 320 320 319 319 317 317 318 316 315 314 311 311 310 314 322 324 319 313 314 316 321 322 322 323 328 328 327 325 324 324 323 321 322 320 319 318 318 318 319 319 320 322
317 317 318 319 318 318 318 318 317 316 315 315 312 311 310 309 326 327 319 315 314 317 319 320 321 321 325 326 325 325 326 323 325 321 321 321 320 320 318 319 316 318 318 316 315
318 317 317 316 316 316 315 315 315 315 314 313 311 310 309 313 324 317 313 314 315 318 319 321 321 322 326 326 324 325 324 325 324 320 319 320 318 317 318 319 314 314 315 312 311
317 317 317 316 316 315 315 315 314 314 313 311 310 309 314 324 325 314 314 316 317 320 320 321 321 322 325 323 323 324 322 322 320 320 319 318 318 317 315 314 313 312 311 309 308
315 316 316 316 315 315 315 314 313 312 311 311 309 309 320 325 315 314 314 316 318 319 319 319 318 318 321 320 322 322 320 320 320 319 320 319 317 317 314 312 313 311 309 308 308
313 315 315 315 315 315 314 313 312 311 310 309 309 315 322 322 315 314 314 315 317 319 321 318 319 318 318 320 319 318 320 318 319 318 319 318 319 317 313 311 312 310 307 306 307
313 313 314 315 315 315 313 312 310 310 309 308 308 319 322 316 314 314 314 315 317 318 319 317 319 318 319 318 316 317 315 317 316 318 319 317 318 316 312 311 311 309 306 306 305
314 314 315 315 314 313 312 310 309 308 308 308 315 320 320 313 314 314 315 315 316 317 317 318 319 319 316 315 315 314 313 314 315 318 318 316 317 317 311 312 311 307 305 306 304
313 315 315 316 313 312 310 308 308 309 309 313 319 319 317 313 314 314 314 316 316 316 318 319 316 316 315 314 313 315 316 315 318 318 318 317 315 316 312 311 311 307 304 304 303
314 315 315 311 311 310 308 308 314 318 317 316 318 315 313 314 315 315 315 315 315 315 318 318 316 313 313 316 315 317 316 316 315 318 318 317 317 315 313 310 310 307 305 304 303
313 313 312 310 309 308 308 316 316 316 316 317 315 314 313 314 316 316 317 315 315 315 316 315 316 314 317 318 318 318 318 317 318 319 318 317 317 316 314 313 312 310 306 305 303
311 311 311 310 308 307 308 316 319 320 312 316 316 314 314 316 317 317 317 317 316 317 316 315 319 319 319 319 320 319 319 319 318 318 316 317 317 316 315 313 311 310 307 305 304
308 308 308 308 309 312 310 319 320 320 312 316 316 316 315 317 318 316 315 317 318 317 318 316 318 319 318 318 318 319 319 319 319 317 317 315 315 314 313 313 311 310 307 305 303
307 307 308 308 315 317 318 319 319 318 317 316 317 316 315 318 318 319 316 317 319 320 316 317 318 318 319 319 318 318 318 318 318 316 315 314 315 312 314 315 311 309 308 306 303
307 307 307 309 311 318 317 319 319 313 321 318 317 317 316 317 318 318 316 314 315 316 316 317 317 317 318 317 317 317 316 314 314 313 315 313 312 310 315 315 312 309 308 307 304
307 307 308 317 317 317 318 316 308 319 319 320 317 317 317 317 317 318 316 315 315 317 317 317 317 314 315 316 316 314 312 312 316 319 318 314 313 310 311 310 312 310 308 306 304
307 308 312 315 315 316 318 315 321 320 321 319 319 317 318 318 318 318 317 314 309 312 311 316 318 315 314 315 316 316 313 313 318 320 317 310 316 313 309 307 305 308 307 305 304
311 314 314 315 314 316 312 317 319 319 318 320 319 319 320 317 318 318 316 312 308 308 312 310 315 311 310 310 313 314 313 310 311 308 308 308 312 309 309 307 305 306 306 306 305
313 313 313 313 315 316 314 318 314 314 315 318 321 319 319 317 316 316 314 313 310 307 307 307 308 311 310 309 310 311 310 311 308 310 314 310 310 311 310 309 307 307 306 305 304
310 309 310 313 314 311 312 314 313 312 313 316 318 319 318 316 315 315 314 311 310 308 306 306 305 307 307 308 309 308 308 308 307 308 310 309 307 307 308 308 307 306 304 304 303
310 309 309 312 310 307 314 313 310 312 311 312 313 315 315 314 314 313 314 312 307 307 308 305 304 307 307 306 307 308 307 306 309 310 306 306 311 307 305 305 305 305 305 303 304
310 305 308 312 312 308 309 310 310 312 311 312 312 311 310 311 312 312 312 308 306 308 308 306 303 305 308 310 309 305 306 307 306 304 306 306 306 305 304 306 303 305 304 303 304
304 307 305 304 304 308 311 310 309 307 309 307 308 308 309 309 308 311 311 308 306 308 308 306 304 306 309 311 308 309 309 307 305 303 305 306 306 307 305 306 305 304 303 303 303
303 308 305 306 307 309 309 310 309 307 307 307 307 307 308 309 308 310 310 308 306 311 307 305 305 308 307 307 308 308 308 308 306 305 306 307 306 305 304 305 304 303 303 303 302
307 306 301 303 304 306 307 308 307 306 306 306 307 307 305 306 306 307 309 308 308 308 307 303 304 307 307 309 308 309 308 308 307 306 305 305 306 306 303 303 303 303 302 302 301
306 305 304 304 304 306 305 306 306 304 305 305 306 304 305 305 303 303 302 302 307 307 307 306 306 305 308 307 308 306 310 309 309 306 307 307 306 304 305 305 304 303 302 302 301

GFSSW_925_thetae_057.txt.gz
Theta_e
318 317 317 318 320 321 320 319 318 317 316 316 316 315 312 311 312 311 318 320 323 316 315 320 323 321 324 326 327 325 324 324 325 323 322 319 319 317 316 318 319 319 321 321 324
318 317 318 319 320 320 320 319 318 317 317 316 315 314 311 310 313 319 314 322 317 316 316 320 321 320 322 327 326 326 324 323 321 321 319 320 319 318 318 318 319 319 316 320 322
316 317 318 318 318 319 318 318 317 317 316 315 314 312 311 310 323 321 315 323 320 316 319 320 320 320 324 325 324 324 329 323 324 320 320 320 319 319 317 318 317 319 317 314 315
316 316 317 317 317 317 316 316 316 315 315 314 313 311 309 315 317 317 315 314 316 317 319 321 320 321 325 325 323 326 323 323 324 321 318 320 317 318 317 318 314 315 313 311 310
316 317 317 317 317 316 315 315 315 315 314 313 311 310 313 322 323 315 313 315 316 319 320 322 320 320 324 323 322 324 322 321 319 319 318 318 318 317 316 313 311 311 310 308 308
315 316 316 316 316 315 315 315 314 313 313 311 311 309 318 322 316 314 314 315 318 319 319 318 319 317 319 320 322 321 319 319 319 319 319 319 317 316 314 311 310 310 308 306 306
313 314 315 315 315 315 315 314 313 312 311 310 309 312 320 321 314 314 314 314 318 319 321 318 318 317 317 320 317 318 320 317 318 318 318 316 317 316 313 310 311 308 306 305 305
312 313 314 314 315 315 315 313 312 311 310 309 309 316 320 319 314 313 314 315 317 318 319 317 318 318 318 316 314 315 314 316 315 317 318 316 316 316 311 310 310 307 305 304 304
312 313 314 315 315 315 313 311 310 310 308 309 313 318 320 313 313 313 314 315 316 317 317 318 319 319 316 314 313 313 313 314 314 316 318 316 317 315 310 311 310 307 304 304 303
312 313 314 315 316 314 311 309 309 309 310 311 316 318 317 313 313 313 314 315 315 315 318 318 314 316 314 311 313 313 315 313 315 317 317 317 315 314 311 310 310 307 304 304 302
313 313 314 316 314 311 309 311 313 317 316 317 317 315 315 313 314 315 315 315 314 314 317 316 315 312 314 314 313 315 315 315 314 316 318 316 316 315 312 310 309 307 305 303 302
313 314 314 314 311 311 312 313 314 314 315 316 317 316 313 314 317 315 316 315 315 314 316 315 315 313 314 317 317 317 316 315 315 318 317 316 316 315 313 312 311 310 306 304 302
310 310 311 313 312 311 309 310 317 316 311 316 316 316 316 315 317 317 316 315 315 315 315 314 317 317 317 318 318 318 317 317 317 316 315 315 316 315 314 312 311 309 307 305 303
307 308 308 311 311 311 311 315 318 318 309 316 317 317 316 317 317 316 314 316 317 315 315 316 316 318 317 318 316 318 317 318 318 316 317 315 317 313 312 311 311 308 305 304 302
307 308 308 308 313 315 318 318 318 315 315 314 318 316 314 316 317 318 315 316 318 319 315 316 318 318 318 318 317 317 317 316 316 314 315 313 313 311 312 314 312 308 306 304 302
307 307 307 309 311 317 316 317 316 311 319 316 316 316 315 316 317 316 314 312 314 315 315 316 316 316 317 316 316 316 314 312 313 312 314 312 311 312 314 313 310 310 307 306 303
307 307 307 315 317 315 316 313 308 319 318 318 316 316 315 317 317 317 315 311 313 314 315 316 317 314 314 316 315 312 310 312 313 316 314 313 311 311 309 309 308 308 308 306 304
307 307 309 311 315 315 315 314 319 318 319 318 317 315 317 316 317 317 315 312 308 311 311 314 316 315 312 314 314 314 310 311 315 318 318 311 314 313 309 305 304 305 307 306 304
308 311 313 315 314 314 311 315 317 318 316 319 318 318 318 316 317 317 314 313 308 307 314 310 313 310 310 310 312 313 314 310 309 307 308 308 308 310 307 305 304 305 307 307 305
313 312 313 312 314 314 313 317 314 313 314 317 319 317 318 317 317 315 314 312 309 306 306 307 309 309 309 309 309 311 308 310 307 310 311 309 308 311 307 307 305 306 307 307 305
310 309 310 312 313 309 311 313 312 311 312 316 317 318 317 316 313 314 314 310 309 307 305 305 305 307 307 308 308 308 309 306 306 307 310 309 306 305 307 307 308 307 302 302 302
308 308 308 311 309 305 312 312 310 311 311 312 313 313 315 314 312 312 314 311 307 307 307 304 302 305 306 305 306 307 307 305 305 307 304 304 310 306 303 303 303 304 303 302 301
308 304 307 311 310 309 308 309 309 311 310 311 311 311 310 310 311 312 311 307 306 307 306 304 302 303 307 308 308 305 305 305 304 303 306 306 306 303 303 304 302 302 301 300 301
302 306 304 302 302 308 309 310 309 307 309 307 308 308 309 309 307 311 309 307 306 307 309 304 302 304 306 310 308 308 308 305 304 302 303 304 305 306 304 303 301 302 301 301 300
302 306 304 306 308 307 309 308 308 308 307 306 306 307 308 308 307 310 309 306 306 310 306 302 302 305 306 306 307 307 307 307 305 304 306 306 305 305 303 302 303 303 301 301 301
306 305 299 301 303 307 307 308 307 306 306 307 307 306 304 307 306 306 308 306 308 307 306 302 303 307 307 308 307 309 307 307 306 305 303 304 304 303 304 303 303 302 302 303 302
304 303 302 302 302 304 304 306 306 304 304 304 305 304 304 304 302 302 302 303 305 305 305 305 305 304 309 305 307 307 308 308 308 305 306 306 305 305 305 304 303 303 301 301 300

GFSSW_925_thetae_060.txt.gz
Theta_e
318 317 318 318 318 319 320 320 319 319 317 316 316 316 315 312 311 312 316 314 321 321 316 318 322 321 323 326 326 321 323 323 324 321 321 317 319 317 316 318 318 317 320 320 320
316 318 317 317 318 320 320 320 319 318 317 316 316 315 314 311 310 317 318 315 321 317 317 320 320 320 322 326 324 324 324 323 321 320 319 318 319 317 318 320 320 318 316 320 317
314 318 318 318 318 318 319 318 317 317 316 316 315 314 312 310 320 317 317 316 320 316 318 319 320 319 324 324 324 324 328 322 323 320 319 319 318 317 316 318 319 320 316 314 312
315 316 318 318 317 317 317 317 316 316 315 315 314 313 311 314 318 316 319 320 316 317 319 321 324 321 325 325 322 326 322 322 322 319 319 319 317 318 316 317 314 315 312 311 307
313 316 316 317 317 317 316 315 315 315 315 314 313 312 310 321 320 316 313 314 315 318 321 324 324 322 324 323 321 324 322 319 318 318 317 316 317 317 316 312 311 311 311 309 306
313 316 316 316 316 316 315 315 315 314 314 313 312 311 316 322 317 314 313 315 317 319 320 320 321 318 319 319 321 319 318 318 318 318 318 319 316 316 314 310 310 310 308 306 305
312 314 315 315 315 315 315 315 314 314 312 311 311 311 319 322 315 313 313 314 317 319 320 319 318 321 317 320 317 316 320 316 317 317 318 315 315 316 312 309 309 308 305 305 305
311 312 313 314 315 315 314 315 314 313 311 310 312 314 320 318 315 312 313 315 317 319 319 317 318 317 318 314 313 315 313 318 314 317 317 315 315 314 310 310 309 306 304 304 303
311 313 313 314 314 314 316 315 311 310 309 312 312 317 319 314 313 313 314 314 316 317 317 318 319 316 315 314 313 312 317 314 314 316 317 315 315 314 309 310 310 305 303 303 302
311 312 313 314 314 314 315 311 309 309 311 315 314 317 315 312 313 313 314 315 314 316 317 317 313 317 313 313 319 315 314 313 313 316 317 317 315 313 311 309 310 307 303 302 301
312 312 312 313 313 314 311 310 311 314 315 316 318 316 314 313 314 314 314 314 314 314 314 315 312 316 324 316 312 311 314 315 314 314 317 315 315 314 311 309 309 307 305 303 301
312 313 313 314 314 312 311 310 312 313 315 313 315 316 314 314 315 315 315 315 315 314 314 314 312 312 313 314 316 316 316 315 314 317 317 316 315 314 312 311 310 309 307 305 302
313 312 313 313 312 310 310 308 314 312 311 316 316 314 315 316 317 316 316 315 314 314 315 314 316 315 316 316 317 317 316 316 316 316 314 314 315 314 312 311 311 309 307 305 303
312 308 310 311 310 309 311 313 316 315 311 315 316 316 316 317 318 315 314 315 316 314 312 315 316 317 316 317 316 317 316 317 318 316 316 314 315 312 311 311 311 309 305 305 302
310 308 308 310 313 314 317 316 316 313 317 314 316 315 315 316 315 317 313 316 317 317 314 315 317 317 317 317 316 316 315 315 315 313 314 313 313 310 310 313 310 309 306 304 302
308 307 308 311 311 314 314 316 315 313 316 316 316 317 317 316 318 315 314 311 313 313 313 316 314 315 316 314 315 313 311 311 312 312 312 312 310 311 311 312 307 307 307 305 303
307 308 308 309 317 316 314 310 311 319 317 317 316 315 314 317 316 315 312 309 312 311 313 314 315 313 314 315 314 311 312 314 310 315 311 312 311 311 308 307 305 303 303 306 304
307 307 309 309 312 313 313 313 318 317 318 316 315 314 315 316 316 316 314 311 307 310 310 313 315 314 310 313 313 313 311 311 313 315 315 311 314 312 307 304 303 304 305 306 306
308 308 310 314 313 314 309 313 316 318 315 317 316 316 317 315 316 315 313 312 307 306 313 312 312 309 309 309 311 313 314 309 308 305 307 308 307 309 304 304 303 304 304 305 304
311 311 312 311 313 313 312 316 314 312 313 316 318 316 318 316 317 316 314 311 308 306 306 307 310 308 308 308 308 310 307 310 306 310 309 307 307 309 307 306 304 302 300 301 301
309 309 309 310 312 308 310 313 312 311 311 316 317 317 316 316 313 313 313 310 308 306 305 304 305 306 306 307 307 308 308 305 305 305 310 309 305 303 306 305 303 300 300 300 300
307 310 307 311 310 304 312 311 309 311 310 311 312 313 315 312 312 312 313 311 306 306 306 303 302 304 306 304 305 307 308 305 307 305 303 302 308 305 303 301 302 300 300 300 299
308 303 306 310 309 309 307 309 308 311 309 311 311 310 309 310 312 312 311 306 305 306 306 303 301 302 304 306 307 305 305 304 302 303 305 306 306 302 302 300 299 300 300 300 300
302 306 303 301 301 308 309 310 309 306 308 306 308 307 308 308 307 310 308 306 306 307 310 303 301 302 305 309 307 308 306 304 303 301 302 303 304 305 302 302 302 302 300 300 300
301 304 303 306 308 306 308 308 308 309 306 305 306 307 308 308 307 310 308 305 305 310 304 300 302 304 305 305 306 307 307 304 304 303 305 305 303 304 303 303 303 302 301 302 301
305 304 298 300 302 305 307 307 307 305 307 307 306 305 304 306 305 306 307 305 306 306 304 300 303 306 307 307 306 308 307 305 305 305 302 303 303 303 303 302 302 301 301 302 301
303 303 301 300 301 305 304 306 307 303 303 304 304 303 303 304 302 301 301 301 304 304 304 303 304 305 309 304 305 308 306 307 307 304 305 305 304 303 305 304 303 302 301 299 299

GFSSW_925_thetae_063.txt.gz
Theta_e
314 318 319 318 318 318 319 320 320 320 319 317 316 316 316 314 312 310 315 317 317 318 322 318 322 320 322 328 327 323 334 331 329 324 325 318 320 318 317 321 320 319 323 324 321
312 314 318 318 318 318 320 320 320 319 317 316 316 316 315 312 310 314 316 317 316 318 322 319 321 320 325 328 327 330 335 333 325 323 323 319 320 320 321 322 323 321 319 319 317
313 316 317 318 318 318 318 318 317 317 317 316 316 315 313 311 317 316 319 320 320 318 320 320 320 319 325 326 325 327 336 325 323 322 320 321 320 318 320 322 323 325 323 317 316
313 314 315 316 318 317 317 317 316 316 316 316 315 314 312 312 319 316 319 317 320 317 319 322 325 324 326 327 323 328 322 323 323 321 321 321 319 319 318 319 315 321 320 315 316
312 312 316 316 317 317 317 316 315 315 315 314 314 312 311 319 316 318 314 317 315 317 320 326 326 325 327 322 323 324 323 320 319 319 318 318 318 319 319 314 316 317 316 313 313
312 311 316 316 316 316 316 315 315 315 314 313 313 312 315 316 316 315 313 314 316 319 320 321 324 323 323 320 323 320 320 319 318 319 318 319 317 317 316 313 315 316 316 311 310
312 312 314 315 315 315 315 316 315 314 313 312 312 313 318 315 318 313 312 314 316 319 320 319 319 322 320 320 320 318 321 317 318 318 319 317 317 319 314 313 315 314 314 310 308
311 313 312 312 313 314 314 316 314 313 312 311 313 316 314 314 316 315 312 314 318 319 319 318 319 322 320 316 315 318 317 324 317 318 317 316 322 315 313 314 315 313 311 310 307
310 311 313 313 313 314 314 315 313 311 310 311 315 316 318 316 312 312 313 314 316 317 317 318 319 319 316 318 319 315 325 319 319 317 318 317 319 315 312 313 314 312 310 309 308
311 311 312 313 313 314 314 312 309 310 312 314 316 316 314 312 312 313 314 315 314 318 317 317 318 317 315 320 329 324 317 314 317 316 318 318 319 316 313 313 315 312 310 308 308
311 312 312 312 313 314 313 309 308 313 314 312 316 317 313 313 313 314 314 314 314 316 317 315 318 320 320 320 315 316 316 316 314 314 318 318 317 318 315 313 314 313 310 308 307
311 312 313 312 313 314 312 308 309 312 315 313 313 315 315 315 315 314 314 314 314 315 317 318 317 317 319 318 319 317 316 316 315 316 318 317 318 318 314 314 313 313 311 309 306
312 313 313 313 313 313 311 308 311 311 315 314 315 315 314 315 316 315 315 313 314 317 316 315 318 315 317 316 317 316 316 315 317 316 315 316 318 316 313 312 312 311 311 310 308
313 313 313 313 313 310 310 311 314 313 313 314 315 316 316 317 317 314 314 315 316 316 314 315 316 316 316 317 316 318 316 317 317 318 319 314 319 315 311 314 311 311 309 309 308
313 313 314 313 311 313 316 314 314 312 319 315 317 315 317 316 316 315 312 316 317 316 314 315 316 316 317 316 315 317 315 316 315 315 315 315 316 314 312 315 312 309 309 307 306
309 313 313 313 312 310 313 314 313 317 318 317 317 317 317 317 317 314 314 311 312 314 314 315 313 314 315 313 314 314 312 312 313 314 316 313 313 314 313 311 309 308 307 308 306
308 310 313 310 315 315 312 311 316 321 315 316 316 314 316 319 318 315 311 309 313 314 315 314 314 312 313 315 313 312 316 319 315 317 315 312 313 314 310 308 306 306 307 308 306
309 309 310 308 309 310 311 313 319 317 317 315 315 315 315 316 315 315 314 311 307 310 312 313 313 313 310 313 315 313 316 317 315 315 317 311 316 314 307 305 305 306 307 307 306
308 309 309 312 311 312 310 311 316 317 314 318 315 315 317 315 316 314 313 311 307 307 313 313 313 309 308 309 311 313 316 310 311 306 310 311 309 309 306 306 304 304 305 304 304
308 309 311 310 312 311 311 315 313 311 313 315 316 315 317 315 316 315 314 310 308 305 305 308 310 307 308 308 307 311 309 313 311 314 310 310 309 313 309 307 304 304 304 303 303
308 308 308 310 311 308 310 311 312 310 310 315 316 316 315 315 314 313 312 310 308 305 304 304 307 306 306 308 311 310 310 307 308 308 313 312 311 305 307 305 304 303 302 303 303
305 310 306 310 310 303 311 311 309 310 309 311 312 313 315 312 312 311 313 310 305 305 306 303 304 307 306 303 304 306 308 308 313 309 305 308 312 305 303 303 303 302 302 302 302
307 305 306 309 309 308 307 309 308 310 307 310 310 309 308 309 313 311 310 305 306 305 305 303 303 305 306 307 306 305 305 304 304 306 308 312 311 302 302 302 302 303 303 303 303
302 306 303 302 301 309 309 310 309 306 307 306 307 307 308 308 308 310 307 306 305 308 309 304 301 304 309 309 307 307 304 305 306 309 308 309 308 305 304 303 304 303 303 303 303
300 304 302 307 308 306 307 308 308 309 306 304 306 307 308 308 307 309 307 304 306 309 303 301 303 303 304 304 306 307 307 304 305 304 309 308 305 305 304 304 304 303 302 303 304
304 304 298 299 302 305 307 307 307 305 306 307 305 304 304 306 307 308 306 304 305 305 303 301 305 305 306 306 306 308 308 306 305 304 303 303 305 302 303 303 304 303 303 303 302
303 301 302 300 301 304 304 306 307 302 303 303 303 302 304 304 302 302 301 301 304 304 304 304 305 308 312 304 306 310 307 307 307 305 305 308 306 304 304 304 305 304 302 302 301

GFSSW_925_thetae_069.txt.gz
Theta_e
314 315 315 317 319 319 317 318 319 319 319 317 316 317 316 315 314 318 318 317 320 320 319 324 324 326 328 332 336 337 343 343 341 339 337 332 335 327 325 327 328 333 333 338 341
314 316 315 316 318 318 318 317 318 317 317 317 317 316 315 314 318 317 315 315 316 317 321 326 327 327 330 334 337 337 343 342 339 337 336 330 332 327 325 326 330 331 330 336 341
315 317 314 313 314 317 318 317 317 317 317 319 317 315 314 314 318 314 317 313 313 317 322 325 325 327 330 334 336 337 342 340 336 335 333 330 328 327 327 330 330 331 330 334 337
314 315 313 312 316 317 317 317 317 317 317 317 315 314 313 318 316 320 315 317 315 320 322 326 329 330 331 335 336 336 338 336 333 329 330 329 328 327 328 331 327 328 329 333 337
315 313 314 312 316 316 317 317 316 316 317 316 314 313 316 317 316 315 316 327 325 323 323 327 334 332 334 334 335 334 335 331 330 328 328 328 329 329 328 327 324 325 329 332 334
314 313 313 313 315 315 315 315 315 316 316 315 314 313 318 319 314 314 316 326 326 323 324 326 334 334 332 331 331 330 332 329 326 327 327 328 328 325 329 326 325 326 329 330 332
313 313 312 313 313 314 314 314 314 315 314 315 315 317 318 318 314 318 317 316 322 323 325 326 331 332 333 331 327 328 329 328 328 327 328 327 329 328 328 324 325 326 327 329 331
312 312 311 313 312 312 313 313 314 314 315 317 315 317 319 315 314 314 315 317 316 319 324 325 326 333 331 326 326 330 332 334 328 326 325 324 338 330 324 323 324 326 327 328 328
311 312 311 311 313 312 313 313 313 314 314 313 317 317 318 315 315 314 317 316 318 320 322 325 327 330 328 331 332 329 340 340 339 327 327 324 334 324 322 322 324 324 325 327 326
311 311 312 311 312 313 313 313 313 314 314 315 315 318 317 318 318 317 318 316 320 322 323 326 330 333 331 334 340 339 338 340 340 337 324 327 328 328 322 322 322 323 323 324 325
311 311 312 312 312 312 313 316 316 318 314 316 316 316 318 317 315 315 315 318 320 323 328 327 333 336 337 334 334 336 337 337 335 320 321 325 327 326 323 323 323 322 322 322 322
311 311 312 312 312 312 313 316 314 315 319 318 315 314 315 315 317 316 316 319 321 325 328 327 334 334 335 335 334 332 334 336 330 321 321 331 329 324 322 322 321 321 322 322 321
312 312 312 312 312 313 315 315 313 314 320 319 318 317 317 317 318 317 318 319 321 325 331 331 331 329 336 328 328 330 332 331 328 324 323 322 323 322 321 320 319 319 320 320 321
311 312 312 313 314 314 316 314 315 316 325 319 319 318 318 320 318 318 318 319 319 323 328 332 324 325 328 333 330 335 328 325 324 322 322 321 321 321 320 321 318 318 319 319 320
311 311 312 312 317 319 318 316 315 317 326 318 318 317 319 321 318 318 317 320 320 322 325 324 321 324 329 327 328 330 322 322 323 322 321 320 321 319 320 321 318 318 318 318 318
311 312 308 315 315 316 315 313 316 328 323 320 318 319 320 321 319 319 319 320 321 320 321 322 321 322 323 321 321 321 322 322 322 321 321 319 322 320 321 318 316 318 317 317 316
312 311 311 315 320 315 313 317 324 323 318 319 319 319 321 322 319 318 318 321 320 323 325 321 321 319 320 321 321 321 322 323 325 326 321 320 319 320 317 315 317 317 316 316 315
310 310 313 313 314 314 315 321 325 322 320 319 318 318 321 320 320 319 320 320 318 319 323 323 322 321 318 321 322 321 321 321 320 320 322 320 320 321 314 315 316 316 316 315 315
311 313 314 314 315 315 320 323 321 320 319 321 317 320 323 318 320 320 320 320 317 316 322 324 321 315 316 318 319 321 319 320 320 319 319 318 319 315 314 314 315 315 315 314 313
314 312 312 314 313 316 320 322 320 316 316 317 322 319 324 321 320 321 319 317 317 313 314 318 320 316 315 316 317 320 318 320 320 319 321 320 317 318 315 314 313 313 313 312 312
313 314 313 311 315 318 319 319 318 315 315 318 321 321 320 320 320 321 320 316 314 314 313 316 318 316 315 318 321 318 319 318 319 319 319 319 319 317 316 314 313 313 312 312 311
312 314 310 312 318 319 317 318 310 316 315 316 318 320 321 319 320 321 319 318 311 312 317 314 319 318 317 312 312 316 319 319 319 319 316 317 316 313 314 313 313 312 311 311 310
313 314 310 313 319 321 319 316 315 316 316 316 317 317 317 320 322 320 318 311 311 312 314 314 316 316 315 313 311 313 315 315 316 316 317 318 318 312 312 312 311 312 311 311 310
315 315 314 314 316 318 318 318 316 312 314 312 314 313 316 318 317 319 316 312 311 314 310 312 315 316 318 319 316 313 313 313 314 317 318 318 317 313 312 312 311 311 311 310 310
313 315 314 316 316 317 316 316 316 316 312 311 313 313 315 316 317 317 315 312 313 313 311 313 314 311 311 311 312 313 313 313 313 315 316 316 314 314 313 313 312 311 310 310 309
315 314 312 314 313 315 315 316 316 316 314 314 313 313 313 315 315 317 315 314 313 311 311 311 314 312 313 312 312 313 313 313 313 313 313 313 314 314 314 311 311 310 310 310 310
311 313 312 312 313 314 316 316 316 315 310 310 311 312 312 311 311 312 312 311 312 312 311 311 314 316 319 315 315 318 317 317 316 314 314 314 314 312 311 310 310 310 310 309 308

GFSSW_925_thetae_072.txt.gz
Theta_e
316 316 317 316 317 318 319 317 317 317 317 317 317 317 316 315 314 318 317 317 319 319 319 322 325 326 327 334 336 339 349 349 345 343 340 335 335 329 325 327 328 330 337 337 341
316 316 317 316 316 315 318 318 317 318 318 318 317 316 315 314 319 317 315 315 316 316 318 323 329 329 332 336 339 340 348 346 342 339 337 335 335 327 325 325 328 331 333 342 342
315 316 317 316 314 317 317 318 318 319 319 320 317 315 314 314 319 316 317 318 315 314 318 321 325 329 332 335 339 341 342 342 341 339 335 333 334 328 326 329 329 330 330 336 341
315 316 316 315 313 317 317 317 318 318 319 319 316 315 313 318 319 318 315 316 317 318 318 323 326 331 334 335 338 342 338 339 337 334 333 332 330 328 328 331 326 327 329 333 335
314 315 315 315 313 316 316 316 316 317 318 317 317 317 317 317 318 315 314 316 327 324 319 325 329 333 336 335 337 340 339 336 332 331 330 330 330 329 328 327 324 326 330 331 332
313 315 315 314 314 314 315 314 314 315 316 315 315 317 318 319 316 316 314 316 327 323 322 326 329 334 336 336 336 332 337 333 329 329 329 329 330 327 329 327 325 325 328 329 330
313 314 315 313 313 312 312 313 314 314 314 313 316 318 318 318 316 316 316 318 318 326 325 325 327 335 336 335 330 331 334 332 332 331 328 326 331 328 328 326 325 325 325 327 329
313 313 313 312 312 314 313 312 313 313 313 313 317 317 318 316 316 316 315 316 317 320 324 325 327 333 336 329 329 333 333 338 331 329 326 326 335 328 326 325 324 324 323 326 328
312 312 312 311 311 311 312 312 313 313 313 314 317 317 319 316 317 316 314 316 318 317 320 325 328 332 336 334 334 334 340 341 334 333 329 328 331 325 322 323 323 323 323 325 325
312 311 311 312 312 312 313 312 312 315 315 317 316 317 316 319 317 316 314 317 318 320 324 326 329 334 334 336 343 338 336 339 341 341 336 335 330 327 329 322 322 321 321 323 324
311 311 311 312 312 312 313 316 317 320 316 317 317 316 316 316 316 317 318 318 319 323 327 327 332 337 332 334 336 336 337 339 332 328 335 337 331 331 329 322 323 322 320 319 322
312 311 311 311 312 312 312 318 314 315 318 318 318 317 315 314 316 317 316 317 322 325 326 329 334 333 333 332 334 335 337 340 334 322 325 330 333 332 330 323 320 319 319 319 320
312 311 311 312 312 314 315 316 316 317 321 321 319 319 318 317 318 317 317 319 321 324 327 332 331 331 332 335 335 335 334 335 332 325 329 330 325 324 321 320 319 318 319 319 318
311 311 312 311 315 318 318 318 317 316 326 320 319 318 317 319 319 318 317 320 321 324 328 329 328 330 337 335 333 334 331 331 331 327 332 322 324 322 320 320 318 317 317 317 318
311 310 312 311 315 318 317 316 315 318 326 319 319 317 319 321 319 317 318 321 321 323 328 331 328 330 332 333 332 330 326 330 331 326 323 323 322 320 319 320 317 317 317 317 316
312 311 312 314 316 317 317 315 315 329 323 321 318 319 319 320 319 318 318 320 322 322 324 323 323 327 328 322 322 323 324 323 322 322 322 320 320 320 319 316 316 316 316 316 316
313 314 312 314 319 316 315 316 327 329 321 321 319 320 321 322 320 316 318 320 322 324 325 322 322 321 323 325 323 323 323 328 329 326 325 320 320 319 315 316 317 315 314 314 315
312 313 313 314 314 315 316 321 329 321 322 320 319 318 322 321 320 319 318 322 321 322 327 325 323 322 322 322 323 322 323 324 325 326 324 320 320 316 314 315 315 314 314 313 313
310 310 314 315 316 316 319 326 321 320 319 321 322 322 325 323 320 320 320 322 318 316 320 327 321 316 317 318 318 322 320 320 320 318 318 319 316 314 314 315 315 313 313 313 312
314 316 315 314 315 317 320 322 320 317 318 322 326 322 325 324 321 321 321 318 319 314 314 319 319 318 316 317 317 320 318 321 319 319 322 320 319 317 314 314 313 312 311 311 310
313 315 315 315 315 318 320 319 318 317 316 318 321 323 324 325 322 322 321 317 315 317 316 317 318 317 317 319 320 318 319 318 318 320 319 318 317 315 313 312 312 311 310 310 309
313 315 312 314 318 319 320 318 311 317 316 316 318 321 322 319 321 322 321 319 313 314 318 316 319 318 316 312 313 316 319 318 319 319 317 316 317 313 312 312 311 311 311 310 309
314 314 312 313 317 320 320 318 316 316 317 316 317 318 318 320 322 321 319 312 313 315 316 314 317 316 315 313 312 314 316 317 316 317 318 317 315 311 311 311 311 310 309 309 309
313 316 314 313 314 315 318 319 319 314 314 314 314 314 317 318 319 321 318 313 313 315 313 312 317 316 319 319 315 313 314 314 314 315 315 317 314 312 311 311 310 310 309 308 309
312 312 315 315 316 314 316 318 318 318 314 313 314 314 315 317 317 318 316 313 313 313 312 313 317 312 311 311 311 313 314 313 313 313 314 315 315 312 311 310 309 309 309 309 308
312 315 314 314 314 313 314 317 317 317 315 316 314 314 313 315 314 317 317 315 315 312 312 312 316 312 313 312 313 313 313 313 313 313 312 313 313 311 310 309 310 309 309 309 309
311 311 312 315 315 314 313 315 317 316 313 312 311 313 313 312 312 312 312 311 312 312 312 312 314 316 319 316 316 318 316 316 315 314 314 313 314 311 310 310 310 309 309 309 306

GFSSW_925_thetae_075.txt.gz
Theta_e
316 317 316 318 317 316 315 318 317 317 317 318 319 318 316 315 314 314 317 312 316 319 319 318 322 324 326 328 331 335 342 346 344 344 339 333 329 325 324 327 328 331 335 334 337
315 315 316 317 316 316 315 317 317 318 318 319 319 317 315 314 315 317 315 314 314 314 320 318 322 325 327 329 333 335 340 340 340 338 337 333 328 324 323 324 329 331 337 337 339
314 316 316 316 316 316 316 316 317 318 318 319 317 315 314 314 318 317 318 321 320 315 317 316 318 322 327 330 334 336 337 338 339 338 335 334 328 325 321 323 326 329 339 339 339
313 315 316 315 316 315 316 316 316 317 319 319 318 318 314 315 312 317 315 314 319 318 319 318 322 325 329 330 331 338 338 339 336 334 332 332 327 325 323 327 324 325 332 336 337
313 314 315 315 315 313 314 315 315 317 318 316 315 318 316 317 317 310 313 314 315 324 318 318 323 325 331 331 334 337 338 339 329 331 332 329 327 326 325 322 322 325 330 333 333
314 313 315 315 313 313 312 313 314 314 314 313 314 317 318 318 314 314 316 316 316 326 322 317 323 325 331 333 334 334 336 335 330 331 330 327 327 327 327 321 321 326 328 328 330
313 314 314 313 312 312 312 312 312 313 313 314 317 318 317 317 312 312 314 314 315 317 321 318 320 325 332 333 328 328 331 329 330 331 329 329 332 328 325 322 321 321 323 326 327
313 314 313 311 312 311 311 311 312 312 313 314 316 318 316 312 315 315 316 316 315 316 317 321 323 324 327 327 328 330 331 332 331 329 325 329 335 326 321 323 323 322 321 323 325
313 313 311 311 312 312 312 312 312 312 313 314 317 317 318 317 317 316 316 316 315 315 317 321 323 326 333 329 329 332 333 336 328 329 329 331 329 328 331 325 319 320 319 322 324
312 311 311 311 312 312 312 311 315 315 316 317 317 316 315 318 315 314 316 315 315 317 317 320 324 328 333 330 334 332 334 335 336 336 333 331 334 334 334 332 326 319 318 321 322
311 312 311 311 311 311 309 317 313 317 317 315 317 316 316 315 314 314 316 314 315 317 321 323 327 331 334 332 333 331 331 334 334 338 338 339 336 332 326 325 321 319 318 317 319
312 312 312 311 311 312 313 316 316 315 318 317 317 317 316 317 316 315 316 314 316 321 323 325 329 329 331 333 334 335 335 337 329 324 324 331 330 327 328 327 319 318 317 317 315
311 311 312 312 311 316 317 316 316 316 318 320 320 319 319 318 318 317 315 315 319 321 324 326 327 329 332 332 334 334 334 334 334 328 323 326 326 324 323 318 317 316 317 316 316
306 310 311 312 316 314 318 317 314 316 321 322 320 319 317 319 321 317 318 319 319 321 323 326 328 329 331 333 333 334 330 331 324 325 329 324 324 318 318 316 315 314 314 314 314
307 307 309 311 311 313 318 315 315 317 323 320 319 317 318 320 320 317 318 320 321 322 325 331 330 329 332 334 331 333 327 328 326 324 319 321 318 315 316 316 316 314 314 314 313
308 307 307 314 313 317 316 315 316 327 327 321 319 320 319 319 320 318 319 319 320 323 325 327 325 326 323 323 327 323 323 323 319 318 318 318 318 315 315 314 315 314 313 313 312
308 307 307 307 314 313 314 315 323 326 322 321 321 320 322 322 320 317 318 320 322 325 326 323 321 321 325 323 323 321 321 323 324 319 318 315 317 315 313 313 312 312 312 312 309
306 307 308 308 310 310 315 317 327 320 321 320 322 321 323 322 320 318 318 320 321 320 325 322 322 321 323 325 320 322 319 323 326 324 323 317 316 314 313 312 311 310 310 309 309
306 310 314 310 314 316 313 321 323 319 320 321 320 322 323 323 321 319 318 319 315 318 323 327 319 317 317 319 319 321 320 318 316 316 315 316 313 312 313 313 311 310 309 309 308
308 311 314 315 315 316 316 320 318 317 320 321 322 322 324 322 323 319 320 317 318 314 314 319 317 316 316 316 316 318 317 315 314 316 318 316 313 313 312 312 311 309 308 308 306
312 310 314 315 315 313 318 316 317 315 316 318 322 323 322 325 321 321 320 317 313 315 313 315 318 317 315 316 317 314 317 316 314 316 316 314 313 310 310 311 310 308 307 307 305
311 311 313 315 313 313 314 317 314 316 315 315 316 318 321 318 319 320 322 320 313 313 314 313 314 314 314 311 311 314 316 314 314 315 313 312 313 308 309 309 309 307 307 306 305
311 308 312 313 312 312 312 314 315 315 315 315 316 316 316 319 321 321 317 312 312 314 315 312 313 312 312 311 309 312 314 315 313 312 314 313 312 308 307 307 307 307 306 306 305
308 311 307 307 308 312 312 312 315 313 313 314 313 313 314 316 317 319 316 313 311 314 313 311 313 312 316 316 311 310 312 314 311 310 310 311 311 309 308 308 307 307 306 305 306
306 307 308 309 310 310 310 311 313 315 312 311 311 312 313 313 315 317 314 312 312 314 311 310 312 310 309 310 310 311 312 312 311 310 311 312 311 309 307 307 306 306 305 305 306
307 310 308 310 310 312 310 310 312 314 314 313 312 312 311 312 312 313 315 313 313 311 310 308 312 311 311 311 311 312 312 311 311 311 311 311 312 310 307 305 306 306 306 305 304
310 311 307 308 309 312 312 312 313 311 311 310 309 309 311 311 310 310 309 308 310 309 309 308 310 313 316 315 315 314 314 313 312 312 311 312 310 308 308 307 306 305 305 304 302

GFSSW_925_thetae_078.txt.gz
Theta_e
315 316 316 317 317 315 316 316 317 316 318 318 319 318 316 314 314 314 316 310 311 314 317 320 318 322 324 325 329 333 340 345 345 346 342 332 327 323 324 327 328 332 333 333 334
314 315 316 316 316 314 315 317 316 316 318 319 320 319 316 314 314 316 312 319 318 311 317 321 319 319 325 326 330 333 337 340 338 337 337 332 326 323 324 327 330 337 333 334 334
314 314 315 316 316 315 316 316 316 317 319 319 319 319 315 314 317 314 321 321 319 326 324 318 317 320 325 328 330 334 336 338 336 335 335 331 325 323 322 325 327 337 335 334 334
314 314 315 315 315 316 315 315 316 317 318 318 318 318 316 315 308 314 317 316 313 315 329 318 317 321 327 328 328 337 336 338 337 332 331 331 327 322 322 322 323 334 335 335 335
314 314 314 315 315 315 314 313 313 314 316 317 317 318 316 316 315 310 311 312 314 319 323 316 319 323 328 327 330 333 337 339 334 330 327 327 326 324 325 322 321 333 336 337 336
314 314 314 314 313 311 312 312 313 313 313 313 316 318 317 316 312 311 312 314 315 315 323 316 319 321 327 330 331 333 336 337 329 330 332 326 329 329 324 321 324 333 335 334 335
314 314 314 313 311 311 312 312 312 313 312 313 317 317 316 315 311 313 314 313 313 314 317 319 315 319 326 332 330 328 334 328 329 328 329 332 327 328 321 320 325 327 329 330 330
313 314 313 312 312 313 313 312 311 311 313 316 317 316 315 311 315 316 316 315 314 315 316 316 318 321 324 325 327 329 328 331 330 326 325 332 332 329 328 322 321 323 323 325 326
312 311 311 311 311 311 311 309 312 312 312 316 317 316 316 313 315 315 315 316 314 315 314 315 322 323 324 327 329 331 332 332 327 327 330 331 332 327 330 327 322 318 318 321 323
311 311 312 311 311 310 311 317 315 316 316 318 317 316 314 317 315 315 315 315 315 314 316 316 320 324 330 327 335 332 332 332 328 329 330 330 329 332 333 334 332 326 318 318 323
310 309 309 309 308 312 315 317 313 314 315 316 317 317 316 315 316 315 316 315 314 315 316 320 323 328 331 330 328 329 331 332 333 334 333 329 334 333 332 330 329 325 315 316 320
310 308 308 307 315 317 316 315 315 314 316 316 316 316 315 316 317 317 314 313 314 316 318 324 326 326 330 333 332 332 331 333 325 336 333 336 337 336 331 327 325 319 316 315 315
309 307 307 307 317 312 314 316 315 314 316 318 319 318 318 317 319 317 314 314 316 318 323 324 325 326 331 334 335 334 334 331 329 329 325 326 327 325 325 320 317 316 314 314 315
310 306 307 308 315 314 317 317 316 315 319 320 319 318 317 319 319 317 317 318 320 321 323 324 324 328 330 333 333 337 331 333 332 330 335 327 331 316 318 316 315 314 312 313 314
309 307 307 310 314 316 316 314 314 316 323 320 319 317 316 319 319 317 318 319 321 323 323 325 328 329 331 331 330 333 328 331 332 327 321 321 319 315 314 316 315 314 313 312 313
309 308 307 312 310 317 312 313 316 321 324 323 320 320 320 320 320 317 318 318 320 322 324 324 324 326 325 325 327 325 323 324 322 319 324 320 320 316 315 313 314 313 313 311 310
310 311 309 309 309 315 311 314 321 322 319 321 322 321 320 321 320 316 317 319 320 324 325 325 324 324 326 325 324 324 326 325 323 319 321 315 317 317 313 312 312 312 311 308 306
311 310 308 308 309 312 316 316 324 320 321 320 321 321 320 322 320 318 317 321 320 323 326 326 326 321 322 323 325 325 328 321 322 320 319 315 317 314 312 311 310 310 309 307 306
308 311 312 311 315 315 313 318 322 317 319 321 320 322 321 322 321 318 317 319 315 319 326 328 321 316 318 320 320 319 322 316 315 314 315 315 312 311 312 311 310 309 308 307 305
309 310 310 314 315 314 314 319 317 315 319 319 321 322 324 322 322 319 318 315 316 314 312 316 317 316 316 316 318 318 318 317 313 315 316 314 313 313 312 311 310 309 307 306 304
311 307 314 314 315 311 314 316 316 315 315 320 320 322 321 322 319 320 320 315 313 314 312 314 316 315 314 317 321 317 320 316 315 313 315 314 314 308 311 311 309 307 306 305 304
309 304 314 315 309 310 315 316 315 314 314 314 315 320 321 320 318 319 321 320 312 312 313 312 314 314 313 310 310 315 315 312 315 315 310 309 311 307 308 310 309 306 306 305 304
309 306 312 312 309 309 310 313 313 313 314 314 314 315 315 317 320 319 317 314 311 314 314 311 313 312 312 310 309 312 314 312 310 310 313 311 310 306 305 307 307 306 305 304 303
306 309 306 305 304 311 311 311 312 313 312 312 312 312 312 314 316 317 317 313 311 313 314 311 313 311 313 313 309 310 311 312 310 310 310 310 311 309 307 307 306 306 304 304 304
304 304 307 307 308 310 310 311 311 311 312 311 311 311 312 312 312 316 314 312 312 314 310 310 312 309 309 309 309 310 311 311 311 309 310 310 309 308 306 307 307 306 304 304 304
307 309 306 306 308 310 309 310 313 313 312 312 310 310 311 310 311 311 312 312 312 311 309 306 311 311 310 310 311 311 310 311 310 310 310 310 311 308 306 304 304 304 304 304 303
308 309 306 307 307 309 309 312 313 311 311 308 309 308 309 310 309 309 308 307 308 309 307 306 309 311 314 313 313 314 313 311 310 309 309 309 308 308 307 306 304 304 304 303 301

GFSSW_925_thetae_081.txt.gz
Theta_e
315 315 316 316 316 316 314 316 317 316 317 319 320 319 318 315 314 314 315 310 311 311 322 315 317 320 323 323 328 333 340 346 345 345 342 333 329 324 325 328 328 332 330 330 332
315 315 315 316 316 315 314 316 316 317 318 318 319 319 316 314 315 316 310 321 324 327 322 321 317 318 323 324 328 333 337 340 339 339 337 333 325 322 327 330 333 336 332 331 332
315 315 314 315 315 315 315 315 316 318 318 317 318 318 316 314 316 310 319 325 323 314 319 325 317 317 323 326 328 331 337 336 337 335 335 332 324 321 326 328 331 336 333 331 332
314 314 315 314 315 315 315 315 315 317 318 318 318 317 317 315 306 312 323 322 315 313 322 327 318 317 323 327 328 336 334 336 336 329 329 331 325 322 325 325 324 331 331 331 331
313 314 314 314 315 315 314 315 315 317 317 317 317 317 315 315 314 310 311 311 313 315 325 315 316 318 326 325 328 333 336 338 334 331 327 326 325 323 322 322 325 332 332 332 332
314 314 314 314 313 312 311 311 313 314 314 315 316 316 315 314 310 310 312 314 314 313 315 318 316 318 322 327 327 330 333 336 335 331 330 328 327 325 323 322 334 334 334 332 333
312 313 314 311 310 310 310 310 310 311 312 315 317 316 315 315 310 310 313 315 315 314 314 315 317 315 319 327 328 331 336 331 329 329 329 331 328 325 323 322 332 335 333 333 333
313 313 310 309 310 310 309 313 315 315 313 316 316 316 316 313 312 313 315 315 315 314 315 315 316 315 321 322 326 329 329 333 329 326 325 330 332 326 328 324 326 330 331 332 331
311 311 310 310 309 309 316 316 316 315 314 315 317 315 315 313 313 315 315 316 315 314 314 315 317 316 319 325 327 329 331 331 328 326 328 330 332 326 330 325 324 322 323 326 326
311 311 310 309 308 316 317 316 315 317 317 317 317 317 314 315 315 315 315 314 315 313 314 314 320 322 323 325 332 330 332 328 327 328 330 331 332 330 332 332 323 319 319 322 322
310 310 309 308 313 317 317 316 313 313 314 315 316 317 316 315 316 316 316 315 313 314 315 315 321 324 325 326 327 328 330 331 329 328 329 331 332 330 333 332 332 328 321 315 319
309 308 309 308 310 312 317 314 314 313 314 314 314 315 315 315 316 316 314 313 313 315 315 320 320 320 324 331 329 329 331 331 326 334 330 330 330 332 331 329 325 326 320 314 317
309 307 307 308 309 314 316 316 315 314 315 317 317 318 318 315 317 317 313 314 316 315 319 321 323 324 331 334 333 331 331 329 332 330 324 331 330 328 325 325 318 315 314 314 313
309 308 307 308 313 313 317 316 314 315 317 317 319 318 316 317 318 317 315 317 319 321 321 323 323 326 329 332 333 334 331 330 331 331 336 327 335 321 317 319 315 313 312 314 314
307 309 308 310 313 314 316 312 314 315 321 318 318 316 316 317 318 317 318 318 320 321 322 323 327 326 330 330 330 332 330 332 330 329 328 323 325 321 314 316 314 313 312 312 312
306 309 310 310 311 310 315 312 315 317 320 321 319 320 318 319 319 318 317 317 319 323 323 323 323 325 325 324 328 326 323 323 323 324 327 324 326 324 315 314 313 312 312 310 308
306 308 310 311 309 309 311 313 318 318 316 320 321 320 319 319 320 316 316 319 321 322 324 325 325 323 325 324 323 324 326 326 329 331 329 317 322 324 312 311 312 311 311 307 305
306 307 307 307 308 309 314 315 321 319 317 318 319 320 320 320 321 319 317 322 319 324 325 327 327 322 323 324 324 325 327 323 327 321 320 317 318 316 310 309 308 308 307 305 304
306 308 309 309 313 313 308 313 320 317 315 320 318 321 320 320 321 318 316 318 314 322 325 327 325 321 320 320 324 324 326 323 316 312 316 314 312 311 311 310 309 308 306 305 304
308 309 309 313 314 313 309 315 317 315 316 318 319 320 323 320 320 318 318 314 314 313 316 319 323 316 319 318 317 318 324 320 318 316 316 312 313 313 313 311 309 308 305 304 303
310 306 311 312 315 307 310 313 315 315 313 318 318 320 320 320 320 317 319 317 313 313 311 313 316 315 313 315 321 316 317 314 313 312 314 314 313 308 310 310 309 307 305 304 303
308 303 312 313 309 306 312 315 315 313 312 313 314 318 319 319 318 318 320 319 311 311 314 311 312 313 314 312 310 315 316 314 317 316 308 309 311 306 305 309 308 306 305 303 303
307 306 309 311 310 306 308 311 312 312 313 314 314 314 314 314 316 318 317 312 311 313 313 310 315 312 313 310 309 312 314 311 310 309 310 311 311 305 306 307 307 306 304 304 303
303 307 305 304 303 309 310 310 311 310 311 311 311 310 311 312 313 316 316 313 310 312 314 311 312 311 313 312 309 310 310 310 310 311 310 309 311 309 307 308 306 305 304 303 303
302 303 305 307 307 308 309 309 310 312 310 310 311 310 310 311 310 313 314 312 311 314 310 309 312 308 308 309 308 309 309 310 310 309 312 311 309 308 306 307 307 305 303 303 302
304 306 305 306 306 309 309 308 312 312 311 311 310 309 308 310 310 309 311 312 311 310 308 305 309 309 309 309 310 310 309 309 309 308 308 309 309 308 304 303 305 304 303 303 302
307 307 305 305 305 307 306 310 312 310 310 308 306 306 307 308 308 307 306 306 307 308 307 306 307 309 310 313 313 315 313 310 309 308 308 309 308 306 306 305 304 303 303 303 301

GFSSW_925_thetae_084.txt.gz
Theta_e
315 316 315 316 316 316 316 314 316 316 317 318 318 319 318 316 314 314 315 311 318 326 328 315 313 318 322 322 327 332 341 344 346 344 342 333 332 326 325 330 331 331 329 330 340
315 315 315 315 316 315 314 315 316 317 317 317 317 318 318 315 315 316 313 324 326 324 322 320 316 316 321 323 326 334 337 340 339 340 337 335 328 323 328 330 331 334 330 334 342
315 315 315 315 315 315 315 314 316 316 317 317 316 317 317 314 314 307 320 325 326 315 318 322 322 315 320 324 325 330 336 334 338 336 334 335 328 325 329 331 329 334 330 337 341
315 314 315 314 315 314 314 311 311 315 316 316 316 316 315 315 305 313 311 312 311 312 323 323 324 315 320 325 326 333 332 335 335 330 330 332 326 322 329 329 325 330 329 334 340
314 315 315 315 313 311 310 310 310 311 313 315 315 316 314 313 312 309 311 313 314 312 323 318 315 315 322 323 325 333 333 334 332 330 328 327 326 324 325 322 324 329 329 332 338
313 314 314 314 310 309 310 310 310 311 312 314 316 315 314 314 311 310 311 313 315 313 314 318 314 315 319 323 325 327 331 336 335 329 330 327 327 323 322 321 331 330 330 330 332
313 314 314 311 310 310 309 311 314 315 316 318 315 316 315 314 311 311 311 313 315 314 312 314 319 315 314 323 325 327 333 332 333 328 330 328 328 326 325 323 334 331 329 329 329
312 313 312 311 310 309 315 316 316 315 316 319 316 316 315 315 312 312 313 314 315 314 314 313 316 315 313 318 323 331 331 335 331 327 326 329 333 326 328 327 333 333 332 331 331
311 310 310 310 308 315 318 316 315 316 315 315 316 314 315 314 314 315 315 315 315 314 314 315 315 316 315 321 325 327 332 331 330 325 328 329 330 325 329 327 329 331 330 332 332
310 310 309 309 308 315 316 316 315 316 317 317 316 315 313 314 315 316 315 314 314 313 313 313 318 318 317 322 331 329 330 327 328 327 329 331 331 329 330 328 326 325 326 330 332
308 309 309 308 307 314 315 315 311 312 313 315 315 315 314 315 316 315 316 314 312 312 313 314 317 322 319 322 324 327 329 328 326 327 330 331 331 330 331 332 331 323 320 320 320
308 308 307 307 307 313 315 313 313 312 314 313 313 314 315 315 316 314 314 312 312 312 314 316 318 316 320 321 323 327 331 330 327 330 327 329 331 330 329 331 330 330 328 323 315
307 307 307 307 310 314 315 316 314 314 314 316 315 316 317 315 317 316 312 313 314 316 317 318 318 318 323 325 330 330 331 330 331 328 324 331 330 329 328 327 325 319 320 317 313
306 307 308 307 312 311 315 315 312 313 315 316 318 317 317 317 317 316 313 315 318 320 319 319 319 324 327 328 330 330 329 328 332 332 335 327 335 326 323 322 317 314 312 313 312
305 306 307 308 309 311 314 313 313 313 316 315 318 316 316 316 316 317 316 317 320 320 321 319 325 325 328 327 329 328 330 329 329 327 328 324 330 325 314 316 315 312 312 312 311
305 306 306 310 309 309 312 311 315 315 318 317 318 318 318 317 319 318 316 317 318 322 322 322 322 324 324 323 326 324 325 324 321 323 331 329 329 329 316 315 314 311 311 310 308
305 306 307 307 309 308 310 312 316 317 314 316 318 318 319 317 319 316 316 320 323 326 324 323 323 322 324 324 322 325 326 327 331 330 333 317 324 330 315 311 312 311 310 307 305
305 306 307 307 308 309 311 311 319 317 316 315 318 318 319 319 320 319 315 320 321 324 326 326 325 321 319 323 325 326 326 327 333 329 328 318 326 323 311 309 308 307 306 305 305
306 307 307 310 313 312 306 312 316 317 315 317 316 318 317 319 319 317 316 316 314 323 323 323 324 319 320 320 322 324 328 320 314 311 317 317 312 310 310 310 309 307 306 305 304
308 308 309 313 314 312 308 314 313 316 314 317 319 318 320 318 318 316 317 315 313 314 316 321 322 318 324 318 316 321 320 330 324 321 316 311 313 315 313 311 309 307 306 304 302
309 304 311 312 313 305 309 310 313 314 313 316 317 318 318 319 319 317 317 317 313 313 311 313 318 316 321 319 321 316 317 316 322 319 319 315 314 308 309 310 309 307 304 303 302
306 303 312 310 308 303 310 314 314 313 311 312 314 314 316 317 318 316 318 318 311 311 314 311 313 313 315 310 310 315 315 314 319 315 308 311 313 306 304 307 308 306 304 303 302
305 306 308 310 307 305 306 310 311 311 311 312 313 313 314 313 314 314 317 313 310 312 312 310 313 313 312 311 310 318 316 311 310 309 309 312 312 305 307 307 307 306 304 302 302
302 304 304 303 302 308 309 309 310 309 309 310 310 310 310 310 311 313 313 314 310 310 315 310 312 311 312 312 309 309 311 311 310 311 309 309 311 309 308 308 306 305 304 302 302
301 302 304 308 306 307 309 309 309 311 310 308 310 308 309 310 309 310 311 310 310 312 308 307 311 309 308 308 308 308 308 309 310 310 312 312 309 308 306 306 306 304 303 302 301
303 304 303 304 305 308 308 308 309 310 311 311 307 306 305 309 309 308 308 309 310 308 308 305 308 308 309 310 311 311 309 307 308 308 307 308 308 305 304 303 305 304 303 303 301
305 306 304 304 303 306 305 308 311 309 308 308 306 306 305 306 306 305 304 305 306 308 306 305 306 308 309 312 313 315 313 310 308 307 307 308 307 306 305 305 305 304 303 302 300

GFSSW_925_thetae_087.txt.gz
Theta_e
315 316 316 315 317 316 315 316 315 316 316 318 317 318 317 316 313 314 314 316 325 326 318 317 312 316 320 323 328 333 342 344 345 346 345 333 335 330 328 333 334 334 332 331 340
315 315 316 316 315 317 316 313 314 316 316 316 317 317 317 315 314 314 314 325 328 324 316 320 316 316 322 324 328 339 341 341 341 342 342 336 333 330 332 334 333 335 331 338 343
315 316 316 315 315 315 313 312 313 315 316 317 317 316 316 314 312 315 322 323 320 313 318 322 320 315 320 324 327 333 337 336 338 338 335 336 332 329 331 335 334 337 336 342 343
314 315 315 315 315 315 314 313 314 316 316 316 316 316 313 314 307 314 310 312 314 312 321 323 322 315 319 325 326 331 332 335 336 336 334 335 329 325 331 336 322 331 336 342 344
314 314 314 314 313 310 310 310 311 316 318 319 317 315 314 313 313 309 311 312 314 314 320 320 317 315 320 322 324 331 332 333 335 331 329 328 327 326 327 328 327 331 338 342 343
313 313 313 312 310 310 309 312 315 316 319 318 316 315 313 312 311 310 311 312 313 314 313 317 316 315 317 321 325 325 330 333 335 330 331 329 327 325 323 325 331 332 335 341 342
313 312 312 310 309 309 315 316 316 317 319 318 316 315 315 314 312 312 312 312 313 314 313 312 317 317 315 319 321 326 330 333 336 332 332 328 329 327 325 325 334 332 332 335 340
311 311 310 309 308 312 316 316 315 315 314 318 315 315 315 315 313 314 315 315 314 314 314 313 315 317 317 316 319 328 331 335 333 329 328 332 342 327 326 332 335 334 332 332 332
308 308 308 308 308 313 313 315 315 316 316 316 316 313 316 314 315 315 315 315 315 314 314 315 314 317 316 318 318 327 328 334 332 328 328 332 335 327 328 330 336 336 335 334 333
308 307 308 308 307 308 315 315 315 316 317 316 316 314 312 314 315 315 315 314 314 313 314 315 317 318 316 318 316 327 332 330 334 328 329 331 331 328 330 328 331 334 335 335 334
307 306 307 307 307 309 315 314 312 311 312 314 313 314 314 315 315 315 315 314 312 312 314 314 317 320 319 317 317 326 329 331 328 327 331 333 333 330 331 333 330 328 329 330 333
305 306 306 307 307 314 316 313 313 312 315 313 312 313 314 314 316 314 314 312 312 313 313 317 319 316 319 318 319 315 324 329 331 328 329 332 333 332 331 332 332 330 325 324 320
305 305 306 307 308 312 315 315 313 313 314 316 315 316 316 315 317 316 312 312 313 315 316 318 317 318 317 321 321 317 321 329 331 328 327 330 332 331 330 329 330 328 328 328 327
305 305 306 306 311 309 315 315 313 312 314 315 317 317 316 316 317 315 313 313 317 320 320 319 317 318 320 321 323 323 325 330 331 333 335 327 337 330 328 328 326 327 319 322 318
305 305 305 306 307 309 311 312 313 312 316 314 318 315 315 317 316 317 315 316 320 321 321 321 323 325 322 322 325 325 329 330 331 332 332 327 335 332 315 320 323 319 315 314 313
305 305 305 308 307 309 308 313 314 315 318 316 316 318 317 317 317 318 316 317 319 322 322 323 321 324 323 324 325 324 326 326 324 329 336 331 333 334 324 321 316 314 314 313 311
305 306 306 306 307 308 308 311 316 317 314 316 317 317 317 318 318 318 316 321 324 324 326 322 323 322 322 325 324 326 329 334 335 335 334 319 330 331 318 312 313 314 313 311 309
305 306 307 307 310 311 311 310 319 316 316 314 317 316 318 318 319 318 315 320 322 323 323 324 326 321 320 323 325 327 329 333 333 336 333 320 328 328 312 311 309 310 310 308 308
305 307 308 311 313 313 307 312 314 316 314 315 315 316 315 317 318 316 316 316 315 322 322 322 323 318 320 320 322 325 329 323 316 312 321 322 316 313 311 311 309 309 309 308 307
308 307 310 313 313 309 308 313 312 315 313 316 317 317 318 316 317 317 315 314 314 314 318 320 322 319 324 318 316 324 323 330 329 324 320 315 314 324 314 314 311 310 309 307 305
308 302 312 313 310 305 308 308 311 313 313 314 316 317 316 317 318 317 315 316 313 313 311 319 319 318 323 322 319 319 320 320 325 322 324 321 319 311 311 312 312 310 308 307 305
305 305 309 310 307 302 309 312 312 312 310 312 312 314 314 316 316 315 317 317 310 310 313 311 314 316 321 319 309 314 316 322 328 320 312 313 322 308 307 306 311 310 307 305 304
304 305 308 310 308 305 306 309 309 311 310 310 311 312 312 313 313 312 315 313 310 310 311 309 315 315 313 314 314 320 316 312 312 313 313 317 320 307 309 307 309 310 307 305 304
301 303 303 303 302 308 309 309 310 308 309 309 309 307 307 309 309 312 312 312 310 310 315 310 311 313 315 312 310 315 313 312 313 316 314 313 314 312 309 310 309 308 307 305 304
300 301 304 306 306 306 308 309 310 309 309 307 308 306 306 307 308 309 308 308 309 310 307 308 309 309 309 308 309 308 309 310 311 311 315 313 311 311 309 308 309 308 306 304 304
302 304 302 304 304 307 308 308 308 310 310 309 308 307 306 306 308 307 307 307 308 306 306 304 309 308 308 311 309 309 309 307 308 308 308 308 310 307 305 305 307 307 306 305 304
304 305 305 303 303 306 306 307 309 308 307 308 307 306 307 306 305 304 303 304 305 307 307 305 306 310 310 311 313 314 313 311 308 307 308 311 310 306 306 306 307 306 306 305 303

GFSSW_925_thetae_090.txt.gz
Theta_e
316 316 316 316 317 316 316 316 316 316 317 317 318 318 317 317 315 318 316 322 327 328 317 319 314 317 321 325 328 334 340 345 345 345 344 340 340 335 335 337 337 336 337 337 342
315 316 316 316 316 316 316 316 316 316 317 317 317 317 314 316 317 319 320 325 323 321 316 320 315 317 321 323 328 334 339 341 340 341 343 341 340 337 336 337 337 338 336 339 343
315 315 315 316 317 317 316 317 318 318 318 318 318 316 313 316 315 321 323 318 314 314 318 321 321 316 318 323 325 328 334 335 338 339 341 341 339 336 338 339 337 337 340 344 343
315 315 315 316 317 316 317 318 318 318 319 319 318 316 313 316 313 317 311 312 313 313 320 319 318 315 316 318 320 327 326 329 335 337 339 340 338 337 337 339 335 334 340 344 344
314 315 316 315 314 313 312 314 316 317 320 319 317 317 317 316 311 309 311 312 314 315 316 316 315 317 315 315 318 323 322 325 330 333 337 336 338 338 335 336 330 329 339 344 344
313 313 313 311 310 310 315 316 315 315 317 319 317 315 317 314 310 310 311 312 314 316 316 318 315 316 316 316 316 319 324 323 325 333 335 335 336 330 333 331 332 334 338 343 343
310 308 308 310 310 311 315 313 314 315 315 316 317 316 319 315 312 313 313 314 314 316 317 315 315 317 317 316 316 319 318 321 327 324 335 334 338 334 334 328 333 334 338 341 342
307 308 308 309 309 309 311 314 315 315 316 316 316 317 320 314 313 315 316 317 315 316 316 316 316 318 319 317 316 317 322 318 319 329 329 334 339 338 331 329 332 334 336 338 341
307 307 308 308 309 309 312 314 315 315 316 316 318 317 318 314 317 316 316 317 316 316 316 316 315 317 319 318 316 315 315 322 319 328 331 335 334 336 331 331 333 335 335 336 338
306 306 307 308 308 310 314 313 313 315 317 318 318 319 318 318 317 316 316 316 317 316 316 316 317 318 318 317 316 313 314 317 322 323 334 335 337 333 332 331 336 337 337 337 337
305 306 306 307 307 313 314 314 316 317 315 318 318 318 318 317 316 318 316 316 315 315 317 316 317 318 317 315 316 314 313 316 320 323 330 333 335 333 331 330 333 337 338 338 336
305 305 306 306 307 312 316 315 314 313 319 317 316 316 316 316 319 319 316 317 316 318 316 318 320 319 318 315 316 316 316 318 322 323 329 330 336 335 332 332 331 332 334 335 335
305 305 305 306 309 312 317 315 312 313 320 321 318 318 319 317 320 319 317 316 318 318 321 323 321 320 318 317 318 318 319 317 322 329 331 328 330 334 334 332 332 331 331 329 331
305 305 305 306 311 311 317 314 313 313 323 317 319 320 319 319 321 318 316 317 319 321 322 323 321 320 320 319 319 319 318 317 324 331 333 333 327 330 334 335 333 333 332 331 328
305 305 305 306 310 312 312 311 313 315 320 318 319 318 318 320 319 320 316 318 320 322 322 324 324 323 322 320 319 320 318 318 322 330 331 333 330 331 331 336 335 333 333 331 330
304 305 305 309 308 309 308 313 316 322 320 320 318 318 318 319 319 320 318 319 320 322 320 322 322 323 324 324 324 321 323 325 328 332 335 328 332 329 331 331 332 329 327 325 323
304 305 306 306 310 308 308 315 322 322 318 319 318 318 319 318 319 320 320 321 323 324 323 321 323 321 321 324 326 326 324 329 334 334 335 329 332 329 329 323 321 320 321 320 318
304 306 306 308 311 311 313 317 320 318 319 317 317 318 318 319 318 319 320 321 322 323 324 326 326 322 321 323 325 322 324 330 341 330 330 325 330 326 322 317 316 315 318 316 315
304 308 309 311 312 312 314 314 318 320 317 318 318 318 318 317 318 318 318 319 318 322 323 323 325 319 322 322 323 327 327 325 328 320 329 328 326 322 316 316 315 316 316 315 314
310 309 313 312 313 311 315 312 316 316 316 316 318 318 319 318 318 317 317 317 319 316 319 320 326 320 319 321 318 324 324 328 328 331 328 323 322 327 321 319 317 316 316 313 312
309 309 313 313 310 314 313 312 314 315 315 316 317 318 318 318 318 318 317 317 316 315 314 320 320 320 323 322 320 324 325 327 327 327 331 326 322 316 316 315 318 316 314 313 312
308 307 308 311 313 311 313 314 311 314 313 314 315 316 317 317 317 317 317 315 313 313 316 317 316 319 324 321 318 312 318 326 331 328 321 323 325 312 313 313 317 315 313 312 310
307 310 309 311 311 310 311 312 312 313 312 313 313 313 314 314 315 315 316 315 313 313 315 313 317 319 317 319 317 320 321 317 318 322 327 324 325 313 315 313 316 314 312 311 309
307 307 311 312 309 312 313 313 313 311 311 311 312 311 311 312 312 314 313 313 312 313 316 314 314 315 317 316 312 316 320 318 320 322 322 321 323 318 315 316 315 314 312 311 310
307 306 308 307 310 312 311 312 313 313 312 311 310 311 310 312 313 312 312 312 312 311 311 312 314 313 313 313 312 312 311 316 316 319 320 318 316 317 315 313 316 315 312 311 310
306 308 308 309 308 310 309 310 311 310 311 309 311 312 310 311 311 312 310 311 312 311 311 311 314 312 312 313 315 313 313 312 311 312 314 315 315 311 310 311 314 314 312 311 310
306 307 309 307 308 309 308 309 310 310 310 310 311 310 309 310 308 308 308 309 309 310 311 311 312 315 314 313 315 318 315 315 313 311 312 314 314 311 312 312 313 313 313 312 311

GFSSW_925_thetae_093.txt.gz
Theta_e
316 316 317 316 317 317 316 317 317 316 316 316 318 319 318 317 318 320 318 322 325 319 319 318 315 317 320 325 329 333 341 345 345 345 343 342 343 341 340 342 339 336 338 338 340
316 316 316 316 316 316 315 315 314 316 318 319 319 318 316 314 320 319 320 320 317 319 318 319 316 316 319 321 326 332 335 337 338 340 341 341 342 341 340 341 340 337 338 340 340
316 315 316 316 315 314 314 314 315 319 320 320 320 319 317 318 319 319 316 311 313 317 316 319 319 317 317 320 322 325 331 328 331 336 338 341 342 341 340 342 341 339 339 343 341
314 313 314 313 311 311 311 314 316 317 319 320 319 317 315 320 315 316 312 313 314 316 318 317 318 317 316 317 319 322 322 324 326 329 337 340 340 341 340 341 340 338 338 343 342
314 313 312 310 310 310 313 315 313 314 316 318 318 316 321 319 315 313 312 314 315 317 316 317 316 317 317 315 316 317 319 321 322 326 330 336 340 340 340 339 337 335 337 343 343
313 312 309 309 310 309 310 310 313 314 315 315 316 317 321 318 313 314 314 315 316 317 317 317 317 316 316 316 316 316 318 321 320 322 327 330 332 337 339 338 337 335 335 341 343
309 308 308 309 309 309 309 311 314 313 315 316 315 319 321 318 315 317 317 318 317 317 318 317 316 317 316 317 317 317 317 318 318 323 322 328 333 334 336 335 336 336 337 339 342
307 307 307 308 309 309 311 314 313 312 315 315 316 320 321 316 317 318 319 319 318 318 318 318 317 317 318 318 317 317 316 317 319 317 322 323 331 331 332 335 334 336 336 338 342
306 306 307 307 308 309 313 314 313 312 315 316 322 320 320 317 319 318 318 319 318 318 318 317 317 318 318 320 319 317 317 316 315 319 317 325 325 327 327 335 335 336 336 338 342
305 305 306 307 307 310 313 315 315 316 320 320 321 323 320 320 319 318 319 318 319 318 318 319 319 320 320 319 320 318 317 316 315 316 320 322 328 328 326 334 335 336 336 335 338
305 305 306 306 307 311 315 317 319 322 319 320 321 321 320 319 319 320 319 319 319 319 320 319 320 322 321 320 318 317 317 316 315 315 317 324 328 330 329 335 336 337 337 335 335
305 305 305 306 307 312 318 317 315 316 322 320 320 320 319 318 321 321 318 320 320 321 321 322 324 323 321 321 320 317 316 316 315 315 318 321 325 328 329 335 334 337 337 335 334
305 305 305 306 310 316 317 315 315 316 323 322 321 320 320 319 322 321 319 320 321 321 322 323 324 321 321 320 320 318 316 316 316 315 318 324 324 327 327 334 333 334 336 335 334
304 305 305 306 313 313 318 314 315 316 326 321 320 321 320 321 323 320 319 320 321 322 322 324 323 324 323 322 320 319 317 316 316 317 323 325 331 326 328 334 334 335 333 333 333
305 305 306 306 312 313 314 313 316 318 325 319 319 319 319 320 320 322 319 320 322 323 323 323 324 324 325 321 321 319 318 317 317 318 323 331 329 323 325 330 334 335 334 332 330
306 304 306 314 312 313 312 313 318 328 324 320 319 319 319 319 318 320 321 320 322 322 321 322 322 324 324 323 323 321 319 319 321 323 329 330 335 324 326 326 329 332 335 334 333
305 304 307 312 313 313 314 316 325 323 319 320 320 320 319 319 320 319 320 321 323 323 324 323 323 322 322 325 322 324 322 329 333 336 336 330 333 333 332 329 328 330 332 333 330
304 306 311 313 314 315 317 319 319 320 319 319 320 320 320 319 319 320 319 319 319 319 322 326 327 322 321 324 325 325 323 332 336 333 335 332 336 330 325 322 321 321 326 325 322
306 312 312 314 314 316 318 317 316 320 319 320 319 320 320 320 319 319 319 318 316 317 319 324 325 322 321 323 323 324 328 325 325 327 332 329 327 324 322 321 322 321 321 320 319
309 310 314 314 316 315 317 314 314 318 317 316 317 319 320 320 319 320 319 318 316 315 316 321 324 321 322 323 321 323 324 328 328 341 337 327 327 325 322 322 320 321 320 318 316
311 310 315 313 315 316 315 314 315 315 315 316 317 318 318 319 318 319 319 318 316 314 316 318 322 321 323 323 323 324 326 325 329 327 338 329 320 316 317 320 320 320 318 316 316
309 311 311 313 315 314 312 315 311 314 315 315 315 317 318 317 317 318 317 317 315 314 316 316 316 320 320 320 320 319 318 323 331 333 329 330 320 318 317 319 319 317 316 315 314
309 310 311 313 316 314 312 312 313 313 314 314 315 315 315 315 316 316 316 316 314 314 316 315 316 318 319 320 317 316 322 321 322 322 327 332 326 318 317 319 318 317 315 313 313
308 313 313 314 312 312 311 311 314 313 313 313 314 314 314 315 315 315 315 314 314 314 315 315 316 317 317 316 316 316 316 323 323 328 325 326 323 319 318 318 318 316 315 313 312
307 311 311 316 314 311 310 309 309 310 313 313 313 313 313 313 313 314 314 314 314 313 313 314 314 315 315 314 314 314 314 314 315 315 317 320 317 316 315 315 318 316 315 314 312
308 308 309 311 310 309 309 308 309 308 309 308 310 311 312 312 312 313 313 313 313 313 313 314 314 315 316 314 315 315 317 317 315 314 313 314 315 313 314 315 317 316 315 314 313
307 308 309 311 310 311 313 310 308 309 307 310 311 309 307 307 309 309 309 310 311 312 313 313 314 316 319 314 316 319 315 316 316 315 314 316 315 315 314 315 316 316 315 314 313

GFSSW_925_thetae_096.txt.gz
Theta_e
317 317 317 317 316 313 312 312 313 316 317 319 322 322 320 316 315 322 320 320 321 315 319 321 317 315 318 325 329 335 342 344 345 346 344 341 341 344 340 342 340 337 338 339 340
316 316 316 316 313 312 312 313 316 315 318 320 320 318 318 316 321 321 316 311 313 316 320 319 319 317 320 322 326 332 339 339 336 338 340 339 340 344 344 343 341 337 339 340 339
316 316 315 310 310 311 312 315 314 314 316 318 316 315 315 318 324 320 311 314 314 317 316 317 319 319 319 320 323 326 332 330 329 329 331 333 338 340 344 343 341 340 341 340 339
315 312 309 309 311 310 311 311 310 313 315 315 315 315 316 321 315 318 313 314 315 317 318 316 318 319 319 318 318 320 322 323 325 326 326 328 336 339 343 343 338 339 339 341 339
309 308 308 309 310 310 309 309 310 314 314 315 316 315 321 323 317 314 314 315 316 317 318 317 318 318 319 318 317 316 317 318 319 321 323 326 329 336 339 337 337 338 336 342 340
308 308 308 308 309 309 309 310 313 314 313 315 315 318 324 321 315 315 315 317 318 318 318 318 317 317 316 316 316 317 317 317 318 320 320 322 327 329 333 335 337 337 336 341 341
307 307 307 307 308 309 309 313 314 313 313 315 315 320 322 318 316 318 318 319 319 318 319 319 318 317 318 318 318 317 317 317 317 318 322 321 322 327 327 329 336 336 335 335 341
306 306 306 307 308 308 310 313 314 313 313 315 320 323 323 317 318 319 319 319 319 319 319 319 318 318 318 318 319 318 317 317 317 317 317 319 322 322 327 328 331 336 334 335 339
305 305 306 306 307 308 312 314 316 314 317 317 323 322 321 319 320 320 319 320 319 319 319 319 318 320 320 319 319 319 319 317 318 317 317 316 318 323 322 326 329 333 334 335 336
305 305 306 306 307 309 314 318 317 317 322 322 322 324 321 321 320 319 320 319 319 320 320 320 320 321 321 321 323 321 319 318 318 317 316 317 317 319 323 322 326 332 335 334 336
305 305 305 306 307 312 318 320 318 324 318 320 320 321 320 320 320 321 320 319 320 321 322 322 321 322 323 323 322 322 320 320 317 316 316 315 316 319 322 326 327 330 334 333 338
305 305 305 306 307 316 317 317 316 316 320 321 321 320 320 320 321 322 320 321 321 322 322 323 324 323 321 322 323 323 322 320 316 316 315 315 315 317 324 328 328 335 335 334 332
306 305 306 305 313 314 318 315 316 317 322 323 322 320 320 320 321 322 320 320 321 321 322 323 323 322 323 323 321 321 321 320 317 316 316 315 315 316 320 325 332 333 333 334 333
306 305 307 306 315 313 319 313 316 318 327 325 322 322 320 322 322 320 320 320 321 322 323 323 322 322 323 323 322 324 320 319 319 320 317 315 318 318 322 324 330 333 333 334 332
303 303 305 312 309 313 314 313 316 320 329 319 321 318 319 320 320 322 321 320 322 323 322 323 322 323 325 323 323 323 321 322 322 319 317 317 321 323 325 324 332 332 331 331 331
302 303 305 315 314 314 313 314 318 331 326 321 319 320 320 320 319 320 320 321 322 321 319 321 322 323 323 322 323 323 322 323 323 323 323 319 327 330 327 325 332 332 332 330 329
302 304 310 313 314 314 316 317 326 329 319 321 320 319 319 320 320 320 320 320 319 318 319 320 322 322 322 325 324 324 325 325 326 328 325 328 328 326 326 327 326 330 330 330 328
302 310 313 312 315 316 318 320 322 320 321 319 318 317 320 319 319 319 320 320 316 316 317 320 325 321 321 323 326 326 325 327 327 335 334 328 333 332 329 325 324 327 331 332 328
302 313 313 316 314 316 318 319 319 319 319 317 316 318 319 319 319 318 319 319 317 314 317 321 325 320 322 321 323 324 329 323 325 325 332 328 328 328 327 323 323 323 323 323 320
306 312 313 313 316 317 318 317 316 316 315 315 315 318 318 318 319 318 319 318 316 314 315 318 322 321 322 323 323 324 324 329 326 334 332 326 317 318 321 321 321 319 317 317 316
311 312 316 313 315 315 317 315 314 314 315 315 315 316 316 317 318 317 318 317 315 315 315 316 318 318 320 322 323 324 323 327 327 330 336 325 319 316 319 319 319 317 316 315 315
309 312 312 312 315 316 314 314 311 312 314 315 315 316 317 317 316 316 317 317 315 314 316 315 315 317 319 320 320 320 320 323 330 329 329 329 319 315 318 317 316 316 319 316 315
310 311 313 313 317 316 314 312 313 313 313 314 314 315 315 315 316 316 316 317 315 315 317 315 315 317 318 318 317 316 316 322 323 328 329 333 331 316 317 316 315 314 313 313 313
310 313 313 314 314 311 314 313 313 314 314 314 314 314 315 315 315 315 314 316 315 316 314 315 316 316 317 316 315 314 315 315 323 330 325 325 319 314 315 318 316 314 312 312 312
309 312 311 316 316 314 313 312 312 310 313 313 313 314 314 313 313 312 313 313 313 314 314 314 315 315 315 315 314 314 315 314 314 313 314 314 315 313 314 315 316 314 312 311 312
310 309 310 310 312 313 311 312 312 310 308 309 309 310 311 311 311 310 311 312 312 313 312 312 315 314 315 316 315 315 316 317 316 315 314 315 314 313 313 314 314 312 312 312 310
306 309 311 311 313 312 313 312 311 309 309 308 310 308 306 307 307 307 306 306 307 308 310 313 315 316 318 318 318 319 315 316 316 311 310 315 315 313 313 315 314 313 313 312 310

GFSSW_925_thetae_102.txt.gz
Theta_e
316 316 312 312 312 312 311 310 310 312 313 313 316 316 315 318 321 317 315 312 313 315 315 316 318 318 316 316 320 327 334 338 339 342 342 337 335 341 338 340 340 341 338 337 339
315 311 308 310 311 311 311 310 310 312 313 312 315 315 315 320 321 318 312 313 314 316 317 318 316 316 313 316 316 325 331 335 334 334 336 329 326 341 341 338 340 340 337 337 338
312 307 307 309 310 310 310 310 310 313 313 312 315 315 316 321 317 319 313 314 315 316 317 318 318 316 316 314 315 317 327 328 328 327 327 325 324 329 340 341 340 341 338 340 339
310 307 307 308 309 309 310 310 310 312 313 312 315 315 321 320 313 316 314 315 317 317 317 317 314 314 315 314 313 314 314 315 323 325 326 324 320 332 341 341 341 341 336 338 339
306 306 306 307 307 308 309 309 310 312 314 312 314 317 322 319 314 315 316 317 318 317 317 317 314 314 314 313 312 313 313 314 314 315 315 316 318 319 336 337 338 340 339 339 339
305 305 306 306 306 307 308 309 310 313 315 313 317 319 322 316 316 317 318 318 319 318 317 318 317 316 315 315 313 312 315 314 314 314 314 315 317 319 323 334 338 339 340 338 338
305 305 306 306 306 307 307 309 314 316 316 315 320 321 321 316 316 318 318 319 319 319 318 318 318 316 316 316 315 315 316 314 314 313 314 315 315 316 319 333 334 336 337 339 338
305 305 305 306 306 306 309 315 316 317 317 317 322 322 319 320 318 319 319 319 319 319 318 319 318 316 317 315 317 317 315 316 314 313 314 314 313 313 314 316 328 332 338 340 338
305 306 306 306 306 310 315 315 317 317 319 319 322 321 319 319 319 319 319 319 319 318 319 319 317 317 317 317 317 316 317 316 316 315 315 314 314 313 312 313 316 317 330 336 338
307 307 307 306 308 314 313 315 318 319 320 321 322 315 317 317 319 319 319 319 318 318 318 318 315 317 315 316 322 321 321 320 320 317 317 315 313 312 311 312 313 315 318 330 337
303 303 304 308 312 317 311 313 312 310 314 316 316 318 317 319 319 319 320 319 318 318 319 317 318 319 318 318 319 319 320 320 319 319 317 317 315 312 311 310 310 311 314 322 330
302 301 302 308 313 315 312 314 315 315 317 316 318 318 319 319 319 318 319 319 318 319 317 317 319 318 320 322 322 321 321 321 318 317 318 317 315 312 311 311 310 311 314 319 327
301 301 302 310 313 312 313 313 314 316 318 320 320 320 318 318 319 319 318 318 319 318 318 320 319 320 322 322 323 322 322 321 322 320 316 315 317 313 311 310 310 310 313 317 322
301 301 303 309 311 313 313 312 313 317 320 323 320 319 319 319 320 319 319 318 319 320 319 317 319 322 323 324 323 324 321 323 324 324 323 314 320 314 311 310 311 316 317 326 335
301 301 306 310 313 313 314 313 314 317 322 319 319 318 317 319 317 318 319 318 320 319 316 312 316 321 324 323 321 323 323 324 323 323 322 321 319 314 313 317 321 319 320 321 333
301 301 308 311 313 313 314 316 316 318 321 319 318 316 314 315 317 317 318 315 316 315 313 312 314 321 321 320 320 321 325 322 321 322 323 323 318 315 323 323 323 323 322 321 330
301 301 310 311 312 314 316 314 314 319 317 317 316 313 314 315 317 315 313 311 311 311 310 312 314 318 319 319 320 323 324 325 319 325 327 322 322 316 322 323 324 324 323 324 323
301 302 311 313 314 314 316 310 317 319 317 316 314 313 316 315 315 314 314 313 311 311 311 314 315 318 316 317 320 324 325 326 324 328 325 323 326 327 319 321 323 321 322 325 325
301 307 311 314 313 315 308 311 315 317 315 314 313 313 313 313 314 312 313 314 312 311 313 314 316 315 314 315 320 323 326 321 322 322 322 325 324 322 324 324 324 324 322 323 324
304 310 311 315 313 314 309 314 314 314 313 313 314 314 313 312 313 312 313 314 313 313 310 312 314 313 313 316 319 322 320 327 325 328 321 323 320 322 328 326 324 326 325 322 322
308 305 314 312 313 307 311 311 313 311 313 313 313 313 313 314 312 313 313 314 313 312 312 311 310 311 311 314 317 314 317 326 323 327 329 322 319 316 316 318 316 321 324 319 317
308 306 313 312 309 308 310 311 311 311 311 311 313 313 313 313 312 313 313 313 310 312 313 312 309 311 312 311 311 311 314 322 324 326 326 324 321 311 312 313 314 313 313 312 312
303 304 311 311 310 310 307 311 311 312 312 312 312 312 312 313 313 312 311 311 310 310 312 311 309 311 310 309 309 311 310 315 321 321 323 319 321 312 311 311 311 313 313 311 310
303 305 308 307 306 307 310 311 311 311 312 312 312 311 312 312 311 311 309 309 308 308 316 311 310 310 311 311 311 312 312 311 317 309 310 316 313 311 313 312 311 311 309 309 309
301 304 307 310 309 309 309 310 310 310 311 311 310 309 309 310 308 309 307 304 306 311 308 306 309 309 310 310 311 311 312 312 312 311 309 310 312 311 312 312 311 310 310 309 308
301 301 303 304 308 308 310 309 309 309 307 306 306 308 305 305 305 304 305 304 304 305 304 301 306 309 311 312 312 314 312 312 309 307 310 312 312 310 309 309 309 309 309 308 307
302 306 304 306 307 309 309 310 310 307 308 307 307 305 304 304 303 303 302 303 303 304 302 302 307 309 312 310 313 315 311 311 308 311 309 312 312 310 308 308 309 309 308 307 305

GFSSW_925_thetae_105.txt.gz
Theta_e
310 307 308 311 312 311 311 311 310 311 313 312 314 315 316 320 317 312 311 313 314 317 317 316 316 316 315 314 318 327 334 336 338 341 341 334 331 340 338 340 340 340 337 336 338
308 307 307 309 310 311 310 310 310 311 313 313 314 315 316 320 320 317 313 314 315 317 317 318 316 316 312 315 314 323 330 333 332 333 334 330 325 324 336 337 338 340 337 337 340
306 307 307 307 308 308 309 309 310 311 312 313 313 315 316 320 314 315 314 315 316 317 317 318 317 315 315 312 313 316 324 327 325 323 324 326 323 321 336 339 336 338 337 337 340
306 306 306 306 307 307 308 309 309 310 313 312 314 316 322 318 315 315 316 317 317 316 317 316 313 313 313 313 312 313 313 313 314 317 321 321 319 319 336 333 334 336 336 336 339
305 306 306 306 306 306 307 308 308 312 315 313 315 320 321 315 315 316 317 318 318 318 317 316 315 314 315 313 312 311 312 314 314 313 314 314 315 317 317 329 333 339 337 338 337
305 305 306 306 306 306 306 307 311 315 316 314 318 320 319 316 316 317 318 318 318 318 317 317 317 316 315 315 314 312 313 314 313 313 313 314 314 317 318 322 336 340 338 337 338
306 306 305 306 306 306 308 314 315 315 316 316 320 319 320 316 316 318 318 318 318 318 317 318 317 316 315 315 314 315 316 314 314 313 312 313 313 313 314 319 331 336 338 338 336
306 307 307 307 306 309 313 313 314 317 317 317 321 321 318 320 318 318 319 319 319 318 318 318 318 316 316 315 316 316 314 317 315 314 315 314 314 313 312 312 312 323 331 338 338
308 306 305 307 309 313 312 313 316 317 319 319 321 320 317 318 318 319 318 318 318 318 318 318 317 316 316 316 316 316 319 318 318 315 316 315 315 313 312 311 312 311 319 335 337
302 302 302 307 311 316 311 315 318 318 319 321 321 313 314 315 318 318 319 318 318 317 317 317 314 316 315 316 323 320 320 319 319 318 317 317 315 312 311 310 309 309 310 325 338
301 301 302 308 312 315 310 311 310 308 313 315 315 317 316 318 318 318 319 318 317 316 318 316 317 318 318 317 317 319 320 320 319 317 318 317 316 313 312 309 308 308 307 311 325
301 301 303 310 312 312 309 313 314 314 315 315 316 317 318 318 318 316 319 318 317 318 316 316 318 317 318 320 321 321 321 322 319 318 318 318 318 314 311 310 310 309 307 308 312
301 301 304 310 312 313 311 312 314 315 316 318 319 319 318 318 317 317 318 317 318 318 318 319 318 319 321 322 322 322 322 321 322 321 318 317 318 315 312 309 309 308 309 314 311
301 301 306 309 310 313 312 312 313 317 317 319 319 318 318 318 318 318 318 317 318 319 318 314 316 317 321 322 322 323 321 322 325 326 329 320 325 318 314 311 312 317 315 317 318
301 301 308 309 313 313 312 314 315 316 320 318 319 318 314 318 316 316 317 317 319 319 317 311 312 316 322 320 320 321 320 323 323 323 324 322 324 316 313 322 322 321 321 320 318
301 301 307 310 312 312 314 316 315 315 320 318 317 312 312 313 315 315 311 310 314 311 311 311 311 318 320 318 318 319 323 321 318 319 322 323 324 316 324 324 323 322 321 321 321
301 301 307 311 311 313 315 313 313 318 316 317 314 312 312 314 314 314 311 310 311 311 310 310 312 312 317 316 316 321 322 323 316 318 325 322 324 317 318 320 323 322 321 324 324
301 302 309 312 313 313 315 308 316 318 317 315 313 312 315 313 313 312 313 312 311 310 309 312 312 314 315 315 316 322 322 328 322 324 324 322 326 326 321 321 324 323 324 326 328
301 306 310 313 312 314 306 311 312 315 315 313 311 312 312 312 312 311 313 312 312 311 311 312 313 312 314 312 318 320 322 320 321 322 320 323 324 322 323 324 326 325 321 322 325
303 308 310 315 313 312 308 313 313 313 312 312 313 313 311 311 312 310 312 313 312 312 309 311 313 311 311 314 316 321 317 324 322 326 325 321 318 321 319 322 320 327 321 319 318
306 303 312 313 312 306 310 310 312 311 312 311 312 313 313 313 312 312 312 312 311 312 311 310 309 309 309 312 312 311 312 323 320 325 328 322 319 314 315 315 316 319 317 316 313
306 304 313 312 308 306 310 310 311 310 310 311 312 312 312 312 312 312 312 311 309 310 311 310 307 310 309 309 309 310 311 318 319 318 324 324 319 311 310 312 314 314 316 313 312
301 302 310 310 309 310 308 310 310 311 311 311 312 312 311 312 312 311 311 310 306 308 308 309 308 307 307 308 308 310 310 310 319 315 319 316 317 312 310 310 310 313 311 310 310
301 304 307 305 304 308 309 311 310 310 311 311 311 311 311 311 310 311 309 308 305 309 314 309 308 306 306 307 309 310 311 310 312 308 308 312 312 309 312 312 311 309 308 307 306
300 302 306 308 309 306 308 310 310 310 310 309 309 310 308 308 309 308 307 304 304 307 306 305 307 308 308 309 309 310 311 311 310 310 309 310 312 311 310 311 311 309 308 307 305
300 300 302 305 307 307 309 309 309 309 307 306 306 306 305 305 306 306 304 304 303 304 303 300 299 307 309 310 311 312 311 311 308 307 311 311 313 309 309 309 310 309 308 306 304
300 304 304 304 305 308 308 309 309 308 307 306 305 305 304 303 302 301 301 301 302 303 301 301 302 308 309 309 311 313 310 310 308 310 309 311 311 309 309 310 309 309 307 305 303

GFSSW_925_thetae_108.txt.gz
Theta_e
307 307 307 309 310 311 310 310 310 309 312 313 313 314 317 318 315 312 311 313 315 318 317 316 316 315 313 313 316 325 331 333 337 340 340 331 328 334 336 338 338 339 336 335 338
307 307 307 307 308 308 308 309 309 309 312 313 313 315 316 319 317 315 314 315 316 318 317 317 315 315 312 313 313 321 329 330 331 332 332 329 326 322 326 327 335 339 335 338 338
306 306 306 306 306 307 307 308 309 309 313 314 314 316 318 318 313 313 315 315 317 316 317 317 316 313 314 311 311 316 322 325 320 319 319 322 320 321 328 331 332 335 337 339 339
305 305 305 306 306 306 307 308 308 309 315 314 314 318 321 315 315 315 317 317 317 317 317 315 312 312 312 312 311 312 312 312 313 315 314 316 316 318 325 324 324 330 333 339 339
305 305 305 306 306 306 306 307 308 313 315 315 316 320 319 314 315 316 317 318 318 318 317 315 315 314 315 313 312 311 311 312 313 313 313 312 313 313 315 320 323 331 334 338 339
306 306 306 306 306 306 306 310 314 314 314 316 318 319 317 317 316 317 317 318 318 318 317 316 316 316 315 314 314 312 312 313 313 313 312 313 313 313 315 313 316 332 336 335 339
307 307 307 307 307 308 312 313 312 313 316 316 319 317 318 317 317 317 318 318 318 318 317 317 317 316 315 316 314 315 315 313 314 313 313 312 314 312 312 311 316 327 335 335 336
306 304 303 306 309 312 314 311 314 316 316 318 320 320 316 319 318 318 318 318 318 318 318 318 317 316 315 314 315 316 314 318 317 314 315 314 318 314 311 311 310 309 318 335 335
302 301 301 304 311 315 310 316 316 317 319 319 319 318 315 317 317 318 318 318 318 317 317 317 316 315 315 316 316 315 320 318 318 314 316 314 317 314 312 311 310 308 307 320 335
302 301 302 308 312 313 311 318 317 315 319 320 318 311 312 314 317 318 318 318 317 316 315 315 313 315 314 316 322 321 319 319 318 318 317 317 316 314 313 311 309 308 306 306 326
301 301 305 310 311 309 310 311 308 308 313 315 315 315 315 317 317 317 318 317 316 314 316 314 317 317 317 317 317 317 320 320 319 318 318 317 317 315 314 311 309 307 307 306 307
301 301 306 310 311 309 309 312 313 314 312 314 315 315 317 318 317 315 318 317 317 317 315 314 316 316 317 320 320 320 321 321 319 318 317 319 319 318 315 313 310 310 307 305 306
301 301 306 310 311 312 311 312 313 315 314 316 318 318 317 318 317 316 317 316 317 317 317 317 315 317 317 320 321 320 321 320 321 321 320 321 319 315 314 310 308 312 314 314 315
301 301 306 309 310 312 312 313 313 316 313 316 318 317 317 317 316 317 317 317 317 318 317 314 313 313 317 320 320 320 319 321 324 322 325 321 322 318 315 313 318 318 317 317 317
301 301 303 310 312 311 312 314 315 314 317 316 317 317 309 317 315 315 313 317 318 314 315 309 310 312 319 318 318 318 318 322 321 322 318 322 321 314 317 320 320 320 320 319 319
301 301 301 310 312 312 314 315 315 313 319 317 315 311 312 313 313 313 310 309 311 310 310 311 309 314 319 317 317 318 321 317 315 315 321 324 320 317 322 322 321 321 321 323 324
301 301 302 310 310 312 315 311 311 316 314 317 313 311 311 312 313 311 310 309 310 309 308 308 309 310 316 313 313 320 319 319 317 316 318 322 325 322 321 323 326 324 324 325 326
302 301 306 311 312 313 314 308 315 317 316 313 311 311 313 311 312 310 312 311 310 309 308 310 309 311 312 313 313 321 320 321 327 324 322 319 323 324 319 319 323 323 322 324 326
302 303 309 312 313 314 306 311 312 314 314 312 309 312 311 310 311 309 312 312 311 310 311 311 310 309 311 311 316 317 320 319 321 315 321 314 321 322 318 317 319 323 321 320 319
303 306 308 314 313 310 308 313 313 312 311 311 311 312 311 310 312 310 311 312 311 311 308 310 311 309 309 313 313 319 316 321 317 319 324 320 316 319 318 318 319 322 319 315 313
304 300 310 314 311 305 310 310 311 310 311 310 311 311 312 313 311 311 311 311 310 311 309 309 308 307 308 310 311 310 310 317 318 321 321 324 318 314 314 316 319 320 317 314 312
303 300 311 311 307 304 309 310 311 310 309 310 310 311 312 312 311 311 311 310 307 308 307 309 306 309 308 307 307 310 309 314 317 319 320 320 321 311 311 313 315 314 314 311 309
300 299 309 308 307 308 309 310 310 310 310 310 311 311 310 311 311 310 311 309 305 305 306 308 306 305 303 306 306 309 309 310 314 312 315 311 311 308 310 310 311 311 309 308 306
299 301 305 303 303 308 308 310 310 309 310 309 309 310 310 311 309 310 310 308 304 310 312 308 306 304 303 304 307 308 308 310 310 308 307 309 309 309 309 311 310 308 307 305 305
298 301 305 309 308 306 307 309 309 310 309 309 310 309 308 307 308 308 307 304 303 306 303 301 304 306 306 306 306 307 308 310 309 308 308 308 310 312 310 310 310 308 306 305 305
297 298 301 305 306 306 309 308 309 309 309 310 306 307 305 305 307 309 305 304 302 303 301 298 298 304 305 308 309 310 310 310 308 306 308 310 310 309 309 308 309 307 306 305 304
300 301 303 305 306 307 307 309 309 308 306 306 306 304 304 304 303 303 301 301 302 302 301 301 301 306 307 307 309 312 310 309 307 309 307 310 309 309 310 309 309 308 306 304 303

GFSSW_925_thetae_114.txt.gz
Theta_e
312 310 307 307 307 307 307 307 308 309 310 314 313 314 316 316 315 316 316 315 319 318 317 317 317 315 317 322 326 331 326 324 326 327 327 330 333 332 331 333 329 332 338 340 344
307 307 306 306 306 306 306 307 308 308 311 314 314 315 317 317 317 318 316 316 318 317 318 317 317 317 317 318 321 325 325 321 324 324 325 326 328 328 328 331 331 330 334 339 344
306 305 305 306 305 306 306 306 307 307 312 314 315 317 317 317 317 318 317 317 318 317 318 317 316 317 318 316 316 320 320 318 319 321 322 322 322 321 323 325 326 329 327 339 343
305 306 306 306 306 306 306 306 307 311 313 314 315 319 316 316 318 317 316 317 318 318 318 318 319 319 319 319 316 317 316 317 317 316 316 316 316 316 316 317 319 321 320 327 340
307 306 305 305 306 307 308 310 311 312 312 314 316 318 318 319 319 317 317 317 318 318 319 320 321 321 321 320 318 318 319 318 318 318 319 319 320 319 318 317 316 317 320 325 333
305 302 301 302 304 310 313 314 312 310 311 315 317 318 319 319 317 317 317 317 318 319 319 320 320 319 320 321 320 319 320 321 320 320 319 320 320 317 317 316 316 316 317 319 323
302 301 301 304 309 311 313 311 310 311 315 316 317 316 319 319 318 318 317 317 317 319 320 319 319 320 321 321 319 320 321 321 321 320 320 317 320 319 318 318 317 317 318 318 325
302 301 303 308 311 310 309 315 316 316 316 319 317 318 318 318 317 318 318 318 318 318 319 319 318 319 320 320 320 321 321 324 322 321 319 319 322 320 319 319 320 320 319 319 317
302 301 303 308 311 309 310 316 317 317 317 319 320 319 318 315 318 317 318 319 318 318 319 317 318 320 320 322 322 323 324 323 323 321 321 321 323 321 321 321 321 321 320 319 319
302 301 303 307 311 309 313 317 314 315 319 316 315 318 317 318 317 317 318 318 320 319 319 319 320 321 320 321 322 322 323 322 323 322 321 323 323 322 322 321 322 322 320 320 319
302 301 304 308 311 309 311 311 315 314 317 317 318 317 317 318 317 317 318 319 319 319 318 319 320 319 319 320 320 321 322 322 322 321 322 323 322 321 320 319 317 319 320 319 318
302 301 304 310 311 310 311 314 315 315 318 316 318 319 317 318 319 318 318 319 320 320 318 318 319 318 318 319 319 319 321 322 322 322 323 321 321 319 321 321 321 322 322 322 322
302 301 302 310 311 311 314 312 313 315 318 319 320 321 319 318 318 319 316 318 320 319 317 318 317 316 315 318 318 318 319 321 324 322 322 321 321 321 321 321 320 320 323 323 323
302 301 302 310 312 310 314 314 314 316 319 319 320 319 317 317 318 316 314 318 319 318 317 316 314 314 317 317 318 320 318 322 325 323 323 320 325 320 320 322 321 321 321 324 325
304 302 301 310 312 313 313 315 316 318 325 318 319 314 315 317 316 317 312 317 318 317 316 314 313 314 317 315 317 318 321 324 322 323 323 322 325 321 321 321 320 320 322 323 325
305 303 301 309 311 311 314 315 317 322 324 320 317 314 315 315 315 315 315 313 312 313 313 313 312 314 317 316 316 319 323 321 321 322 325 323 323 322 322 320 319 320 322 321 324
304 303 301 305 312 311 315 317 320 322 317 319 316 313 314 315 315 314 315 315 315 315 315 314 312 313 314 316 317 320 324 334 328 331 327 322 323 321 319 318 319 325 321 320 321
305 302 302 308 311 312 315 316 320 318 318 315 313 314 316 314 314 314 316 316 314 313 314 315 313 312 312 315 317 320 324 330 336 328 330 324 330 324 317 319 323 322 320 318 319
306 303 304 309 310 313 315 320 320 319 317 315 313 315 315 313 314 314 315 316 313 312 313 315 314 312 312 315 319 318 321 323 327 323 327 325 318 320 319 321 322 322 319 317 317
308 304 306 311 313 312 317 317 317 315 313 312 314 314 315 314 315 314 314 314 314 312 311 313 314 311 311 316 315 318 319 323 326 331 327 319 317 322 323 321 320 321 318 315 314
305 304 307 313 310 314 317 317 315 314 312 313 313 314 314 316 315 314 314 313 312 310 310 311 312 311 311 312 314 316 316 317 323 324 325 322 318 316 318 319 318 318 318 314 312
303 303 310 310 313 313 316 314 313 313 312 312 312 313 315 315 315 314 314 314 310 308 309 311 311 311 310 310 310 313 314 314 319 320 324 322 319 315 316 316 316 316 315 312 310
304 304 308 307 312 314 313 312 313 312 312 313 313 313 313 315 315 314 314 311 308 309 310 312 311 312 311 313 310 310 310 310 315 319 319 320 317 313 315 316 314 315 315 311 311
303 305 309 310 309 311 314 313 313 310 312 312 312 312 313 313 313 314 314 311 308 310 313 311 313 312 312 310 309 308 309 309 311 317 313 314 314 316 315 317 316 313 313 312 311
304 305 309 312 312 310 313 314 313 312 311 310 311 312 312 313 312 313 313 311 306 308 308 311 311 309 309 308 307 308 307 308 311 315 314 312 312 314 316 317 315 314 312 313 312
307 304 303 310 309 310 311 313 313 312 312 312 312 312 311 313 313 314 312 311 312 307 307 305 308 306 310 309 310 312 313 313 313 314 314 312 311 313 314 314 314 314 314 313 310
304 301 307 308 309 310 310 311 313 312 311 313 313 312 311 312 311 310 310 309 309 308 307 307 308 308 312 309 312 315 315 315 315 313 310 310 313 315 315 314 315 313 313 312 310

GFSSW_925_thetae_117.txt.gz
Theta_e
310 308 310 307 306 306 306 307 307 308 309 314 314 314 315 315 318 320 318 316 319 317 321 318 318 316 318 323 325 326 329 325 324 324 326 326 329 329 331 333 333 333 338 339 346
308 307 306 306 306 306 306 306 307 307 309 314 314 315 316 316 321 319 318 317 318 318 320 320 320 318 319 319 322 325 326 325 323 324 323 323 325 327 329 329 329 330 332 337 345
306 306 306 306 306 306 306 306 306 307 311 314 315 317 317 316 322 319 318 317 318 320 320 319 320 318 320 318 318 320 323 320 318 319 319 321 322 322 322 323 324 328 330 336 339
307 307 306 305 306 306 307 307 308 310 312 313 315 318 316 324 321 319 317 318 318 319 320 320 322 322 322 322 320 319 319 319 320 320 319 318 318 318 317 318 318 320 323 327 331
305 304 302 302 303 307 310 311 312 311 311 312 315 318 320 323 320 318 318 319 320 320 320 321 322 322 324 322 321 321 321 321 321 321 321 321 321 321 320 319 318 317 317 318 321
303 302 302 304 307 310 311 313 312 311 310 313 316 318 324 320 318 318 318 319 320 321 321 320 321 321 322 322 322 322 321 322 321 321 321 322 322 321 320 319 318 317 317 317 321
303 302 302 306 310 310 310 311 313 310 312 315 317 319 322 321 319 319 319 319 320 320 321 321 321 322 321 322 322 321 323 323 322 322 321 320 321 321 321 319 319 319 317 318 318
303 302 302 306 311 309 309 315 316 315 316 319 316 320 321 319 319 319 320 321 320 320 320 320 320 321 322 322 323 324 324 325 324 322 322 321 325 322 321 321 321 321 321 320 319
302 302 302 307 310 309 312 316 317 316 317 318 322 322 320 317 319 319 320 320 320 320 321 319 321 322 322 323 324 325 324 325 324 323 322 323 325 323 323 323 323 323 322 321 320
304 302 302 308 310 309 316 317 314 318 320 319 319 320 318 319 320 319 319 320 321 321 321 321 322 324 321 320 321 322 324 324 324 322 322 323 324 323 322 321 321 321 322 322 321
303 303 302 308 311 310 314 315 318 318 319 320 319 317 317 319 319 319 319 320 321 321 319 320 323 321 320 320 320 320 321 323 323 322 324 323 323 321 322 321 322 322 323 322 321
302 302 302 308 311 312 314 316 318 319 319 319 319 320 319 319 320 320 318 319 318 320 318 320 321 318 318 318 319 319 321 323 323 322 323 322 323 321 321 322 322 321 321 323 323
304 302 302 308 311 315 317 315 315 317 321 320 321 321 320 318 318 320 317 317 318 319 317 318 319 315 316 319 318 320 321 321 324 323 323 322 324 321 321 321 321 321 322 322 324
304 303 302 310 314 314 317 316 316 319 322 321 321 321 319 317 320 317 315 317 318 319 318 317 316 315 316 317 318 321 320 325 326 324 324 322 326 324 322 323 321 321 322 324 324
305 302 301 309 316 316 316 318 319 321 328 320 321 316 316 319 318 319 315 316 318 318 316 317 315 316 317 316 317 320 321 325 325 325 325 323 324 323 322 323 322 321 322 321 321
307 303 302 311 314 315 316 318 321 326 328 322 320 317 316 317 317 316 316 316 315 316 316 314 314 315 317 316 318 319 322 326 325 326 327 322 325 323 323 322 321 324 322 320 321
305 303 303 307 316 315 318 322 324 325 320 322 320 316 316 317 317 315 317 317 317 318 318 315 315 314 315 318 319 320 325 336 331 330 326 323 325 326 323 321 325 324 320 319 319
306 303 307 309 313 315 318 321 324 322 320 318 316 315 318 316 316 316 317 319 316 316 317 316 317 313 313 317 318 322 324 330 335 327 329 324 327 326 322 322 323 322 318 317 319
307 307 306 309 313 315 319 322 323 322 320 318 315 317 318 316 316 317 317 318 316 314 316 316 316 313 313 316 317 319 320 322 329 328 332 325 320 324 323 322 321 322 318 317 317
311 307 306 312 313 316 320 320 321 319 317 317 319 318 319 317 318 317 317 316 316 313 313 315 314 313 311 316 317 317 318 325 327 336 328 320 317 318 321 322 321 322 318 316 317
309 306 310 314 315 316 318 320 319 318 316 317 318 319 318 318 318 317 317 315 315 313 312 312 313 314 313 315 316 318 318 318 323 323 327 323 321 317 318 320 320 321 315 314 316
309 304 311 314 312 311 314 317 316 317 315 315 316 317 318 318 318 317 317 317 313 312 314 313 315 314 313 313 313 315 315 315 318 319 322 324 322 317 318 319 319 318 316 314 314
308 307 311 312 310 310 313 316 316 317 316 315 316 316 316 318 318 316 316 313 311 312 313 314 316 317 314 316 313 312 311 311 312 320 322 319 319 317 317 319 319 320 315 313 313
309 306 312 312 311 311 312 314 315 315 316 315 316 315 316 316 315 316 315 314 311 311 314 312 316 317 318 315 313 313 312 311 310 317 316 315 311 317 317 320 321 319 316 312 312
310 308 308 311 311 312 312 313 315 315 314 314 315 316 316 316 315 314 315 314 310 312 312 313 317 314 313 312 311 311 311 310 310 314 317 314 312 312 317 319 320 319 318 318 314
313 309 308 309 309 310 310 312 313 315 314 314 315 315 315 316 316 316 316 315 315 311 311 310 313 310 314 314 312 313 314 314 314 316 316 316 314 312 316 317 318 319 318 317 316
314 311 308 308 309 310 312 310 312 314 313 315 314 316 314 315 314 315 314 314 313 312 313 311 312 315 317 313 314 317 317 316 315 316 316 312 315 316 316 316 317 319 318 316 314

GFSSW_925_thetae_120.txt.gz
Theta_e
307 306 306 306 306 306 306 306 306 307 307 312 314 314 315 315 316 320 319 317 319 317 321 324 320 317 317 324 324 326 332 331 328 327 327 325 325 326 328 331 330 331 334 344 334
306 306 306 306 306 306 306 306 306 306 307 312 314 315 316 316 317 320 318 317 318 320 322 320 321 319 322 320 323 326 330 328 323 323 322 322 323 324 324 328 329 328 330 338 333
307 307 307 305 306 306 306 307 307 307 309 313 314 316 317 315 323 321 318 318 318 320 321 321 321 320 322 320 321 320 323 322 319 319 319 318 317 318 319 322 322 322 323 341 344
307 305 303 302 303 304 307 309 310 310 311 312 314 317 317 322 323 320 318 318 319 320 321 320 322 324 325 324 322 321 321 320 322 321 321 321 320 319 319 319 318 317 316 317 328
306 303 302 303 305 308 310 311 313 313 311 311 314 317 319 325 320 318 318 320 320 321 321 321 322 322 325 322 322 322 322 321 321 322 322 322 322 322 321 320 319 318 317 316 315
305 303 302 303 307 311 310 310 310 311 310 311 315 317 325 324 319 319 319 319 320 321 321 320 321 321 322 322 323 322 321 322 322 323 322 322 322 321 321 320 318 318 316 315 314
304 303 302 303 306 311 309 309 314 311 310 314 316 318 324 321 320 320 320 320 320 321 321 320 320 321 322 323 323 322 323 324 324 324 323 321 322 323 320 320 319 318 317 316 315
304 302 302 303 307 310 309 314 315 315 315 317 317 321 323 319 320 320 320 321 321 321 321 321 320 322 323 323 324 324 325 327 324 323 322 322 325 324 322 321 321 321 319 319 318
304 302 302 303 309 310 310 316 317 316 317 318 320 323 322 317 319 320 320 320 319 321 321 320 320 324 324 324 321 325 322 323 325 324 323 323 324 323 321 321 321 320 320 320 320
303 302 302 303 310 310 314 316 317 318 318 322 321 321 319 319 320 320 320 320 321 321 321 322 323 324 324 320 321 320 320 321 323 323 323 325 322 322 321 320 320 319 319 320 320
303 303 302 302 310 311 313 316 318 318 320 321 320 318 318 318 319 320 319 320 321 321 323 320 321 322 319 320 319 319 319 321 322 323 323 325 323 321 322 321 321 321 320 320 321
303 302 302 302 309 313 315 318 318 319 321 319 319 319 318 318 319 320 320 318 319 319 320 319 322 317 316 318 319 319 321 322 321 323 323 324 324 323 321 321 321 320 320 321 322
302 302 302 302 309 315 318 317 316 319 324 319 318 320 321 318 319 320 318 318 317 319 319 317 319 316 316 318 317 318 321 323 326 324 323 323 323 322 322 321 320 320 320 321 321
302 302 302 302 314 315 318 318 318 320 324 321 320 320 320 318 319 318 317 317 318 320 319 317 316 315 317 317 317 319 319 322 327 326 327 323 325 326 321 321 321 320 322 321 319
305 302 302 301 311 317 316 319 320 322 330 322 321 317 317 319 319 319 316 316 318 318 316 317 316 316 317 317 317 319 319 321 325 326 326 323 323 325 322 323 322 322 322 320 319
307 305 302 311 314 316 316 320 322 326 328 322 320 318 317 318 319 317 317 317 317 316 316 316 314 315 315 316 318 319 322 326 327 327 330 323 325 325 324 323 324 324 320 319 319
307 307 306 305 315 316 319 322 322 326 323 322 321 318 318 319 318 316 317 318 318 319 320 317 316 315 315 318 320 322 323 336 331 332 328 323 326 326 323 323 325 322 319 318 318
307 308 309 303 311 316 319 325 329 325 323 321 319 317 318 318 317 317 318 320 317 316 318 319 318 314 313 318 318 321 322 330 329 331 330 327 328 327 323 322 323 320 318 317 319
308 308 310 308 306 316 319 324 322 323 322 319 317 317 319 317 317 317 318 319 316 315 316 318 318 314 313 315 317 319 320 323 328 329 332 331 324 324 319 321 323 322 318 317 317
312 310 308 307 311 315 319 321 321 321 320 319 320 319 321 318 317 318 318 317 317 314 314 315 314 314 312 314 318 318 318 325 329 327 329 322 318 317 320 322 323 319 317 318 316
312 310 309 310 312 315 317 318 320 319 318 319 320 320 320 319 318 319 318 315 315 315 313 314 314 315 313 316 316 318 319 318 321 324 326 324 319 316 319 320 321 319 315 315 316
311 308 311 314 315 311 313 315 317 320 317 318 317 320 319 319 319 319 318 318 315 313 315 313 314 316 314 314 314 315 315 314 317 320 319 321 320 316 319 319 319 317 315 314 315
312 310 312 314 309 308 309 312 314 320 317 317 317 319 318 319 320 319 318 314 313 314 315 315 317 317 316 316 314 313 314 311 311 314 322 317 318 315 318 319 319 317 315 313 313
310 308 312 313 313 308 308 310 315 318 318 317 317 317 317 318 318 318 318 314 312 313 313 313 316 318 319 318 315 314 314 311 311 312 316 314 313 316 317 320 319 317 313 312 314
313 309 310 311 310 311 310 310 315 317 316 316 317 317 317 318 317 316 317 313 312 316 311 313 318 318 316 313 312 312 312 312 310 309 313 315 315 313 316 318 319 318 316 314 313
314 311 308 308 308 308 310 311 313 315 315 315 316 316 316 317 317 316 316 315 314 312 313 311 313 313 313 314 314 313 313 313 312 310 311 314 315 313 314 316 318 317 318 316 313
312 314 312 309 307 308 308 311 312 314 314 315 315 316 316 316 315 315 315 314 312 312 314 312 312 316 317 314 314 316 315 315 314 314 315 316 315 315 315 316 317 317 317 316 313

GFSSW_925_thetae_123.txt.gz
Theta_e
306 306 306 306 306 306 306 306 306 306 307 308 314 314 314 315 315 320 318 317 317 319 322 321 321 317 316 320 321 322 324 327 326 322 322 318 318 320 321 322 328 329 333 337 333
306 307 307 307 306 306 306 306 306 307 307 309 313 314 316 317 316 318 317 318 318 320 321 320 320 317 317 317 319 322 323 325 319 316 317 317 316 315 315 315 318 321 338 335 334
307 307 305 303 302 303 304 307 308 308 309 311 313 314 317 315 322 320 318 318 319 320 320 321 320 318 319 317 317 317 319 319 318 320 320 319 319 318 317 317 316 316 326 335 333
307 305 302 302 304 306 308 310 311 312 311 311 312 314 317 319 321 319 318 318 320 320 321 320 318 321 321 322 320 318 318 319 319 321 320 320 319 319 318 318 316 316 314 324 339
306 303 302 302 303 307 310 310 309 310 311 311 311 315 318 324 321 317 318 319 320 320 320 320 318 319 319 319 319 320 320 320 319 320 320 320 320 320 319 318 317 316 316 313 313
305 303 302 302 303 306 310 309 309 312 311 310 311 315 321 325 318 319 318 319 320 320 321 319 319 319 319 320 319 320 320 320 320 320 320 321 320 319 318 317 317 317 315 313 312
305 304 302 302 304 308 310 309 314 314 311 310 314 317 324 323 319 319 320 320 320 320 321 320 320 319 319 320 320 321 320 320 321 321 321 319 321 321 318 317 317 316 315 315 315
305 303 302 302 304 309 310 311 315 315 314 315 317 320 322 319 320 319 320 320 320 321 321 320 320 320 321 320 321 323 320 321 321 321 320 319 322 321 317 318 318 316 315 317 317
305 303 302 302 303 310 310 314 317 316 318 318 318 321 322 318 318 320 319 320 319 320 320 320 319 321 321 322 316 315 317 317 318 320 321 320 322 319 317 318 318 317 316 317 318
306 303 302 302 303 310 311 315 317 315 318 321 323 318 318 318 319 320 320 319 320 319 320 320 319 320 317 314 317 317 316 316 316 321 321 322 320 320 319 319 318 317 316 317 318
307 303 302 302 303 310 312 317 315 316 317 318 318 317 317 318 319 319 319 319 319 319 319 320 316 317 315 316 316 316 316 316 318 321 321 322 320 321 319 319 318 317 317 317 318
307 304 302 302 303 310 314 316 316 318 320 318 318 318 318 317 318 318 319 317 316 316 315 313 316 314 315 315 316 316 318 318 322 323 321 320 322 320 320 319 319 318 317 319 319
307 304 303 302 303 312 317 317 315 319 320 320 318 317 319 318 318 319 316 315 316 315 316 314 316 315 315 315 316 316 319 319 324 324 322 321 322 322 320 319 319 317 318 319 318
307 304 302 302 310 315 316 317 316 320 318 319 318 319 319 318 318 317 316 316 316 318 317 315 314 315 315 316 315 316 317 318 322 324 323 319 321 322 320 320 319 319 320 319 318
308 305 302 305 305 314 316 317 319 320 321 321 319 318 317 318 319 317 315 315 317 315 312 312 314 314 315 315 315 316 317 318 321 324 323 320 319 322 319 321 319 321 320 318 318
308 307 305 310 311 314 315 319 321 321 324 321 318 317 315 317 317 317 316 315 315 315 314 313 313 314 314 313 315 316 319 324 323 323 326 320 322 320 322 321 320 322 319 318 319
310 308 306 306 310 316 319 320 314 324 321 321 319 318 315 317 317 315 316 316 314 315 316 315 314 314 315 315 316 315 318 316 320 320 323 323 322 321 321 321 322 322 319 318 318
312 310 306 306 305 308 318 320 328 322 320 320 318 316 316 315 315 315 316 316 315 314 314 315 315 314 311 317 317 316 319 315 311 320 320 323 321 323 320 322 320 319 318 318 317
314 311 308 303 302 309 314 322 321 322 320 317 316 315 316 315 316 315 314 315 314 312 314 314 316 312 311 313 314 316 316 320 321 324 322 323 322 322 318 321 318 317 318 318 316
314 310 309 303 304 310 314 320 319 319 318 316 316 315 316 315 313 314 314 316 314 313 312 313 311 312 312 313 317 316 316 320 321 315 322 319 316 315 320 321 319 316 317 318 316
312 310 308 305 307 310 315 315 316 317 317 316 315 316 316 315 313 315 315 314 315 313 312 312 310 313 312 313 315 317 317 315 315 319 321 321 317 314 319 320 319 316 315 316 316
311 309 309 309 311 308 312 310 315 317 315 316 315 317 316 314 315 315 315 316 313 312 313 311 311 314 313 313 312 313 313 310 313 316 315 316 318 317 316 317 317 316 313 314 315
312 310 311 310 306 307 305 308 311 317 315 316 314 316 316 316 317 316 315 313 311 312 312 312 312 313 311 313 312 312 312 309 308 310 317 312 313 315 316 316 315 315 313 313 313
311 309 311 312 309 304 304 306 307 312 316 315 314 315 315 316 315 315 314 312 310 314 315 311 312 313 315 315 312 312 310 308 307 307 312 310 314 315 318 317 315 313 312 313 310
311 307 311 313 313 312 307 304 307 308 315 313 314 315 314 315 314 315 313 311 311 317 310 310 313 314 314 313 311 310 311 310 308 306 309 311 313 312 316 317 315 312 311 312 311
311 312 311 310 307 311 311 308 305 310 314 315 314 314 313 313 313 313 312 310 310 312 310 308 310 311 312 312 311 311 311 311 309 308 306 307 310 310 313 314 314 313 313 311 310
310 310 313 310 307 307 307 307 309 310 313 314 314 314 314 313 312 310 310 310 309 309 310 308 309 312 313 312 312 313 312 312 312 310 308 309 311 312 317 318 316 314 314 312 309

GFSSW_925_thetae_126.txt.gz
Theta_e
306 307 307 307 306 306 306 306 307 307 307 307 312 314 314 315 315 320 317 317 318 319 320 321 321 317 316 318 319 319 322 325 325 317 317 316 317 317 315 315 320 331 335 334 337
307 307 306 305 303 303 304 305 307 308 307 308 311 314 315 316 316 318 317 318 318 319 320 320 319 316 315 316 318 321 321 322 319 316 317 318 318 317 317 315 316 319 335 335 333
307 307 304 302 302 304 307 308 310 310 310 310 311 313 316 315 322 319 318 318 319 320 320 320 320 318 318 315 316 317 317 317 317 317 319 319 318 318 318 318 317 316 317 335 334
307 304 302 302 302 304 307 310 310 309 311 311 311 313 316 320 322 319 317 318 320 320 320 318 317 319 320 321 319 316 316 317 319 319 320 319 318 318 318 318 316 316 315 333 334
306 304 302 302 302 304 307 310 309 308 309 310 311 313 318 323 321 317 318 319 320 320 319 318 318 318 319 318 318 319 319 319 319 318 319 318 319 319 318 316 315 315 314 313 314
305 304 303 302 302 305 308 310 309 313 312 311 310 314 320 324 319 317 318 319 319 320 320 318 318 318 319 319 318 319 319 318 319 319 319 320 319 319 318 315 316 316 315 314 314
306 304 303 302 302 305 310 309 312 315 313 310 311 317 323 323 318 319 319 319 319 320 319 320 319 319 319 320 319 320 320 319 320 320 320 319 320 320 317 316 315 315 314 316 315
306 305 303 302 302 304 310 310 315 315 314 314 315 320 319 320 319 319 319 319 319 320 320 320 319 319 320 319 319 321 316 317 316 320 320 319 321 319 315 317 317 316 314 316 316
308 306 303 302 302 304 310 312 316 316 317 318 317 320 319 319 319 319 319 319 319 320 320 320 318 319 319 318 313 313 316 316 316 319 320 319 320 318 317 318 318 316 315 316 316
309 307 304 302 302 304 310 313 315 314 318 319 322 318 316 316 317 319 319 319 319 318 319 320 317 317 313 311 312 316 315 315 315 318 320 320 320 319 318 318 317 315 315 315 318
309 308 304 302 302 303 311 315 314 314 316 314 315 315 317 318 319 318 319 319 319 318 319 319 318 316 313 314 315 315 315 316 317 319 321 320 321 320 319 318 318 316 315 317 318
307 308 305 302 302 304 311 315 316 316 317 317 317 316 317 316 317 317 318 316 317 318 314 312 315 314 313 314 315 315 317 317 318 321 321 319 322 320 319 319 318 317 317 317 318
307 308 307 302 302 311 314 317 316 318 318 319 317 317 317 317 317 317 315 314 315 314 315 312 314 314 314 314 314 314 317 317 319 321 319 320 321 321 319 318 318 317 317 318 317
312 307 307 302 307 306 315 317 317 319 313 315 317 317 318 316 317 316 315 314 315 316 316 314 313 314 313 314 314 315 316 317 318 322 323 317 321 320 318 317 317 318 320 318 318
316 310 308 306 306 309 315 317 319 317 312 317 318 318 316 317 317 316 314 314 315 315 312 312 313 312 313 314 313 314 315 316 318 322 322 319 319 316 318 320 318 321 320 318 319
324 314 309 305 311 310 315 319 319 316 316 320 317 316 316 316 317 316 315 314 314 314 313 312 312 312 313 313 313 315 318 315 321 321 325 319 320 317 320 320 321 321 319 319 318
323 320 311 307 307 310 317 317 316 318 318 320 318 315 314 315 316 314 314 315 313 314 315 314 313 313 313 314 313 314 312 312 315 318 323 321 319 319 319 321 321 321 320 318 318
321 321 313 309 304 307 315 319 317 313 319 319 317 315 314 315 315 313 314 315 313 312 313 313 313 313 311 314 314 315 315 311 305 316 316 320 320 319 320 320 319 319 319 318 317
317 319 315 309 307 305 312 321 317 322 319 317 315 315 314 314 313 314 313 314 312 311 313 313 315 311 309 312 313 315 316 317 316 318 319 320 320 319 320 321 317 319 319 318 317
317 314 311 314 307 308 313 318 318 318 317 315 316 313 314 313 315 313 312 313 313 311 310 312 313 311 312 312 316 315 316 319 316 316 320 318 315 314 318 319 318 319 319 318 316
314 312 312 315 307 309 313 312 314 316 316 314 314 314 314 314 312 313 313 314 313 311 310 310 309 312 311 312 316 316 316 315 314 316 318 320 316 309 317 319 318 317 317 317 316
313 315 313 307 307 306 309 311 313 313 314 316 314 314 314 312 312 313 314 314 312 311 311 310 308 312 312 311 311 311 311 309 312 316 312 313 316 317 316 316 316 314 316 316 314
313 314 312 307 309 306 305 308 310 311 313 315 314 315 314 313 314 314 314 312 311 311 310 309 310 312 312 312 312 311 311 307 307 308 312 314 311 314 314 314 314 312 312 315 313
313 314 311 310 309 306 305 306 307 308 310 314 314 314 315 315 313 314 312 311 310 313 317 311 310 311 313 314 311 310 311 307 306 307 310 312 311 317 316 316 314 312 311 312 313
311 311 309 312 310 310 307 305 305 305 308 310 312 314 314 315 314 314 312 310 310 319 309 308 311 311 312 313 314 312 311 308 306 305 309 310 311 312 316 316 314 311 311 309 311
311 308 309 312 309 311 311 311 304 305 308 312 313 313 312 313 314 313 311 309 310 312 308 307 310 311 311 311 309 309 309 308 308 307 306 306 307 306 311 313 312 311 311 311 308
309 309 311 311 312 313 313 312 309 305 305 308 312 313 313 312 311 311 310 308 308 309 308 307 308 310 312 311 312 312 311 310 309 307 308 307 307 313 316 316 314 312 311 311 307